[[{"header":{"parameterUnit":"m.s-1","parameterCategory":1,"la1":30.6,"la2":28.766,"lo1":-90.7593,"lo2":-88.6598,"dy":0.0162,"dx":0.0183,"nx":116,"ny":114,"refTime":"2023-09-19T00:00:00:Z","depth":0,"parameterNumber":2,"parameterNumberName":"U-component_of_WINDS"},"data":[0.0,0.0,0.0,0.0,0.0,0.0,0.0,0.0,0.0,0.0,0.0,0.0,0.0,0.0,0.0,0.0,0.0,0.0,0.0,0.0,0.0,0.0,0.0,0.0,0.0,0.0,0.0,0.0,0.0,0.0,0.0,0.0,0.0,0.0,0.0,0.0,0.0,0.0,0.0,0.0,0.0,0.0,0.0,0.0,0.0,0.0,0.0,0.0,0.0,0.0,0.0,0.0,0.0,0.0,0.0,0.0,0.0,0.0,0.0,0.0,0.0,0.0,0.0,0.0,0.0,0.0,0.0,0.0,0.0,0.0,0.0,0.0,0.0,0.0,0.0,0.0,0.0,0.0,0.0,0.0,0.0,0.0,0.0,0.0,0.0,0.0,0.0,0.0,0.0,0.0,0.0,0.0,0.0,0.0,0.0,0.0,0.0,0.0,0.0,0.0,0.0,0.0,0.0,0.0,0.0,0.0,0.0,0.0,0.0,0.0,0.0,0.0,0.0,0.0,0.0,0.0,0.0,0.0,0.0,0.0,0.0,0.0,0.0,0.0,0.0,0.0,0.0,0.0,0.0,0.0,0.0,0.0,0.0,0.0,0.0,0.0,0.0,0.0,0.0,0.0,0.0,0.0,0.0,0.0,0.0,0.0,0.0,0.0,0.0,0.0,0.0,0.0,0.0,0.0,0.0,0.0,0.0,0.0,0.0,0.0,0.0,0.0,0.0,0.0,0.0,0.0,0.0,0.0,0.0,0.0,0.0,0.0,0.0,0.0,0.0,0.0,0.0,0.0,0.0,0.0,0.0,0.0,0.0,0.0,0.0,0.0,0.0,0.0,0.0,0.0,0.0,0.0,0.0,0.0,0.0,0.0,0.0,0.0,0.0,0.0,0.0,0.0,0.0,0.0,0.0,0.0,0.0,0.0,0.0,0.0,0.0,0.0,0.0,0.0,0.0,0.0,0.0,0.0,0.0,0.0,0.0,0.0,0.0,0.0,0.0,0.0,0.0,0.0,0.0,0.0,0.0,0.0,0.0,0.0,0.0,0.0,0.0,0.0,0.0,0.0,0.0,0.0,0.0,0.0,0.0,0.0,0.0,0.0,0.0,0.0,0.0,0.0,0.0,0.0,0.0,0.0,0.0,0.0,0.0,0.0,0.0,0.0,0.0,0.0,0.0,0.0,0.0,0.0,0.0,0.0,0.0,0.0,0.0,0.0,0.0,0.0,0.0,0.0,0.0,0.0,0.0,0.0,0.0,0.0,0.0,0.0,0.0,0.0,0.0,0.0,0.0,0.0,0.0,0.0,0.0,0.0,0.0,0.0,0.0,0.0,0.0,0.0,0.0,0.0,0.0,0.0,0.0,0.0,0.0,0.0,0.0,0.0,0.0,0.0,0.0,0.0,0.0,0.0,0.0,0.0,0.0,0.0,0.0,0.0,0.0,0.0,0.0,0.0,0.0,0.0,0.0,0.0,0.0,0.0,0.0,0.0,0.0,0.0,0.0,0.0,0.0,0.0,0.0,0.0,0.0,0.0,0.0,0.0,0.0,0.0,0.0,0.0,0.0,0.0,0.0,0.0,0.0,0.0,0.0,0.0,0.0,0.0,0.0,0.0,0.0,0.0,0.0,0.0,0.0,0.0,0.0,0.0,0.0,0.0,0.0,0.0,0.0,0.0,0.0,0.0,0.0,0.0,0.0,0.0,0.0,0.0,0.0,0.0,0.0,0.0,0.0,0.0,0.0,0.0,0.0,0.0,0.0,0.0,0.0,0.0,0.0,0.0,0.0,0.0,0.0,0.0,0.0,0.0,0.0,0.0,0.0,0.0,0.0,0.0,0.0,0.0,0.0,0.0,0.0,0.0,0.0,0.0,0.0,0.0,0.0,0.0,0.0,0.0,0.0,0.0,0.0,0.0,0.0,0.0,0.0,0.0,0.0,0.0,0.0,0.0,0.0,0.0,0.0,0.0,0.0,0.0,0.0,0.0,0.0,0.0,0.0,0.0,0.0,0.0,0.0,0.0,0.0,0.0,0.0,0.0,0.0,0.0,0.0,0.0,0.0,0.0,0.0,0.0,0.0,0.0,0.0,0.0,0.0,0.0,0.0,0.0,0.0,0.0,0.0,0.0,0.0,0.0,0.0,0.0,0.0,0.0,0.0,0.0,0.0,0.0,0.0,0.0,0.0,0.0,0.0,0.0,0.0,0.0,0.0,0.0,0.0,0.0,0.0,0.0,0.0,0.0,0.0,0.0,0.0,0.0,0.0,0.0,0.0,0.0,0.0,0.0,0.0,0.0,0.0,0.0,0.0,0.0,0.0,0.0,0.0,0.0,0.0,0.0,0.0,0.0,0.0,0.0,0.0,0.0,0.0,0.0,0.0,0.0,0.0,0.0,0.0,0.0,0.0,0.0,0.0,0.0,0.0,0.0,0.0,0.0,0.0,0.0,0.0,0.0,0.0,0.0,0.0,0.0,0.0,0.0,0.0,0.0,0.0,0.0,0.0,0.0,0.0,0.0,0.0,0.0,0.0,0.0,0.0,0.0,0.0,0.0,0.0,0.0,0.0,0.0,0.0,0.0,0.0,0.0,0.0,0.0,0.0,0.0,0.0,0.0,0.0,0.0,0.0,0.0,0.0,0.0,0.0,0.0,0.0,0.0,0.0,0.0,0.0,0.0,0.0,0.0,0.0,0.0,0.0,0.0,0.0,0.0,0.0,0.0,0.0,0.0,0.0,0.0,0.0,0.0,0.0,0.0,0.0,0.0,0.0,0.0,0.0,0.0,0.0,0.0,0.0,0.0,0.0,0.0,0.0,0.0,0.0,0.0,0.0,0.0,0.0,0.0,0.0,0.0,0.0,0.0,0.0,0.0,0.0,0.0,0.0,0.0,0.0,0.0,0.0,0.0,0.0,0.0,0.0,0.0,0.0,0.0,0.0,0.0,0.0,0.0,0.0,0.0,0.0,0.0,0.0,0.0,0.0,0.0,0.0,0.0,0.0,0.0,0.0,0.0,0.0,0.0,0.0,0.0,0.0,0.0,0.0,0.0,0.0,0.0,0.0,0.0,0.0,0.0,0.0,0.0,0.0,0.0,0.0,0.0,0.0,0.0,0.0,0.0,0.0,0.0,0.0,0.0,0.0,0.0,0.0,0.0,0.0,0.0,0.0,0.0,0.0,0.0,0.0,0.0,0.0,0.0,0.0,0.0,0.0,0.0,0.0,0.0,0.0,0.0,0.0,0.0,0.0,0.0,0.0,0.0,0.0,0.0,0.0,0.0,0.0,0.0,0.0,0.0,0.0,0.0,0.0,0.0,0.0,0.0,0.0,0.0,0.0,0.0,0.0,0.0,0.0,0.0,0.0,0.0,0.0,0.0,0.0,0.0,0.0,0.0,0.0,0.0,0.0,0.0,0.0,0.0,0.0,0.0,0.0,0.0,0.0,0.0,0.0,0.0,0.0,0.0,0.0,0.0,0.0,0.0,0.0,0.0,0.0,0.0,0.0,0.0,0.0,0.0,0.0,0.0,0.0,0.0,0.0,0.0,0.0,0.0,0.0,0.0,0.0,0.0,0.0,0.0,0.0,0.0,0.0,0.0,0.0,0.0,0.0,0.0,0.0,0.0,0.0,0.0,0.0,0.0,0.0,0.0,0.0,0.0,0.0,0.0,0.0,0.0,0.0,0.0,0.0,0.0,0.0,0.0,0.0,0.0,0.0,0.0,0.0,0.0,0.0,0.0,0.0,0.0,0.0,0.0,0.0,0.0,0.0,0.0,0.0,0.0,0.0,0.0,0.0,0.0,0.0,0.0,0.0,0.0,0.0,0.0,0.0,0.0,0.0,0.0,0.0,0.0,0.0,0.0,0.0,0.0,0.0,0.0,0.0,0.0,0.0,0.0,0.0,0.0,0.0,0.0,0.0,0.0,0.0,0.0,0.0,0.0,0.0,0.0,0.0,0.0,0.0,0.0,0.0,0.0,0.0,0.0,0.0,0.0,0.0,0.0,0.0,0.0,0.0,0.0,0.0,0.0,0.0,0.0,0.0,0.0,0.0,0.0,0.0,0.0,0.0,0.0,0.0,0.0,0.0,0.0,0.0,0.0,0.0,0.0,0.0,0.0,0.0,0.0,0.0,0.0,0.0,0.0,0.0,0.0,0.0,0.0,0.0,0.0,0.0,0.0,0.0,0.0,0.0,0.0,0.0,0.0,0.0,0.0,0.0,0.0,0.0,0.0,0.0,0.0,0.0,0.0,0.0,0.0,0.0,0.0,0.0,0.0,0.0,0.0,0.0,0.0,0.0,0.0,0.0,0.0,0.0,0.0,0.0,0.0,0.0,0.0,0.0,0.0,0.0,0.0,0.0,0.0,0.0,0.0,0.0,0.0,0.0,0.0,0.0,0.0,0.0,0.0,0.0,0.0,0.0,0.0,0.0,0.0,0.0,0.0,0.0,0.0,0.0,0.0,0.0,0.0,0.0,0.0,0.0,0.0,0.0,0.0,0.0,0.0,0.0,0.0,0.0,0.0,0.0,0.0,0.0,0.0,0.0,0.0,0.0,0.0,0.0,0.0,0.0,0.0,0.0,0.0,0.0,0.0,0.0,0.0,0.0,0.0,0.0,0.0,0.0,0.0,0.0,0.0,0.0,0.0,0.0,0.0,0.0,0.0,0.0,0.0,0.0,0.0,0.0,0.0,0.0,0.0,0.0,0.0,0.0,0.0,0.0,0.0,0.0,0.0,0.0,0.0,0.0,0.0,0.0,0.0,0.0,0.0,0.0,0.0,0.0,0.0,0.0,0.0,0.0,0.0,0.0,0.0,0.0,0.0,0.0,0.0,0.0,0.0,0.0,0.0,0.0,0.0,0.0,0.0,0.0,0.0,0.0,0.0,0.0,0.0,0.0,0.0,0.0,0.0,0.0,0.0,0.0,0.0,0.0,0.0,0.0,0.0,0.0,0.0,0.0,0.0,0.0,0.0,0.0,0.0,0.0,0.0,0.0,0.0,0.0,0.0,0.0,0.0,0.0,0.0,0.0,0.0,0.0,0.0,0.0,0.0,0.0,0.0,0.0,0.0,0.0,0.0,0.0,0.0,0.0,0.0,0.0,0.0,0.0,0.0,0.0,0.0,0.0,0.0,0.0,0.0,0.0,0.0,0.0,0.0,0.0,0.0,0.0,0.0,0.0,0.0,0.0,0.0,0.0,0.0,0.0,0.0,0.0,0.0,0.0,0.0,0.0,0.0,0.0,0.0,0.0,0.0,0.0,0.0,0.0,0.0,0.0,0.0,0.0,0.0,0.0,0.0,0.0,0.0,0.0,0.0,0.0,0.0,0.0,0.0,0.0,0.0,0.0,0.0,0.0,0.0,0.0,0.0,0.0,0.0,0.0,0.0,0.0,0.0,0.0,0.0,0.0,0.0,0.0,0.0,0.0,0.0,0.0,0.0,0.0,0.0,0.0,0.0,0.0,0.0,0.0,0.0,0.0,0.0,0.0,0.0,0.0,0.0,0.0,0.0,0.0,0.0,0.0,0.0,0.0,0.0,0.0,0.0,0.0,0.0,0.0,0.0,0.0,0.0,0.0,0.0,0.0,0.0,0.0,0.0,0.0,0.0,0.0,0.0,0.0,0.0,0.0,0.0,0.0,0.0,0.0,0.0,0.0,0.0,0.0,0.0,0.0,0.0,0.0,0.0,0.0,0.0,0.0,0.0,0.0,0.0,0.0,0.0,0.0,0.0,0.0,0.0,0.0,0.0,0.0,0.0,0.0,0.0,0.0,0.0,0.0,0.0,0.0,0.0,0.0,0.0,0.0,0.0,0.0,0.0,0.0,0.0,0.0,0.0,0.0,0.0,0.0,0.0,0.0,0.0,0.0,0.0,0.0,0.0,0.0,0.0,0.0,0.0,0.0,0.0,0.0,0.0,0.0,0.0,0.0,0.0,0.0,0.0,0.0,0.0,0.0,0.0,0.0,0.0,0.0,0.0,0.0,0.0,0.0,0.0,0.0,0.0,0.0,0.0,0.0,0.0,0.0,0.0,0.0,0.0,0.0,0.0,0.0,0.0,0.0,0.0,0.0,0.0,0.0,0.0,0.0,0.0,0.0,0.0,2.2211,2.2114,0.0,0.0,0.0,0.0,0.0,0.0,0.0,0.0,0.0,0.0,0.0,0.0,0.0,0.0,0.0,0.0,0.0,0.0,0.0,0.0,0.0,0.0,0.0,0.0,0.0,0.0,0.0,0.0,0.0,0.0,0.0,0.0,0.0,0.0,0.0,0.0,0.0,1.7183,1.7183,1.7495,1.8082,1.8082,1.8082,1.81,0.0,0.0,0.0,0.0,0.0,0.0,0.0,0.0,0.0,0.0,0.0,0.0,0.0,0.0,0.0,0.0,0.0,0.0,0.0,0.0,0.0,0.0,0.0,0.0,0.0,0.0,0.0,0.0,0.0,0.0,0.0,0.0,0.0,0.0,0.0,0.0,0.0,0.0,0.0,0.0,0.0,0.0,0.0,0.0,0.0,0.0,0.0,0.0,0.0,0.0,0.0,0.0,0.0,0.0,0.0,0.0,0.0,0.0,0.0,0.0,0.0,0.0,0.0,0.0,0.0,0.0,0.0,0.0,0.0,0.0,2.2833,2.2497,0.0,0.0,0.0,0.0,0.0,0.0,0.0,0.0,0.0,0.0,0.0,0.0,0.0,0.0,0.0,0.0,0.0,0.0,0.0,0.0,0.0,0.0,0.0,1.4471,1.4669,1.5074,1.5166,1.5365,0.0,0.0,0.0,0.0,0.0,0.0,0.0,1.6798,1.7165,1.7495,1.7715,1.8229,1.9016,1.9091,1.9016,1.8815,1.8466,0.0,0.0,0.0,0.0,0.0,0.0,0.0,0.0,0.0,0.0,0.0,0.0,0.0,0.0,0.0,0.0,0.0,0.0,0.0,0.0,0.0,0.0,0.0,0.0,0.0,0.0,0.0,0.0,0.0,0.0,0.0,0.0,0.0,0.0,0.0,0.0,0.0,0.0,0.0,0.0,0.0,0.0,0.0,0.0,0.0,0.0,0.0,0.0,0.0,0.0,0.0,0.0,0.0,0.0,0.0,0.0,0.0,0.0,0.0,0.0,0.0,0.0,0.0,2.3743,2.4317,2.5021,2.5095,2.537,2.5737,2.4597,2.3956,2.3724,2.3894,0.0,0.0,0.0,0.0,0.0,0.0,0.0,0.0,0.0,0.0,0.0,0.0,0.0,0.0,0.0,0.0,0.0,0.0,0.0,0.0,0.0,1.4388,1.4726,1.5062,1.5423,1.5643,1.5696,0.0,0.0,0.0,0.0,0.0,1.6835,1.722,1.744,1.7495,1.854,1.9476,2.0262,2.061,2.1123,2.1672,1.9914,1.9531,2.0134,0.0,0.0,0.0,0.0,0.0,0.0,0.0,0.0,0.0,0.0,0.0,0.0,0.0,0.0,0.0,0.0,0.0,0.0,0.0,0.0,0.0,0.0,0.0,0.0,0.0,0.0,0.0,0.0,0.0,0.0,0.0,0.0,0.0,0.0,0.0,0.0,0.0,0.0,0.0,0.0,0.0,2.094,2.0663,0.0,0.0,0.0,0.0,0.0,0.0,0.0,0.0,0.0,0.0,0.0,0.0,0.0,2.3778,2.4522,2.4477,2.4666,2.5076,2.548,2.5719,2.5847,2.6215,2.6784,2.7463,2.7289,0.0,2.4592,2.43,0.0,0.0,0.0,0.0,0.0,0.0,0.0,0.0,0.0,0.0,0.0,0.0,0.0,0.0,0.0,0.0,0.0,0.0,0.0,0.0,0.0,1.5183,1.57,1.6085,1.689,1.7202,1.6743,1.7312,0.0,0.0,0.0,1.7018,1.7238,1.7403,1.7935,1.8851,2.006,2.094,2.1526,2.1929,2.2291,2.2602,2.1727,2.1269,2.1141,2.0576,0.0,0.0,0.0,0.0,0.0,0.0,0.0,0.0,0.0,0.0,0.0,0.0,0.0,0.0,0.0,0.0,0.0,0.0,0.0,0.0,0.0,0.0,0.0,0.0,0.0,0.0,0.0,0.0,0.0,0.0,0.0,0.0,0.0,0.0,0.0,0.0,0.0,0.0,0.0,2.1379,2.1617,2.1233,2.1746,2.1851,0.0,0.0,0.0,0.0,0.0,0.0,0.0,0.0,0.0,2.4629,2.5032,2.5436,2.5811,2.6463,2.6903,2.7086,2.772,2.8252,2.8711,2.8865,2.9299,2.9831,2.9819,2.9195,2.8058,2.6747,2.57,2.4886,0.0,0.0,0.0,0.0,2.4757,2.4941,0.0,0.0,0.0,0.0,0.0,0.0,0.0,0.0,0.0,0.0,0.0,0.0,1.5533,1.6268,1.6964,1.7477,1.8339,1.8595,1.799,1.8339,1.8137,1.7257,1.7202,1.7367,1.766,1.7954,1.8888,2.0497,2.1504,2.2332,2.296,2.3248,2.3504,2.3688,2.3596,2.3046,2.2108,2.1508,2.0903,2.0332,0.0,0.0,0.0,0.0,0.0,0.0,0.0,0.0,0.0,0.0,0.0,0.0,0.0,0.0,0.0,0.0,0.0,0.0,0.0,0.0,0.0,0.0,0.0,0.0,0.0,0.0,0.0,0.0,0.0,0.0,0.0,0.0,0.0,0.0,0.0,0.0,0.0,2.1947,2.2277,2.1742,2.2607,2.2882,0.0,0.0,0.0,0.0,0.0,0.0,2.4274,2.5014,2.5829,2.6729,2.7261,2.7618,2.7848,2.881,2.936,2.947,3.0198,3.0827,3.1414,3.1414,3.1634,3.2001,3.1909,3.1634,3.1084,2.9097,2.761,2.6582,2.638,2.6049,2.5756,2.6159,2.6306,2.6361,0.0,0.0,0.0,0.0,0.0,0.0,0.0,0.0,0.0,0.0,0.0,1.5533,1.6688,1.7532,1.832,1.9109,1.9237,1.9256,1.9219,1.8521,1.81,1.8045,1.8045,1.8045,1.8082,1.9199,2.0573,2.2185,2.262,2.3468,2.4666,2.4684,2.5113,2.5811,2.5443,2.4574,2.3316,2.2163,2.1632,2.1504,2.0351,0.0,0.0,0.0,0.0,0.0,0.0,0.0,0.0,0.0,0.0,0.0,0.0,0.0,0.0,0.0,0.0,0.0,0.0,0.0,0.0,0.0,0.0,0.0,0.0,0.0,0.0,0.0,0.0,0.0,0.0,0.0,0.0,0.0,0.0,0.0,0.0,0.0,0.0,2.1778,2.3125,0.0,0.0,0.0,0.0,2.411,2.4819,2.5627,2.6389,2.6857,2.7628,2.8821,2.9599,3.0387,3.1153,3.1598,3.2019,3.2386,3.2826,3.3031,3.3067,3.3067,3.3287,3.367,3.3303,3.29,3.2349,3.0345,2.9042,2.8187,2.7444,2.6894,2.66,2.7004,2.7151,2.7206,0.0,0.0,0.0,0.0,0.0,0.0,0.0,0.0,1.4333,1.4852,1.5471,1.6323,1.7532,1.8631,1.9584,2.0393,2.0921,2.0903,2.0115,1.9804,1.9291,1.8521,1.8247,1.8447,1.9234,2.0189,2.1453,2.3059,2.3779,2.4611,2.5572,2.5847,2.6251,2.6765,2.6618,2.6151,2.5417,2.4207,2.3211,2.2382,2.1431,2.0665,0.0,0.0,0.0,0.0,0.0,0.0,0.0,0.0,0.0,0.0,0.0,0.0,0.0,0.0,0.0,0.0,0.0,0.0,0.0,0.0,0.0,0.0,0.0,0.0,0.0,0.0,0.0,0.0,0.0,0.0,0.0,0.0,0.0,0.0,0.0,0.0,0.0,2.4115,2.5297,0.0,2.4783,2.5223,2.5609,2.5737,2.6967,2.8087,2.8865,2.9782,3.0717,3.1689,3.2239,3.2661,3.2936,3.3615,3.389,3.3762,3.4183,3.435,3.435,3.435,3.4423,3.4551,3.4405,3.4276,3.4092,3.3083,3.1451,2.9562,2.9525,2.9115,2.8583,2.8975,2.9287,2.9556,0.0,0.0,0.0,0.0,0.0,0.0,0.0,0.0,1.4732,1.5224,1.612,1.7221,1.8576,1.9914,2.1086,2.2043,2.235,2.2112,2.1159,2.0592,1.9877,1.8924,1.8906,1.9419,2.0479,2.1434,2.257,2.3944,2.4922,2.5756,2.6398,2.682,2.7224,2.7581,2.7581,2.7536,2.7371,2.6389,2.4977,2.3266,2.2437,2.1801,2.1196,0.0,0.0,0.0,0.0,0.0,0.0,0.0,0.0,0.0,0.0,0.0,0.0,0.0,0.0,0.0,0.0,0.0,0.0,0.0,0.0,0.0,0.0,0.0,0.0,0.0,0.0,0.0,0.0,0.0,0.0,0.0,0.0,0.0,0.0,2.5069,2.6159,2.6031,2.7444,2.805,2.7096,2.7628,2.8087,2.8215,2.9452,3.0552,3.1377,3.2184,3.2991,3.3782,3.422,3.4422,3.4422,3.5064,3.5284,3.5009,3.5302,3.5394,3.5394,3.5247,3.5266,3.5394,3.5247,3.5192,3.5174,3.4899,3.3541,3.1598,3.1451,3.0932,3.0253,3.0662,3.0974,3.1212,0.0,0.0,0.0,0.0,0.0,0.0,0.0,1.4561,1.4877,1.5611,1.6762,1.8137,1.9729,2.1343,2.2813,2.4091,2.3394,2.273,2.2332,2.083,1.9767,1.9402,2.0115,2.094,2.1742,2.2913,2.3962,2.4874,2.6049,2.6839,2.7261,2.7628,2.805,2.8425,2.8425,2.8645,2.8975,2.859,2.6857,2.4275,2.3358,2.2968,2.2767,0.0,0.0,0.0,0.0,0.0,0.0,0.0,0.0,0.0,0.0,0.0,0.0,0.0,0.0,0.0,0.0,0.0,0.0,0.0,0.0,0.0,0.0,0.0,0.0,0.0,0.0,0.0,0.0,0.0,0.0,0.0,0.0,0.0,2.4966,2.6618,2.7738,2.7389,2.9445,3.0387,2.9232,3.0901,3.1873,3.152,3.2203,3.3028,3.38,3.389,3.4222,3.5009,3.5394,3.5632,3.5632,3.6017,3.6201,3.6201,3.6201,3.6201,3.6201,3.5815,3.5852,3.6182,3.5797,3.5632,3.5632,3.5632,3.5155,3.433,3.3138,3.2166,3.1538,3.1909,3.2056,3.2093,0.0,0.0,0.0,0.0,0.0,0.0,0.0,1.4942,1.5239,1.603,1.7202,1.854,2.017,2.1508,2.2813,2.4091,2.3394,2.273,2.2332,2.1343,2.0848,2.1031,2.1251,2.2039,2.3479,2.3846,2.4709,2.6123,2.6453,2.7086,2.8058,2.8168,2.8619,2.928,2.928,2.9335,2.9427,2.9317,2.8656,2.7518,2.5509,2.4354,2.37,0.0,0.0,0.0,0.0,0.0,0.0,0.0,0.0,0.0,0.0,0.0,0.0,0.0,0.0,0.0,0.0,0.0,0.0,0.0,0.0,0.0,0.0,0.0,0.0,0.0,0.0,0.0,0.0,0.0,0.0,0.0,2.7114,2.7775,2.7077,2.8472,2.9819,3.0589,3.1524,3.2093,3.2056,3.257,3.2955,3.3138,3.3908,3.4551,3.51,3.5394,3.565,3.587,3.5981,3.6054,3.6054,3.6146,3.6201,3.6201,3.6201,3.6201,3.6201,3.6091,3.6109,3.6201,3.6091,3.6054,3.6054,3.6054,3.5742,3.5229,3.457,3.3853,3.3156,3.3266,3.3138,3.2955,0.0,0.0,0.0,0.0,0.0,0.0,0.0,1.5239,1.5588,1.6213,1.7642,1.9089,2.0353,2.1874,2.3198,2.4128,2.3394,2.2657,2.2094,2.1453,2.1343,2.1929,2.246,2.3345,2.4654,2.5212,2.5994,2.7114,2.761,2.8234,2.8902,2.9232,2.9727,3.0351,3.0516,3.0712,3.0859,3.0694,3.0461,3.0094,2.8381,2.6986,2.5811,2.4397,2.3712,2.3382,2.2442,2.2405,2.2643,2.1599,0.0,0.0,0.0,0.0,0.0,0.0,0.0,0.0,0.0,0.0,0.0,0.0,0.0,0.0,0.0,0.0,0.0,0.0,0.0,0.0,0.0,0.0,0.0,0.0,2.9078,3.0088,3.0277,3.1121,3.2038,3.29,3.3505,3.3963,3.4167,3.4367,3.4568,3.4807,3.5265,3.5669,3.6072,3.6182,3.6292,3.6457,3.6311,3.6201,3.6201,3.6201,3.6292,3.6438,3.6292,3.6384,3.6714,3.6366,3.6311,3.642,3.6292,3.6201,3.6201,3.6201,3.6072,0.0,0.0,0.0,0.0,0.0,3.4148,3.3947,0.0,0.0,0.0,0.0,0.0,0.0,0.0,1.5412,1.5782,1.6305,1.8045,1.9531,2.028,2.2094,2.3449,2.3993,2.314,2.2216,2.141,2.1178,2.1462,2.2348,2.3682,2.4808,2.5645,2.6765,2.7555,2.7995,2.9115,2.9721,2.9831,3.0571,3.1139,3.1529,3.1909,3.2276,3.257,3.2221,3.2074,3.2001,3.1286,3.0039,2.8425,2.6912,2.6306,2.6049,2.442,2.3926,2.3852,2.2955,0.0,0.0,0.0,0.0,0.0,0.0,0.0,0.0,0.0,0.0,0.0,0.0,0.0,0.0,0.0,0.0,0.0,0.0,0.0,0.0,0.0,0.0,0.0,0.0,3.0932,3.2276,3.3853,3.4128,3.4257,3.4513,3.521,3.5705,3.5724,3.6109,3.6329,3.6274,3.6311,3.6438,3.6713,3.6494,0.0,0.0,0.0,3.6347,3.6347,3.6347,3.6493,3.686,3.6531,3.6732,3.7354,3.6677,3.6531,3.6786,3.6494,3.6311,3.6274,3.6274,3.6126,3.5904,3.5705,3.5376,3.5046,3.5009,3.4991,3.4936,0.0,0.0,0.0,0.0,0.0,0.0,0.0,1.5192,1.5346,1.662,1.7953,1.8999,1.9494,2.0759,2.1984,2.3065,2.1456,2.0109,1.9399,2.0343,2.1524,2.2889,2.4685,2.6186,2.7298,2.7885,2.8517,2.9243,2.98,3.0406,3.1061,3.1543,3.1983,3.2368,3.2441,3.2533,3.2588,3.2514,3.2478,3.2459,3.2313,3.1286,2.9745,2.8803,2.8234,2.7775,2.6463,2.6408,2.6747,2.5297,2.5161,2.5472,2.45,2.3651,0.0,0.0,0.0,0.0,0.0,0.0,0.0,0.0,0.0,0.0,0.0,0.0,0.0,0.0,0.0,0.0,0.0,0.0,0.0,3.1304,3.2826,3.4275,3.5559,3.5999,3.5999,3.5449,3.5797,3.6219,3.653,3.6915,3.7024,3.6695,3.697,3.6934,3.6366,3.6879,3.7043,3.6805,3.7024,3.7153,3.7153,3.7153,3.7189,3.7281,3.7189,0.0,3.7373,3.7226,3.7024,3.6805,3.7043,3.697,3.6676,3.6676,3.5743,3.4336,3.5246,3.5541,3.5431,3.5119,3.4991,3.4991,0.0,0.0,0.0,0.0,0.0,0.0,0.0,1.4927,1.4968,1.6678,1.7111,1.7614,1.8545,1.9232,1.9886,2.064,1.9513,1.8736,1.8695,1.9899,2.1156,2.2399,2.4025,2.5622,2.7173,2.8091,2.9197,3.051,3.1102,3.1598,3.2001,3.2423,3.2826,3.3211,3.3413,3.3615,3.3817,3.3817,3.3817,3.3817,3.3817,3.334,3.2459,3.1029,3.0241,2.9764,2.8755,2.8645,2.8803,2.7389,2.7041,2.7022,2.6031,2.5124,2.4299,0.0,0.0,0.0,0.0,0.0,0.0,0.0,0.0,0.0,0.0,0.0,0.0,0.0,0.0,2.8205,2.8608,0.0,3.1561,3.2973,3.422,3.5357,3.6347,3.6841,3.6878,3.6273,3.6586,3.686,3.7079,3.7263,3.7299,3.7116,3.7281,3.7208,3.6842,3.7171,3.6897,3.5837,3.5976,3.5677,3.4803,3.4803,3.4906,3.5094,3.4889,3.5094,3.5583,3.5059,3.4969,3.5248,3.4935,3.4764,3.4652,3.4355,3.366,3.2846,3.3275,3.344,3.3423,3.3234,3.3166,3.3095,0.0,0.0,0.0,0.0,0.0,0.0,0.0,1.4748,1.4723,1.6663,1.6188,1.6201,1.7544,1.7656,1.7691,1.7783,1.7724,1.7767,1.8049,1.9341,2.055,2.1542,2.3263,2.4881,2.6333,2.8171,2.9778,3.1099,3.218,3.2753,3.2845,3.3232,3.3635,3.4055,3.4385,3.4715,3.4991,3.4991,3.4991,3.4991,3.4991,3.4991,3.4808,3.3211,3.2276,3.1708,3.0681,3.0259,3.002,2.8883,2.8307,2.7922,2.7279,2.6582,2.5737,2.4365,2.4134,0.0,0.0,0.0,0.0,0.0,0.0,0.0,0.0,2.6692,2.7243,2.8381,2.9262,3.0075,3.0974,3.1946,3.301,3.4312,3.5284,3.5924,3.6242,3.6998,3.7142,3.6126,3.6916,3.7403,3.7167,3.7146,3.6955,3.6555,3.657,3.6552,3.6392,3.6606,3.5996,3.4452,3.4575,3.4007,3.253,3.2593,3.2767,3.3109,3.2767,3.3068,3.3844,3.2942,3.2917,3.3571,3.2696,3.2443,3.2568,3.1715,3.1371,3.134,3.0686,3.0477,3.0601,3.1117,3.13,3.1268,0.0,0.0,0.0,0.0,0.0,0.0,0.0,0.0,1.4827,1.6663,1.595,1.5609,1.6472,1.6261,1.5854,1.5351,1.6669,1.7121,1.6173,1.8232,1.9899,2.0783,2.3991,2.572,2.5624,2.8857,3.0402,3.006,3.2129,3.334,3.3688,3.4092,3.4495,3.4863,3.4899,3.4954,3.4991,3.4991,3.4991,3.4991,3.4991,3.4991,3.4973,3.4753,3.4185,3.3303,3.1396,3.0497,3.0075,2.9214,2.8883,2.8858,2.8766,2.8407,2.7775,2.6178,2.526,2.4445,2.3193,2.3474,2.4452,2.5894,2.66,2.7518,0.0,3.0222,3.0497,3.1359,3.2184,3.268,3.2441,3.3651,3.4716,3.4899,3.5907,3.6148,3.4699,3.6466,3.6774,3.3618,3.6009,3.7484,3.628,3.6155,3.5377,3.3443,3.3637,3.3524,3.2816,3.3669,3.3813,3.3042,3.388,3.4132,3.3648,3.3923,3.4097,3.4129,3.4097,3.4129,3.424,3.3796,3.3511,3.3224,3.2894,3.276,3.2655,3.0836,3.0045,2.976,2.7991,2.7485,2.8053,3.0414,3.13,3.13,0.0,0.0,0.0,0.0,0.0,0.0,0.0,0.0,0.0,1.6681,1.5695,1.5049,1.5589,1.498,1.4405,1.4163,1.5305,1.6118,1.6324,1.7587,1.8901,2.0111,2.1934,2.3795,2.5642,2.7035,2.901,3.1481,3.1959,3.2875,3.4165,3.433,3.4752,3.5339,3.5339,3.5467,3.5724,3.5724,3.5724,3.5724,3.5724,3.5724,3.5596,3.4935,3.413,3.3266,3.1689,3.0736,0.0,2.8993,2.8792,2.9005,2.9005,2.8564,2.7793,2.6398,2.5756,2.5388,2.4849,2.5315,2.6159,2.7077,2.8142,2.9324,3.0809,3.1341,3.1799,3.2845,3.3855,3.4568,3.4385,3.5449,3.631,3.609,3.5988,3.5743,3.5023,3.5004,3.4639,3.3402,3.4186,3.471,3.4513,3.4498,3.4107,3.3231,3.3451,3.3394,3.2822,3.3597,3.3416,3.1873,3.2447,3.2221,3.1037,3.1167,3.1239,3.1196,3.1051,3.1051,3.121,3.0748,3.0445,3.0274,3.0186,3.0027,2.9729,2.8595,2.8076,2.7914,2.696,2.664,2.6961,2.8429,2.8975,2.8975,0.0,0.0,0.0,0.0,0.0,0.0,0.0,0.0,0.0,0.0,1.5436,1.4606,1.4639,1.3951,1.348,1.348,1.4335,1.5271,1.6286,1.7128,1.8143,1.9386,2.0591,2.2295,2.4574,2.5547,2.7777,3.141,3.1061,3.2155,3.4568,3.4124,3.4595,3.5779,3.5779,3.5944,3.6201,3.6201,3.6201,3.6201,3.6201,3.6072,3.576,3.466,3.3541,3.2404,3.1318,3.0327,2.936,2.826,2.8095,2.8362,2.8472,2.8179,2.7573,2.6472,2.5994,2.5847,2.5984,2.6747,2.7683,2.8307,2.9745,3.1249,3.2023,3.2716,3.345,3.4405,3.5302,3.5815,3.5353,3.589,3.617,3.5478,3.492,3.4421,3.3888,3.3331,3.2734,3.1941,3.1823,3.1786,3.1802,3.2273,3.2402,3.1985,3.2237,3.2229,3.196,3.2623,3.2238,3.0581,3.0951,3.0486,2.9001,2.9081,2.9081,2.8988,2.8788,2.8788,2.8975,2.846,2.8138,2.8058,2.8058,2.7938,2.7655,2.7148,2.6987,2.7028,2.6653,2.66,2.6787,2.7175,2.7255,2.7148,0.0,0.0,0.0,0.0,0.0,0.0,0.0,0.0,0.0,0.0,0.0,0.0,0.0,1.3352,1.3207,1.3207,1.4007,1.479,1.5391,1.6805,1.7889,1.8504,2.1112,2.2281,2.173,2.5221,2.7504,2.8445,2.901,3.1241,3.4937,3.3439,3.3989,3.6182,3.6182,3.6201,3.6201,3.6201,3.6201,3.6201,3.6201,3.5742,3.4936,3.4147,3.2588,3.0786,2.9959,2.8876,2.7738,2.6949,2.6646,2.6719,2.7132,2.75,2.7646,2.6839,2.6031,2.5499,2.5884,2.7169,2.8645,2.9837,3.1653,3.3306,3.4128,3.5229,3.6201,3.6621,3.6731,3.6296,3.4738,3.4139,3.3449,3.2071,3.222,3.1864,3.0129,3.1703,3.1634,2.7921,2.8963,2.9427,2.8014,2.9376,2.9834,2.8446,2.8601,2.8775,2.8762,2.9326,2.9457,2.9075,2.9637,2.9664,2.9001,2.9325,2.9325,2.9001,2.8988,2.8988,2.8975,2.846,2.8031,2.7709,2.7709,2.7709,2.7682,2.7416,2.7456,2.7615,2.7028,2.7161,2.7629,2.7403,2.7081,2.6841,0.0,0.0,0.0,0.0,0.0,0.0,0.0,0.0,0.0,0.0,0.0,0.0,0.0,0.0,0.0,0.0,1.3841,1.4563,1.5351,1.6618,1.7595,1.8143,1.9996,2.1438,2.2372,2.3434,2.5074,2.7385,2.8143,2.9746,3.2068,3.2734,3.3601,3.4623,3.4899,3.5009,3.5027,3.5302,3.5394,3.5339,3.4808,3.4458,3.3983,3.2129,3.0662,2.9409,0.0,2.6949,2.6472,2.5682,2.559,2.5866,2.627,2.6306,2.6196,2.6196,2.6196,2.6527,2.7995,2.9372,3.0791,3.2551,3.3908,3.5064,3.6164,3.6493,3.6621,3.6768,3.5494,3.4075,3.3226,3.2541,3.1841,3.1109,3.101,3.0745,2.9932,2.9465,2.8667,2.7163,2.7485,2.7729,2.7457,2.8112,2.8482,2.8207,2.8604,2.8855,2.8855,2.9446,2.9726,2.9575,2.9633,2.9539,2.9339,2.9245,2.9095,2.8988,2.8631,2.8337,2.815,2.7936,2.7789,2.7682,2.7495,2.7522,2.7655,2.7175,2.7148,2.7375,2.6974,2.7068,2.7416,2.7081,2.7161,2.7402,0.0,0.0,0.0,0.0,0.0,0.0,0.0,0.0,0.0,0.0,0.0,0.0,0.0,0.0,0.0,0.0,0.0,1.4215,1.4883,1.6056,1.6847,1.7209,1.8636,1.9942,2.1058,2.1241,2.2606,2.5172,2.5789,2.7276,2.9522,3.0738,3.1871,3.2955,3.3358,3.3633,3.3762,3.389,3.3872,3.367,3.2991,3.2386,3.1689,2.9984,2.8645,0.0,2.6086,2.5462,2.5286,2.4746,2.4746,2.5029,2.5286,2.5488,2.5682,2.6086,2.6912,2.8069,2.9776,3.1244,3.2698,3.4587,3.5449,3.5887,3.6266,3.6114,3.5863,3.5576,3.3774,3.203,3.1416,3.0272,2.9179,2.8447,2.8268,2.8292,2.8321,2.7576,2.6921,2.6787,2.6787,2.6974,2.7375,2.7495,2.775,2.8152,2.8698,2.9001,2.9001,2.9548,2.9913,2.9913,2.9633,2.9432,2.9325,2.9032,2.8831,2.8711,2.8366,2.8031,2.7696,2.7589,2.7482,2.7375,2.7295,2.7416,2.7522,2.7255,2.7241,2.7388,2.7094,2.7161,2.7429,2.7094,2.7348,2.7843,0.0,0.0,0.0,0.0,0.0,0.0,0.0,0.0,0.0,0.0,0.0,0.0,0.0,0.0,0.0,0.0,0.0,0.0,1.4105,1.5186,1.5781,1.5768,1.7195,1.7955,1.7969,1.8878,2.0208,2.1933,2.2138,2.3991,2.7262,2.759,2.8958,3.1189,3.1579,3.1964,3.2294,3.1946,3.1561,3.1189,3.0767,2.9672,2.8278,2.783,2.671,2.5333,2.4929,2.4526,2.4202,2.4202,2.4238,2.4275,2.4293,2.512,2.6141,2.6628,2.8197,2.9996,3.1263,3.2735,3.4313,3.5797,3.6162,3.5842,3.4567,3.4256,3.4,3.3194,3.1597,3.0121,2.9322,2.7488,2.5667,2.4408,2.4479,2.4919,2.5504,2.6092,2.6547,2.6747,2.6854,2.7081,2.7629,2.7496,2.759,2.8165,2.8711,2.9001,2.9001,2.9548,2.9913,2.99,2.9619,2.9312,2.8975,2.8724,2.843,2.8179,2.8152,2.7991,2.7669,2.7416,2.7094,2.6854,2.7148,2.7322,2.7376,2.7589,2.7709,2.7696,2.7443,2.751,2.7682,2.7443,2.7697,2.8138,0.0,0.0,0.0,0.0,0.0,0.0,0.0,0.0,0.0,0.0,0.0,0.0,0.0,0.0,0.0,0.0,0.0,0.0,1.4601,1.5154,1.5404,1.5213,1.6807,1.7595,1.7408,1.8464,1.9157,1.943,2.096,2.2418,2.3811,2.5167,2.6511,2.782,2.8223,2.8491,2.8601,2.8803,2.8821,2.8656,2.7958,2.7581,2.7371,2.6068,2.5499,2.5297,2.4599,2.4293,2.4202,2.4202,2.4606,2.5131,2.5451,2.6159,2.7206,2.881,3.0277,3.1781,3.3596,3.5028,3.5957,3.5688,3.5434,3.4912,3.3345,3.239,3.1722,3.1076,2.8652,2.658,2.6364,2.5281,2.4383,2.4227,2.5545,2.6573,2.6493,2.7001,2.7228,2.6867,2.7215,2.7442,2.7416,2.775,2.8125,2.8457,2.8831,2.9001,2.9001,2.9548,2.982,2.9606,2.9312,2.8975,2.8724,2.846,2.8259,2.8179,2.7737,2.7483,2.7403,2.7068,2.7014,2.7202,2.7269,2.755,2.7951,2.7762,2.7871,2.8045,2.7709,2.7776,2.8031,2.7737,2.7857,2.8179,0.0,0.0,0.0,0.0,0.0,0.0,0.0,0.0,0.0,0.0,0.0,0.0,0.0,0.0,0.0,0.0,0.0,0.0,0.0,1.528,1.5388,1.4641,1.6029,1.6756,1.6576,1.6968,1.7373,1.7703,1.9313,2.0364,2.0922,2.2937,2.4374,2.5271,2.57,2.6068,2.6416,2.6453,2.638,0.0,0.0,2.5161,2.4996,2.4445,2.4262,2.4299,2.4214,2.444,2.479,2.5131,2.5554,2.6123,2.7224,2.8124,2.9122,3.0992,3.2353,3.3672,3.5339,3.6402,3.6861,3.5911,3.5212,3.4053,3.1378,3.0091,2.9186,2.8129,2.583,2.4147,2.4521,2.3728,2.3121,2.338,2.4716,2.5852,2.6199,2.676,2.7148,2.7201,2.7495,2.7736,2.7843,2.8072,2.8366,2.8764,2.8908,2.9055,2.9232,2.9673,2.9847,2.9673,2.9259,2.8788,2.8446,2.8272,2.8179,2.8179,2.7844,2.755,2.7296,2.7094,2.6974,2.6934,2.7188,2.7496,2.7804,2.7898,2.7951,2.7991,2.7951,2.7951,2.7991,2.7951,2.8045,2.8179,0.0,0.0,0.0,0.0,0.0,0.0,0.0,0.0,0.0,0.0,0.0,0.0,0.0,0.0,0.0,0.0,0.0,0.0,0.0,0.0,1.5605,1.4489,1.5425,1.5969,1.5969,1.5563,1.5835,1.6823,1.7745,1.8418,1.8881,2.0925,2.2327,2.3114,2.3589,2.4177,2.4801,2.45,2.4195,2.3828,2.3431,2.2882,2.2387,0.0,2.3242,2.3078,2.3901,2.4661,2.5407,2.649,2.6903,2.7353,2.9299,3.0529,3.1506,3.3138,3.4368,3.5449,3.6376,3.692,3.6908,3.564,3.4491,3.272,2.9022,2.7528,2.6503,2.4926,2.3373,2.2502,2.3292,2.2684,2.2178,2.2592,2.3407,2.4396,2.5531,2.6186,2.6827,2.7549,2.7709,2.7963,2.8497,2.8379,2.85,2.9015,2.9055,2.9148,2.9419,2.97,2.982,2.974,2.9205,2.8671,2.8192,2.8179,2.8179,2.8179,2.8138,2.7831,2.7309,2.7269,2.6974,2.648,2.7028,2.7296,2.7403,2.7871,2.7965,2.7776,2.8045,2.7991,2.7789,2.8085,2.8179,2.8179,0.0,0.0,0.0,0.0,0.0,0.0,0.0,0.0,0.0,0.0,1.6787,0.0,0.0,0.0,0.0,0.0,0.0,0.0,0.0,0.0,0.0,1.6232,1.6656,1.6869,1.6869,1.7039,1.7239,1.7433,1.763,1.818,1.9068,1.9462,2.0152,2.1031,2.1456,2.1713,2.186,2.213,2.2204,2.213,2.2034,2.213,2.235,2.2821,0.0,0.0,2.4012,2.4293,2.479,2.7279,2.8546,2.9372,3.1047,3.2368,3.3615,3.521,3.6054,3.6357,3.5795,3.5929,3.5502,3.2463,3.0801,2.9258,2.6627,2.4997,2.3759,2.2739,2.2094,2.1768,2.1951,2.2142,2.2686,2.3728,2.4636,2.5531,2.6466,2.7094,2.7442,2.7389,2.7804,2.8152,2.8259,2.8446,2.8778,2.9366,2.9406,2.9325,2.9081,2.9392,2.9339,2.8845,2.8526,2.8286,2.8179,2.8179,2.8179,2.8179,2.7938,2.7643,2.7296,2.7014,2.6841,2.6747,2.6854,2.7175,2.7615,2.7523,2.771,2.8085,2.7856,2.7938,2.8112,2.8165,2.8179,2.8179,0.0,0.0,0.0,0.0,0.0,0.0,0.0,0.0,0.0,1.6835,1.6908,1.6908,0.0,0.0,0.0,0.0,0.0,0.0,0.0,0.0,0.0,0.0,1.7151,1.7557,1.7557,1.7279,1.7434,1.8058,0.0,1.8129,1.8773,1.9064,1.9557,2.0207,2.061,2.0885,2.1126,2.1544,2.1687,2.1687,2.1687,2.1819,2.2034,0.0,0.0,0.0,2.4128,2.4477,2.5076,2.6875,2.8436,3.0033,3.2478,3.3945,3.4991,3.6421,3.6951,3.7128,3.707,3.6515,3.5339,3.2604,3.034,2.8071,2.5245,2.3701,2.2531,2.1523,2.1341,2.1355,2.1355,2.1804,2.2432,2.3153,2.3888,2.4836,2.6186,2.648,2.6787,2.7415,2.7736,2.8072,2.8393,2.8657,2.9072,2.9659,2.9713,2.9646,2.9455,2.9486,2.9285,2.8801,2.8537,2.8353,2.8179,2.8031,2.8031,2.8179,2.7724,2.7443,2.7296,2.6961,2.6734,2.66,2.676,2.6947,2.7241,2.7255,2.7469,2.7724,2.7696,2.7789,2.7978,2.8125,2.8179,2.8179,0.0,0.0,0.0,0.0,0.0,0.0,0.0,1.5696,1.5989,1.6781,1.6908,1.6908,1.6908,1.6908,1.6908,0.0,0.0,0.0,0.0,0.0,0.0,0.0,0.0,0.0,1.8278,0.0,0.0,1.8669,1.8415,0.0,0.0,0.0,0.0,0.0,2.0317,2.072,2.1126,2.1544,2.1687,0.0,0.0,2.1687,2.1778,0.0,0.0,0.0,0.0,2.4624,2.5278,2.6288,2.772,2.9592,3.2459,3.4275,3.5559,3.6566,3.7116,3.7383,3.7385,3.6682,3.5329,3.2563,3.0112,2.7586,2.4494,2.2926,2.1857,2.0913,2.0855,2.1042,2.1096,2.1483,2.1937,2.2352,2.2873,2.3848,2.565,2.5718,2.6132,2.7535,2.7696,2.7936,2.8551,2.8828,2.9215,2.978,2.9887,2.9887,2.982,2.9553,2.9285,2.9001,2.8764,2.8484,2.8286,2.7991,2.7883,2.8085,2.7617,2.7336,2.7161,2.6934,2.6667,2.64,2.6627,2.68,2.6934,2.7094,2.7322,2.751,2.7629,2.7736,2.7816,2.8098,2.8179,2.8179,0.0,0.0,0.0,0.0,0.0,0.0,0.0,1.5696,1.5989,1.6781,1.6908,1.6908,1.6908,1.6908,1.6908,0.0,0.0,0.0,0.0,0.0,0.0,0.0,0.0,0.0,0.0,0.0,0.0,1.9228,1.9192,0.0,0.0,0.0,0.0,0.0,0.0,2.072,2.1126,2.1544,0.0,0.0,0.0,0.0,0.0,0.0,0.0,0.0,0.0,2.4257,2.4551,2.6086,2.6967,2.7738,2.9501,3.2093,3.4605,3.5064,3.6237,3.6808,3.4067,3.4655,3.4723,2.9515,2.7986,2.7085,2.4399,2.2458,2.1122,2.0779,2.0726,2.0802,2.1069,2.1149,2.1456,2.2285,2.2686,2.3562,2.5304,2.5758,2.6399,2.7562,2.7696,2.7936,2.8551,2.8828,2.9135,2.9499,2.9766,2.9806,2.9539,2.9202,2.9028,2.9001,2.8764,2.8591,2.8564,2.8299,2.8018,2.7736,2.7682,2.7375,2.6827,2.6787,2.6667,2.6386,2.6413,2.6734,2.7242,2.6961,2.7335,2.8085,2.7789,2.7911,2.8152,2.8179,2.8179,2.8179,0.0,0.0,0.0,0.0,0.0,0.0,0.0,1.5533,1.59,1.6468,1.6762,1.6908,1.6908,1.6908,1.6908,0.0,0.0,0.0,0.0,0.0,0.0,0.0,0.0,0.0,0.0,0.0,1.9292,1.9292,1.9292,0.0,0.0,0.0,0.0,0.0,0.0,2.0372,2.0756,2.1159,0.0,0.0,0.0,0.0,0.0,0.0,0.0,0.0,0.0,0.0,2.4312,2.4929,2.5572,2.6196,2.6582,2.8436,3.0882,3.3214,3.4881,3.566,3.4362,3.4215,3.3579,2.994,2.7277,2.516,2.3631,2.1857,2.0517,2.0428,2.0548,2.0762,2.1056,2.1109,2.1216,2.1577,2.1724,2.2365,2.3932,2.4142,2.4834,2.6694,2.6907,2.7281,2.8272,2.8764,2.9188,2.9713,2.9847,2.986,2.9753,2.9255,2.9001,2.9001,2.8764,2.843,2.807,2.7936,2.7764,2.7428,2.7081,2.6881,2.6774,2.664,2.6493,2.64,2.6573,2.6787,2.7001,2.7068,2.7443,2.7911,2.7749,2.7883,2.8179,2.8179,2.8179,2.8179,0.0,0.0,0.0,0.0,0.0,0.0,1.5038,1.5441,1.5845,1.625,1.6653,1.6908,1.6908,1.6908,1.6908,1.6908,0.0,0.0,0.0,0.0,0.0,0.0,0.0,0.0,0.0,0.0,1.9127,1.9127,1.9237,1.9292,0.0,0.0,1.9366,1.9474,0.0,0.0,0.0,0.0,0.0,0.0,0.0,0.0,0.0,0.0,0.0,0.0,0.0,0.0,0.0,0.0,0.0,2.4985,2.4709,2.5682,2.7555,3.0827,3.3049,3.4288,3.3415,3.3516,3.3081,2.9705,2.6837,2.4498,2.3077,2.1363,2.0104,2.0184,2.0401,2.0655,2.1042,2.1109,2.1109,2.1109,2.1189,2.1724,2.3092,2.314,2.3781,2.5879,2.6052,2.6533,2.7804,2.8657,2.9379,2.9873,2.9913,2.9887,2.9793,2.9268,2.9041,2.9121,2.8804,2.8404,2.7976,2.7869,2.7682,2.7429,2.6974,2.6841,2.6947,2.6747,2.6693,2.6693,2.6867,2.7001,2.7094,2.7308,2.7603,2.7871,2.7871,2.8005,2.8179,2.8179,2.8179,2.8179,0.0,0.0,0.0,0.0,0.0,0.0,0.0,1.5441,1.5845,1.625,1.6653,1.6908,1.6908,1.6908,1.6908,1.6908,0.0,0.0,0.0,0.0,0.0,0.0,0.0,0.0,0.0,0.0,1.8724,1.8724,1.9109,1.9292,1.9292,1.9292,1.9492,1.9875,0.0,0.0,0.0,0.0,0.0,0.0,0.0,0.0,0.0,0.0,0.0,0.0,0.0,0.0,0.0,0.0,0.0,0.0,0.0,2.4489,2.5315,2.7728,3.0717,3.2639,3.0054,3.2107,3.3619,2.7866,2.642,2.569,2.3025,2.1069,1.988,2.0144,2.021,2.0384,2.1002,2.1109,2.1109,2.1109,2.1395,2.1997,2.3132,2.3292,2.3839,2.5344,2.5264,2.5703,2.7175,2.8604,2.9606,2.99,2.9913,2.9793,2.9499,2.9161,2.9135,2.9472,2.8911,2.8604,2.8591,2.8339,2.8031,2.7696,2.7682,2.7535,2.7309,2.7296,2.7296,2.7296,2.7296,2.7469,2.7696,2.7696,2.7911,2.8179,2.8179,2.8179,2.8179,2.8179,2.8179,2.8179,0.0,0.0,0.0,0.0,0.0,0.0,0.0,1.5038,1.5331,1.546,1.5826,1.6083,1.6083,1.6083,1.6193,1.647,0.0,0.0,0.0,0.0,0.0,0.0,0.0,0.0,0.0,0.0,1.843,1.8686,1.8834,1.9036,1.9292,1.9292,1.9366,1.9474,1.9474,1.9712,0.0,0.0,0.0,0.0,0.0,0.0,2.1742,0.0,0.0,0.0,0.0,0.0,0.0,0.0,0.0,0.0,0.0,0.0,0.0,2.5645,2.8022,2.9874,2.7861,2.8814,2.9393,2.5316,2.3713,2.2838,2.176,2.0481,1.9639,2.0104,2.0197,2.0384,2.1002,2.1109,2.1109,2.1109,2.1189,2.1523,2.2298,2.2905,2.3839,2.5331,2.668,2.7749,2.8417,2.9085,2.9606,2.99,2.9913,2.9793,2.9499,2.9161,2.8948,2.8885,2.8711,2.8404,2.7989,2.8125,2.7938,2.7443,2.7443,2.7403,2.7309,2.7309,2.7309,2.7322,2.7468,2.7615,2.7709,2.7965,2.8098,2.8179,2.8179,2.8179,2.8179,2.8179,2.8179,2.8179,0.0,0.0,0.0,0.0,0.0,0.0,0.0,1.4958,1.5216,1.5586,1.582,1.5952,1.5952,1.5952,1.6039,1.6285,0.0,0.0,0.0,0.0,0.0,0.0,0.0,0.0,0.0,1.7789,1.8063,1.8466,1.8632,1.8926,1.9292,1.9292,1.9292,1.9292,1.9292,1.9439,0.0,0.0,0.0,0.0,0.0,0.0,2.1742,0.0,0.0,0.0,0.0,0.0,0.0,0.0,0.0,0.0,0.0,0.0,0.0,0.0,2.5921,2.7147,2.5872,2.6623,2.7013,2.3756,2.2178,2.1341,2.1015,2.0151,1.9562,2.0077,2.0197,2.0384,2.1002,2.1109,2.1109,2.1109,2.1109,2.1309,2.193,2.2659,2.3701,2.517,2.7081,2.8337,2.8468,2.9205,2.9726,2.99,2.982,2.9633,2.9325,2.9032,2.8738,2.8444,2.843,2.8257,2.7911,2.8098,2.8005,2.7643,2.7643,2.7643,2.7643,2.7643,2.7643,2.7643,2.7831,2.7911,0.0,2.8112,2.8179,2.8179,2.8179,2.8179,2.8179,2.8179,2.8179,2.8179,0.0,0.0,0.0,0.0,0.0,0.0,0.0,0.0,0.0,0.0,1.6367,1.6303,1.6303,1.6309,1.6292,0.0,0.0,0.0,0.0,0.0,0.0,0.0,0.0,0.0,0.0,1.7257,1.7678,1.81,1.8466,1.8889,1.9292,1.9292,1.9292,1.9292,1.9292,1.9292,0.0,0.0,0.0,0.0,0.0,0.0,0.0,0.0,0.0,0.0,0.0,0.0,0.0,0.0,0.0,0.0,0.0,0.0,0.0,0.0,0.0,0.0,0.0,2.5376,2.6052,2.3076,2.1655,2.0909,2.0672,1.9977,0.0,2.0077,2.0197,2.0384,2.1002,2.1109,2.1109,2.1109,2.1122,2.1336,2.1911,2.2612,2.3603,2.5061,2.672,2.7749,2.7736,2.9058,2.9913,2.9913,2.9646,2.9352,2.9015,2.8764,2.847,2.8192,2.8179,2.8179,2.8179,2.8179,2.8179,2.8179,2.8179,2.8179,2.8179,2.8179,2.8179,2.8179,2.8179,2.8179,2.8179,2.8179,2.8179,2.8179,2.8179,2.8179,2.8179,2.8179,2.8179,2.8179,0.0,0.0,0.0,0.0,0.0,0.0,0.0,0.0,0.0,0.0,1.5704,1.548,1.548,1.5437,1.5531,0.0,0.0,0.0,0.0,0.0,0.0,0.0,0.0,0.0,0.0,1.7,1.7386,1.81,1.8192,1.8595,1.9292,1.9292,1.9292,1.9292,1.9292,1.9292,0.0,0.0,0.0,0.0,0.0,0.0,0.0,0.0,0.0,0.0,2.3266,2.3578,0.0,0.0,0.0,0.0,0.0,0.0,0.0,0.0,2.4691,2.5032,2.3999,0.0,2.3173,2.1831,2.0621,1.9789,0.0,1.9548,1.9562,2.0077,2.0197,2.0384,2.1002,2.1109,2.1109,2.1109,2.1328,2.1609,2.1937,2.3509,2.5024,2.6266,2.7589,2.8297,2.8098,2.9179,2.9913,2.9913,2.9646,2.9352,2.9015,2.8764,2.847,2.8192,2.8179,2.8179,2.8179,2.8179,2.8179,2.8179,2.8179,2.8179,2.8179,2.8179,2.8179,2.8179,2.8179,2.8179,2.8179,2.8179,2.8179,2.8179,2.8179,2.8179,2.8179,2.8179,2.8179,2.8179,0.0,0.0,0.0,0.0,0.0,0.0,0.0,0.0,0.0,0.0,0.0,0.0,0.0,0.0,0.0,0.0,0.0,0.0,0.0,0.0,0.0,0.0,0.0,1.6908,1.6908,1.6908,1.7294,1.81,1.81,1.8503,1.9292,1.9292,1.9292,1.9292,1.9292,1.9292,0.0,0.0,0.0,0.0,2.0976,0.0,0.0,0.0,0.0,0.0,2.3078,2.3486,0.0,2.4103,2.4202,2.4202,0.0,0.0,0.0,0.0,2.4636,2.5039,2.4534,2.3584,2.2457,2.1443,2.0299,1.9401,1.9401,1.9495,1.9693,2.0104,2.0304,2.0575,2.1029,2.1109,2.1109,2.1109,2.1395,2.1836,2.2498,2.3794,2.5157,2.6466,2.7428,2.8136,2.8524,2.9138,2.9566,2.9713,2.9325,2.9018,2.8845,2.8564,2.8366,2.8192,2.8179,2.8179,2.8179,2.8179,2.8179,2.8179,2.8179,2.8179,2.8179,2.8179,2.8179,2.8179,2.8179,2.8179,2.8179,2.8179,2.8179,2.8179,2.8179,2.8179,2.8179,2.8179,2.8179,2.8221,0.0,0.0,0.0,0.0,0.0,0.0,0.0,0.0,0.0,0.0,0.0,0.0,0.0,0.0,0.0,0.0,0.0,0.0,0.0,0.0,0.0,0.0,0.0,1.6927,1.7,1.7,1.7403,1.8192,1.8192,1.8595,1.9402,1.9329,1.9292,1.9292,1.9292,1.9292,0.0,0.0,0.0,0.0,2.0628,0.0,0.0,0.0,0.0,0.0,0.0,0.0,0.0,2.4183,2.4202,2.4202,2.4202,0.0,0.0,0.0,0.0,0.0,2.5089,2.4112,2.2812,2.1759,2.0443,1.9401,1.9401,1.9615,1.988,2.0144,2.0468,2.0762,2.1056,2.1109,2.1109,2.1109,2.1502,2.2238,2.3452,2.4088,2.4903,2.6226,2.6988,2.7722,2.8695,2.8921,2.9095,2.9392,2.8911,2.8604,2.8604,2.8353,2.8179,2.8179,2.8179,2.8179,2.8179,2.8179,2.8179,2.8179,2.8179,2.8179,2.8179,2.8179,2.8179,2.8179,2.8179,0.0,2.8179,2.8179,2.8179,2.8179,2.8179,2.8179,2.8179,2.8179,2.8179,2.8276,0.0,0.0,0.0,0.0,0.0,0.0,0.0,0.0,0.0,0.0,0.0,0.0,0.0,0.0,0.0,0.0,0.0,0.0,0.0,0.0,0.0,0.0,1.7132,1.7055,1.7403,1.7403,1.7807,1.8595,1.8595,1.9016,1.9804,1.9476,1.9292,1.9292,1.9292,1.9292,1.9347,0.0,0.0,0.0,2.1251,0.0,0.0,0.0,0.0,0.0,0.0,0.0,0.0,2.4067,2.4202,2.4202,2.4202,0.0,0.0,0.0,0.0,0.0,2.4132,2.3624,2.3225,2.2828,2.106,1.9401,1.9401,1.9615,1.988,2.0144,2.0468,2.0762,2.1056,2.1109,2.1109,2.1109,2.201,2.3281,2.4943,2.5251,2.5585,2.6306,2.7121,2.7709,2.7883,2.8548,2.9015,2.9055,2.8791,2.8604,2.8604,2.8353,2.8179,2.8179,2.8179,2.8179,2.8179,2.8179,2.8179,2.8179,2.8179,2.8179,2.8179,2.8179,2.8179,2.8179,0.0,2.8179,2.8179,2.8179,2.8179,2.8179,2.8179,2.8179,2.8179,2.8179,2.8179,2.8305,0.0,0.0,0.0,0.0,0.0,0.0,0.0,0.0,0.0,0.0,0.0,0.0,0.0,0.0,0.0,0.0,0.0,0.0,0.0,0.0,0.0,1.8104,1.763,1.751,1.7923,1.7656,1.7899,1.8686,1.8686,1.8998,1.9566,1.9384,1.9292,1.9292,1.9292,1.9292,1.9347,1.9932,2.0298,0.0,0.0,0.0,0.0,0.0,0.0,0.0,0.0,0.0,0.0,0.0,2.4202,2.4202,2.4202,0.0,0.0,0.0,0.0,0.0,2.3938,2.3387,2.3029,2.2387,2.0915,1.9629,1.9629,1.9826,2.009,2.0414,2.0708,2.0949,2.1082,2.1363,2.179,2.2445,2.326,2.4102,2.4893,2.4999,2.5317,2.6105,2.6546,2.7108,2.7898,2.8163,2.8414,2.8778,2.8524,2.8393,2.8393,2.8259,2.8179,2.8179,2.8179,2.8179,2.8179,2.8179,2.8179,2.8179,2.8179,2.8179,2.8179,2.8179,2.8179,2.8179,0.0,2.8179,2.8179,2.8179,2.8179,2.8179,2.8179,2.8179,2.8221,2.8445,2.8684,2.8978,0.0,0.0,0.0,0.0,0.0,0.0,0.0,0.0,0.0,0.0,0.0,0.0,0.0,0.0,0.0,0.0,0.0,0.0,0.0,0.0,1.807,1.8492,1.8203,1.8164,1.843,1.7894,1.8045,1.8833,1.8833,1.8999,1.9292,1.9402,1.9402,1.9292,1.9292,1.9347,1.9476,1.9877,2.028,0.0,0.0,0.0,0.0,0.0,0.0,0.0,0.0,0.0,0.0,0.0,0.0,0.0,0.0,0.0,0.0,2.4202,2.479,2.5076,2.3595,2.313,2.278,2.1409,2.0386,1.9773,2.004,2.025,2.053,2.0989,2.1256,2.1403,2.1323,2.179,2.2572,2.3629,2.4369,2.4853,2.4986,2.5013,2.5317,2.6105,2.6198,2.6693,2.7951,2.7829,2.7923,2.8457,2.8326,2.8179,2.8179,2.8179,2.8179,2.8179,2.8179,2.8179,2.8179,2.8179,2.8179,2.8179,2.8179,2.8179,2.8179,2.8179,2.8179,2.8179,2.8179,2.8179,2.8179,2.8179,2.8179,2.8179,2.8179,2.8179,2.8263,2.8655,2.9118,2.9565,0.0,0.0,0.0,0.0,0.0,0.0,0.0,0.0,0.0,0.0,0.0,0.0,0.0,0.0,0.0,0.0,0.0,0.0,0.0,0.0,1.8459,1.8509,1.8877,1.9017,1.8854,1.8322,1.8448,1.9256,1.9256,1.9274,1.9311,1.9676,1.9657,1.9292,1.9292,1.9512,1.9895,2.0298,2.0683,2.1108,2.1489,0.0,0.0,0.0,0.0,0.0,0.0,0.0,0.0,0.0,0.0,0.0,0.0,0.0,2.4202,2.4202,2.479,2.4893,2.2568,2.2645,2.2755,2.0194,1.9486,1.9709,2.0762,2.1029,2.1283,2.2124,2.2278,2.2245,2.1964,2.2439,2.3041,2.3696,2.4716,2.5638,2.6186,2.6266,2.6386,2.668,2.672,2.7014,2.7669,2.7709,2.7829,2.8192,2.8205,2.8179,2.8179,2.8179,2.8179,2.8179,2.8179,2.8179,2.8179,2.8179,2.8179,2.8179,2.8179,2.8179,2.8179,2.8179,2.8179,2.8179,2.8179,2.8179,2.8179,2.8179,2.8179,2.8179,2.8179,2.8179,2.8263,2.8655,2.9118,2.9565,0.0,0.0,0.0,0.0,0.0,0.0,0.0,0.0,0.0,0.0,0.0,0.0,0.0,0.0,0.0,0.0,0.0,0.0,0.0,0.0,1.9144,1.9479,1.9343,1.93,1.9383,1.9161,1.9126,1.9292,1.9292,1.9292,1.9311,1.9457,1.9566,1.9676,1.9676,1.9895,2.0298,2.0701,2.0958,2.1145,2.1544,0.0,0.0,0.0,0.0,0.0,0.0,0.0,0.0,0.0,2.4202,2.4202,2.4202,2.4202,2.4202,2.4202,2.4237,2.3912,2.2247,2.2047,2.1891,2.0296,1.9907,2.012,2.0922,2.139,2.175,2.2084,2.2592,2.2918,2.2846,2.3447,2.4102,2.4553,2.5558,2.6346,2.6386,2.6386,2.6426,2.6547,2.6547,2.6787,2.7375,2.7469,2.767,2.8152,2.8179,2.8179,2.8179,2.8179,2.8179,2.8179,2.8179,2.8179,2.8179,2.8179,2.8179,2.8179,2.8179,2.8179,2.8179,2.8179,2.8179,2.8179,2.8179,2.8179,2.8179,2.8179,2.8179,2.8179,2.8179,2.8179,2.8263,2.8655,2.9118,2.9523,0.0,0.0,0.0,0.0,0.0,0.0,0.0,0.0,0.0,0.0,0.0,0.0,0.0,0.0,0.0,0.0,0.0,0.0,1.9507,1.954,1.9644,1.9824,1.9639,1.9589,1.9727,1.9649,1.9487,1.9292,1.9292,1.9292,1.9311,1.9439,1.9639,1.9914,2.0042,2.0317,2.0701,2.0976,2.1159,2.1324,2.1727,2.2057,0.0,0.0,0.0,0.0,0.0,0.0,0.0,0.0,2.4202,2.4202,2.4202,2.4202,2.4127,2.3762,2.3632,2.326,2.1684,2.1356,2.1263,2.0313,2.0241,2.0575,2.1349,2.183,2.2285,2.2846,2.3233,2.3474,2.3474,2.4066,2.4666,2.4903,2.5999,2.672,2.6426,2.6386,2.6386,2.6386,2.6386,2.6587,2.7081,2.7255,2.751,2.8005,2.8138,2.8179,2.8179,2.8179,2.8179,2.8179,2.8179,2.8179,2.8179,2.8179,2.8179,2.8179,2.8179,2.8179,2.8179,2.8179,2.8179,2.8179,2.8179,2.8179,2.8179,2.8179,2.8179,2.8234,2.8347,2.8305,2.8263,2.8992,2.9244,2.9314,0.0,0.0,0.0,0.0,0.0,0.0,0.0,0.0,0.0,0.0,0.0,0.0,0.0,0.0,0.0,0.0,0.0,0.0,2.0058,2.0091,1.9857,1.9342,1.975,1.9934,1.9817,1.9686,1.9525,1.9292,1.9292,1.9292,1.9311,1.9712,1.9914,1.9912,2.0335,2.072,2.1108,2.1108,2.1343,2.1723,2.2149,2.2314,2.2405,0.0,0.0,0.0,0.0,0.0,0.0,0.0,2.4202,2.4202,2.4202,2.4202,2.3978,2.2837,2.3014,2.3091,2.0738,2.0649,2.0974,2.0058,2.0254,2.1002,2.2164,2.2432,2.2926,2.4703,2.4419,2.3817,2.3817,2.4249,2.4613,2.4613,2.5826,2.672,2.6426,2.6386,2.6386,2.6386,2.6386,2.6507,2.6747,2.7094,2.7429,2.7682,2.8018,2.8179,2.8179,2.8179,2.8179,2.8179,2.8179,2.8179,2.8179,2.8179,2.8179,2.8179,2.8179,2.8179,2.8179,2.8179,2.8179,2.8179,2.8179,2.8179,2.8179,2.8179,2.8179,2.8234,2.8655,2.8571,2.8361,2.9705,2.9579,2.895,0.0,0.0,0.0,0.0,0.0,0.0,0.0,0.0,0.0,0.0,0.0,0.0,0.0,0.0,0.0,0.0,0.0,0.0,2.0074,2.0091,2.0025,1.9878,1.9906,2.0094,2.0446,2.0149,1.9771,1.9292,1.9292,1.9292,1.9311,1.9712,2.006,2.0335,2.0738,2.1141,2.1526,2.1526,2.1764,2.213,2.2259,2.2643,2.3169,0.0,0.0,0.0,0.0,0.0,0.0,0.0,0.0,0.0,2.4202,2.4379,2.439,2.3185,2.2811,2.2411,2.0862,2.0472,2.049,2.0439,2.1047,2.1857,2.2832,2.2886,2.3113,2.4489,2.4396,2.4195,2.4646,2.4997,2.5213,2.5213,2.5959,2.6493,2.64,2.6386,2.6386,2.6386,2.6386,2.6507,2.6747,2.7094,2.7429,2.7682,2.8018,2.8179,2.8179,2.8179,2.8179,2.8179,2.8179,2.8179,2.8179,2.7978,2.7829,2.7871,2.767,2.7777,2.8179,2.7965,2.7991,2.8179,2.7965,2.7991,2.8179,2.8179,2.8179,2.8234,2.8318,2.8487,2.8655,2.9076,2.9244,2.9272,0.0,0.0,0.0,0.0,0.0,0.0,0.0,0.0,0.0,0.0,2.0091,0.0,0.0,0.0,0.0,0.0,0.0,0.0,0.0,2.0091,2.0091,2.0091,1.999,2.0055,2.026,2.0233,1.9903,1.9292,1.9292,1.9384,1.9567,1.995,2.0353,2.0756,2.1159,2.1471,2.1687,2.1687,2.1925,2.2314,2.2455,2.2913,2.3517,0.0,0.0,0.0,0.0,0.0,0.0,0.0,0.0,0.0,2.4202,2.4385,2.4278,2.2748,2.2252,2.1822,2.034,1.999,2.0157,2.0722,2.1416,2.2245,2.3273,2.3714,2.4191,2.4983,2.493,2.4863,2.5382,2.5478,2.5545,2.5665,2.6079,2.6386,2.6386,2.6386,2.6386,2.6386,2.6386,2.6453,2.664,2.7028,2.7376,2.7509,2.7951,2.8179,2.8179,2.8179,2.8179,2.8179,2.8072,2.8005,2.8005,2.7724,2.7522,2.7522,2.7389,2.7496,2.7831,2.7643,2.767,2.7831,2.7643,2.7737,2.8005,2.8186,2.8269,2.8325,2.8811,2.9034,2.9118,2.9286,2.9286,2.9202,0.0,0.0,0.0,0.0,0.0,0.0,0.0,0.0,0.0,0.0,2.0091,2.0091,0.0,0.0,0.0,0.0,0.0,0.0,0.0,0.0,2.0091,2.0091,2.0084,1.9938,1.9658,2.0024,1.9922,1.9366,1.9329,1.9512,1.9893,2.0317,2.072,2.1181,2.1544,2.1705,2.1742,2.1727,2.1943,2.2387,2.2748,2.3169,2.3614,2.403,0.0,0.0,0.0,0.0,0.0,0.0,0.0,0.0,2.4202,2.4182,2.3767,2.1902,2.1533,2.134,1.9498,1.9426,2.0094,2.0975,2.1697,2.2485,2.3669,2.4756,2.5625,2.5904,2.5745,2.5678,2.6024,2.5798,2.5678,2.5998,2.6252,2.6386,2.6386,2.6386,2.6386,2.6386,2.6386,2.6386,2.6386,2.6961,2.7309,2.7309,2.7831,2.8138,2.8138,2.8125,2.8098,2.8098,2.7802,2.7655,2.7655,2.7375,2.7269,2.7269,2.7242,2.7229,2.7229,2.7255,2.7269,2.7269,2.7296,2.7456,2.7697,2.8166,2.8345,2.8455,2.9633,2.9871,2.9579,2.9998,2.9579,2.8866,0.0,0.0,0.0,0.0,0.0,0.0,0.0,0.0,0.0,0.0,0.0,0.0,0.0,0.0,0.0,0.0,0.0,0.0,0.0,0.0,2.0091,2.0091,2.0386,2.041,2.0082,2.0158,2.0053,1.9767,1.9437,1.9512,1.9893,2.0317,2.0885,2.1559,2.165,2.1892,2.2149,2.1815,2.2108,2.2785,2.2876,2.3358,2.4048,2.4165,2.4202,0.0,0.0,0.0,0.0,0.0,0.0,0.0,2.4202,2.3992,2.3461,2.2076,2.1521,2.1099,1.9928,2.004,2.0726,2.1577,2.2766,2.3915,2.4636,2.5382,2.585,2.5638,2.5932,2.6293,2.6587,2.64,2.6226,2.6279,2.6346,2.6386,2.6386,2.6386,2.6386,2.6386,2.6386,2.6386,2.6386,2.6961,2.7309,2.7309,2.7643,2.7789,2.7789,2.7617,2.7496,2.7496,2.7429,2.7403,2.7403,2.7068,2.6921,2.6907,2.668,2.6573,2.6587,2.6814,2.6921,2.6934,2.7202,2.7349,2.7403,2.7853,2.803,2.8098,2.8923,2.9421,2.967,2.9648,2.9523,2.9314,0.0,0.0,0.0,0.0,0.0,0.0,0.0,0.0,0.0,0.0,0.0,0.0,0.0,0.0,0.0,0.0,0.0,0.0,0.0,0.0,2.0188,2.0373,2.0285,2.0223,2.0197,1.9903,1.9812,1.9914,1.9694,1.9895,2.0482,2.0683,2.1214,2.1984,2.1801,2.1906,2.2277,2.1874,2.2163,2.2913,2.2913,2.3413,2.4202,2.4202,2.4202,2.4202,2.4202,0.0,0.0,0.0,0.0,0.0,0.0,0.0,2.2926,2.2044,2.1252,2.0556,1.9963,2.0227,2.102,2.2298,2.3527,2.4529,2.4983,2.5424,2.5812,2.6079,2.6386,2.66,2.6613,2.66,2.6547,2.6413,2.6627,2.676,2.6613,2.672,2.6854,2.6854,2.6854,2.6854,2.6854,2.7215,2.7456,2.7322,2.7535,2.7642,2.7495,2.7389,2.7309,2.7309,2.7134,2.7054,2.7054,2.676,2.6613,2.6613,2.6466,2.6386,2.6386,2.6547,2.6694,2.6787,2.6841,2.7082,2.7432,2.7823,2.8189,2.8599,2.9359,2.9778,2.9908,2.9592,2.9356,2.9118,0.0,0.0,0.0,0.0,0.0,0.0,0.0,0.0,0.0,0.0,0.0,0.0,0.0,0.0,0.0,0.0,0.0,0.0,0.0,0.0,0.0,2.0691,2.0134,1.9951,2.0177,1.9683,1.9602,1.9985,2.0079,2.0518,2.131,2.1255,2.1636,2.2405,2.2075,2.2089,2.2387,2.1961,2.2217,2.2913,2.2913,2.3413,2.4202,2.4202,2.4202,2.4202,2.4202,2.4202,2.4202,2.4202,0.0,0.0,0.0,0.0,2.2415,2.2007,2.0994,1.9947,1.9836,2.0334,2.1296,2.2892,2.3919,2.4636,2.493,2.5304,2.5785,2.6453,2.672,2.676,2.6573,2.6734,2.68,2.6507,2.6961,2.7175,2.6934,2.7108,2.7282,2.7242,2.7282,2.7269,2.7162,2.7428,2.7509,2.7255,2.7415,2.7442,2.7242,2.7188,2.7162,2.7162,2.6881,2.6747,2.6747,2.6507,2.636,2.6319,2.6319,2.6293,2.6239,2.6346,2.652,2.6734,2.6493,2.6811,2.7441,2.7866,2.8448,2.9217,3.0022,3.0219,3.0051,2.9635,2.9202,2.874,0.0,0.0,0.0,0.0,0.0,0.0,0.0,0.0,0.0,0.0,2.0091,2.0091,0.0,0.0,0.0,0.0,0.0,0.0,2.0091,0.0,0.0,2.0691,2.0457,2.0286,2.0216,1.9961,2.0024,2.0427,2.0756,2.1343,2.213,2.1782,2.2034,2.2821,2.2767,2.2767,2.2803,2.2405,2.2474,2.2913,2.2913,2.3413,2.4202,2.4202,2.4202,2.4202,2.4202,2.4202,2.4202,2.4202,2.4415,0.0,0.0,0.0,2.2407,2.2339,2.0977,1.9521,1.9722,2.0788,2.2058,2.3038,2.3794,2.4342,2.4599,2.5317,2.5891,2.5718,2.6253,2.6894,2.7148,2.7229,2.7108,2.6814,2.7041,2.7296,2.7255,2.7282,2.7215,2.6907,2.7108,2.7108,2.656,2.7041,2.7201,2.6907,2.6921,2.688,2.6881,2.664,2.6507,2.6507,2.6466,2.6453,2.6453,2.6413,2.6266,2.6051,2.6051,2.5879,2.5651,2.6159,2.6413,2.644,2.6413,2.665,2.7086,2.7507,2.8123,2.8927,2.9687,2.9885,2.9751,2.955,2.9202,2.874,0.0,0.0,0.0,0.0,0.0,0.0,0.0,0.0,0.0,0.0,0.0,2.0091,0.0,0.0,0.0,2.0091,2.0091,2.0238,2.0533,2.0702,2.0716,2.0546,2.0122,1.9831,1.9707,1.9835,2.0097,2.05,2.0885,2.1508,2.2295,2.2346,2.2675,2.3224,2.3004,2.3023,2.3206,2.2803,2.2876,2.3242,2.3242,2.3639,2.4202,2.4202,2.4202,2.4202,2.4202,2.4202,2.4238,2.4452,2.4489,2.4544,2.4985,0.0,0.0,0.0,2.0835,1.9292,2.008,2.1034,2.2037,2.3025,2.3647,2.4075,2.4492,2.5064,2.5556,2.5757,2.6199,2.6627,2.6747,2.6907,2.6974,2.68,2.7068,2.7309,2.7309,2.7309,2.7255,2.7081,2.7335,2.7348,2.6921,2.7255,2.7321,2.6854,2.6787,2.6747,2.6587,2.6453,2.6319,2.6185,2.6306,2.6226,2.5905,2.6066,2.6038,2.5705,2.5705,2.5638,2.5518,2.5785,2.5985,2.6198,2.6556,2.6939,2.7372,2.7805,2.8303,2.883,2.9307,2.9298,2.8993,2.9091,2.8824,2.8487,0.0,0.0,0.0,0.0,0.0,0.0,0.0,0.0,0.0,0.0,0.0,0.0,0.0,0.0,0.0,0.0,2.0478,2.0647,2.1047,2.0948,2.0723,2.0408,2.0041,1.9713,1.9457,1.995,2.0353,2.0647,2.105,2.1654,2.2478,2.2767,2.3169,2.3669,2.3358,2.334,2.348,2.3187,2.3224,2.3499,2.3499,2.3785,2.4202,2.4202,2.4202,2.4202,2.4202,2.4202,2.4257,2.4672,2.4672,2.4549,2.4977,2.3542,0.0,0.0,0.0,1.9265,2.0281,2.0967,2.1636,2.2712,2.326,2.3723,2.4289,2.4703,2.513,2.5757,2.6012,2.6213,2.636,2.668,2.6907,2.6787,2.7068,2.7309,2.7309,2.7309,2.7282,2.7161,2.7415,2.7442,2.7122,2.7308,2.7268,2.6747,2.6707,2.6587,2.6293,2.6279,2.6185,2.5891,2.6052,2.5959,2.5518,2.5703,2.5663,2.5411,2.5411,2.5358,2.5291,2.5527,2.5792,2.6059,2.6629,2.7224,2.779,2.8157,2.8554,2.8975,2.906,2.89,2.862,2.8717,2.8549,2.8341,0.0,0.0,0.0,0.0,0.0,0.0,0.0,0.0,0.0,0.0,0.0,0.0,2.0807,2.085,2.1047,2.1472,2.1516,2.1516,2.1577,2.1439,2.1073,2.0426,2.0605,0.0,1.9877,2.0628,2.1053,2.1071,2.1471,2.2071,2.2876,2.2895,2.3358,2.4165,2.4146,2.3895,2.3499,2.348,2.348,2.3499,2.3499,2.3785,2.4202,2.4202,2.4202,2.4202,2.4202,2.4202,2.4257,2.4672,2.504,2.5224,2.4489,2.3635,2.267,0.0,0.0,0.0,2.0064,2.0481,2.0967,2.1863,2.2519,2.3108,2.371,2.4249,2.4786,2.5411,2.5545,2.5732,2.6293,2.6894,2.7148,2.6867,2.7068,2.7309,2.7309,2.7309,2.7161,2.6881,2.7108,2.7108,2.6493,2.6694,2.6734,2.644,2.6413,2.6279,2.6038,2.6011,2.5877,2.5545,2.5545,2.5545,2.5518,2.5264,2.5155,2.5104,2.5104,2.4957,2.4666,2.5642,2.6066,2.6093,2.6471,2.724,2.8289,2.8289,2.8697,2.9343,2.8975,2.8976,2.9127,2.8735,2.8559,2.8519,0.0,0.0,0.0,0.0,0.0,0.0,0.0,0.0,0.0,0.0,0.0,0.0,0.0,2.076,2.0842,2.0995,2.1293,2.1283,2.0866,2.0701,2.0504,2.0274,2.0244,2.012,1.9914,2.0683,2.1108,2.1108,2.1764,2.2346,2.2913,2.3169,2.3596,2.4202,2.4202,2.4128,2.3957,2.3957,2.3957,2.3883,2.315,2.2965,2.3113,2.3113,2.2669,2.2198,2.3115,2.2954,2.2422,2.3051,2.3185,2.3138,2.3354,2.2525,2.1262,2.0329,1.9735,1.9522,2.0037,2.0277,2.0641,2.1724,2.2171,2.2492,2.3081,2.35,2.3932,2.4556,2.4786,2.5093,2.5718,2.6159,2.6546,2.6774,2.676,2.6774,2.6961,2.6827,2.6667,2.656,2.68,2.6827,2.6426,2.6653,2.6627,2.6185,2.6145,2.6024,2.5692,2.5678,2.5531,2.5251,2.5411,2.5424,2.5237,2.4943,2.4796,2.4796,2.4796,2.4706,2.4599,2.5235,2.5762,2.6256,2.6631,2.7235,2.8013,2.826,2.8356,2.8394,2.84,2.8435,2.8492,2.8528,2.8517,2.8571,0.0,0.0,0.0,0.0,0.0,0.0,0.0,0.0,0.0,0.0,0.0,0.0,0.0,0.0,2.0664,2.0847,2.1282,2.1343,2.0906,2.0703,2.0638,2.0638,2.0408,2.0298,2.0298,2.0958,2.1288,2.1288,2.1966,2.2515,2.2913,2.3316,2.3767,2.4202,2.4202,2.4202,2.4202,2.4202,2.4202,2.4102,2.2962,2.2578,2.2647,2.2248,2.1725,2.131,2.2274,2.2103,2.1549,2.2189,2.2221,2.2032,2.2308,2.1381,2.0075,1.9566,1.9401,1.9495,1.996,2.013,2.041,2.1323,2.1729,2.1997,2.2492,2.2886,2.334,2.3941,2.4289,2.4639,2.5264,2.5569,2.5891,2.644,2.6373,2.6306,2.6507,2.636,2.6213,2.6106,2.6266,2.6306,2.6119,2.636,2.6333,2.5877,2.5944,2.5824,2.5384,2.5371,2.5237,2.4943,2.5304,2.5331,2.493,2.4836,2.4693,2.4599,2.4599,2.4599,2.4636,2.5152,2.5723,2.6336,2.6872,2.7398,2.7836,2.8118,2.808,2.7841,2.8003,2.8129,2.8224,2.8377,2.853,2.8705,0.0,0.0,0.0,0.0,0.0,0.0,0.0,0.0,0.0,1.9803,0.0,0.0,0.0,0.0,0.0,2.1146,2.1549,2.1789,2.177,2.1579,2.1481,2.1481,2.1227,2.1108,2.1126,2.1508,2.1705,2.1723,2.2103,2.2505,2.2884,2.3244,2.3669,2.4102,2.4102,2.4102,2.4102,2.4152,2.4177,2.4121,2.2904,2.2647,2.2841,2.1705,2.1438,2.1711,2.1753,2.1753,2.1773,2.2159,2.2297,2.2182,2.1384,2.0328,1.9401,1.9401,1.9401,1.9468,0.0,0.0,0.0,2.0632,2.1141,2.1649,2.1897,2.2439,2.3027,2.3629,2.3955,2.4342,2.4917,2.5037,2.5275,2.585,2.5971,2.5984,2.5984,2.5984,2.5877,2.5545,2.5518,2.5518,2.5518,2.5772,2.5864,2.5518,2.581,2.5717,2.5141,2.5128,2.4957,2.4626,2.5159,2.5186,2.4613,2.4917,2.4917,2.4599,2.4599,2.4599,2.4636,2.5433,2.599,2.6359,2.7155,2.7642,2.7882,2.7897,2.7897,2.7888,2.7827,2.8033,2.8399,2.8331,2.8549,2.893,0.0,0.0,0.0,0.0,0.0,0.0,0.0,0.0,2.003,0.0,0.0,0.0,2.0683,2.0993,2.1145,2.0995,2.1355,2.1454,2.1166,2.0926,2.0773,2.0773,2.0992,2.1255,2.1544,2.1929,2.2295,2.2565,2.2173,2.2083,2.2164,2.1803,2.1685,2.181,2.181,2.181,2.1844,2.2644,2.3616,2.439,2.1596,2.1175,2.206,2.0883,2.0012,1.9539,2.0567,2.0406,1.971,1.9836,2.0033,2.0187,1.9968,1.9678,1.9401,1.9401,1.9401,1.9468,1.972,0.0,0.0,0.0,0.0,0.0,2.1336,2.1676,2.205,2.2439,2.292,2.3388,2.3741,2.3981,2.4285,2.4623,2.5224,2.5638,2.5638,2.5638,2.5598,2.5518,2.5518,2.5518,2.5518,2.5585,2.5518,2.5224,2.5315,2.5288,2.5128,2.5277,2.5264,2.497,2.5117,2.5024,2.4599,2.4679,2.4679,2.4599,2.4599,2.4747,2.5042,2.558,2.5988,2.6418,2.6895,2.7174,2.7276,2.751,2.7613,2.7642,2.7813,2.8075,2.8437,2.8667,2.8808,2.89,0.0,0.0,0.0,0.0,0.0,0.0,0.0,2.033,2.0449,0.0,0.0,0.0,2.0693,2.0916,2.0983,2.0752,2.1109,2.1299,2.1231,2.1246,2.1324,2.1485,2.1727,2.1966,2.2199,2.1985,2.2007,2.2215,2.1553,2.123,2.1222,2.0997,2.0903,2.0903,2.0903,2.0972,2.1058,2.112,2.1984,2.3126,2.0818,2.0485,2.1234,2.004,1.9291,1.8991,1.9792,1.9663,1.9105,1.9105,1.9254,1.9401,1.9401,1.9401,1.9401,1.9401,1.9401,1.9428,1.9602,1.992,2.0237,2.0441,0.0,0.0,2.1109,2.1368,2.1636,2.1796,2.2305,2.2726,2.2913,2.33,2.3634,2.3808,2.4369,2.4823,2.4943,2.5184,2.5197,2.4836,2.4997,2.5066,2.4983,2.5184,2.5211,2.4917,2.501,2.5115,2.5115,2.513,2.513,2.5115,2.5386,2.5214,2.4599,2.4905,2.4905,2.4599,2.4599,2.4821,2.5189,2.5616,2.6019,2.6422,2.6838,2.6983,2.7013,2.7203,2.7276,2.732,2.7736,2.8028,2.8247,2.8725,2.8886,2.8886,0.0,0.0,0.0,0.0,0.0,0.0,0.0,2.111,0.0,0.0,2.0573,2.0647,2.0701,2.0759,2.082,2.0842,2.1194,2.1541,2.1909,2.2213,2.251,2.2711,0.0,0.0,2.2595,2.1672,2.1209,2.1267,2.053,2.0175,2.0175,2.0435,2.0565,2.0518,2.0565,2.0701,2.086,1.9657,1.9863,2.0989,2.0227,2.022,2.0539,1.9384,1.9132,1.9401,1.9401,1.9415,1.9441,1.9441,1.9428,1.9401,1.9401,1.9401,1.9401,1.9401,1.9401,1.9401,1.9401,1.9786,2.0197,2.0197,2.0637,0.0,2.1109,2.1341,2.1542,2.1542,2.1937,2.2325,2.2325,2.2785,2.3185,2.3185,2.35,2.3821,2.4115,2.4609,2.4686,2.3897,2.4222,2.4436,2.4182,2.4623,2.4823,2.4519,2.481,2.5048,2.5115,2.4823,2.481,2.5077,2.5672,2.5537,2.4599,2.5239,2.5239,2.4599,2.4636,2.4894,2.5263,2.569,2.6093,2.6509,2.6838,2.6983,2.6983,2.6983,2.6983,2.7056,2.7663,2.7911,2.7984,2.8651,2.8886,2.8886,0.0,0.0,0.0,0.0,0.0,0.0,0.0,2.0634,2.0647,2.0521,2.1068,2.1599,2.1911,2.2446,2.2837,2.3062,2.3141,2.3235,2.3288,2.3177,2.2668,0.0,0.0,0.0,2.0835,2.0613,2.0659,2.099,1.9918,1.9409,1.9398,1.8832,1.8448,1.8239,1.8476,1.8587,1.8629,1.8632,1.8919,1.9333,1.896,1.971,2.0958,1.9755,1.9348,1.9401,1.9401,1.9548,1.972,1.972,1.9589,1.9401,1.9401,1.9401,1.9401,1.9401,1.9401,1.9401,1.9401,1.9786,2.0197,2.0197,2.0637,0.0,2.1109,2.1149,2.1189,2.1189,2.1515,2.1756,2.1756,2.2205,2.2592,2.2592,2.306,2.3514,2.3808,2.3991,2.4004,2.383,2.391,2.395,2.3897,2.3991,2.4044,2.3941,2.4209,2.4583,2.505,2.5024,2.5024,2.5115,2.5219,2.5072,2.4599,2.4727,2.4727,2.4599,2.4931,2.5299,2.569,2.6093,2.6509,2.6874,2.6947,2.6983,2.6983,2.6983,2.6983,2.7056,2.7663,2.7911,2.7984,2.8651,2.8886,2.8886,1.9663,1.9914,2.0207,0.0,0.0,0.0,0.0,2.1141,2.1398,2.1398,2.1906,2.2433,2.2755,2.3098,2.3346,2.3486,2.3509,2.3303,2.2823,2.2673,2.216,2.1147,0.0,0.0,0.0,2.005,1.9862,2.0055,1.8942,1.8466,1.8593,1.8049,1.7782,1.7782,1.7782,1.7956,1.8236,1.8236,1.8611,1.9132,1.8985,1.9492,2.0241,1.962,1.9481,1.9615,1.9615,1.9773,2.0,1.9853,1.9706,1.9589,1.9441,1.9401,1.9401,1.9401,1.9401,1.9401,1.9401,1.9786,2.0197,2.0197,2.0637,0.0,0.0,2.1109,2.1109,2.1109,2.1229,2.1368,2.1368,2.1729,2.2031,2.2178,2.2579,2.2979,2.3308,2.3616,2.3696,2.3388,2.3616,2.375,2.3567,2.3688,2.3803,2.3803,2.3768,2.4022,2.4609,2.4502,2.4556,2.485,2.5222,2.5265,2.4894,2.5115,2.5115,2.4894,2.5079,2.541,2.58,2.6202,2.6619,2.6983,2.6983,2.6983,2.6983,2.6983,2.6983,2.7042,2.7525,2.778,2.797,2.8491,2.8754,2.8886,2.0042,2.0335,2.0628,0.0,0.0,0.0,0.0,0.0,2.2424,2.2424,2.2626,2.2839,2.301,2.2994,2.2971,2.2973,2.299,2.2667,2.1901,2.1818,2.1403,2.0605,2.057,2.0467,2.0261,0.0,1.889,1.889,1.8015,1.7716,1.7929,1.7822,1.7862,1.7982,1.7849,1.8063,1.8557,1.8236,1.8611,1.9401,1.9401,1.9401,1.9401,1.9401,1.9535,1.9733,1.984,2.0067,2.0237,1.9987,1.988,1.9826,1.9575,1.9441,1.9401,1.9468,1.9481,1.9481,1.9481,1.988,2.029,2.029,2.0722,2.1109,0.0,0.0,0.0,2.1109,2.1109,2.1109,2.1109,2.1381,2.1649,2.179,2.2111,2.2418,2.2693,2.3271,2.3458,2.2947,2.3335,2.3536,2.326,2.346,2.3656,2.3688,2.3407,2.35,2.4088,2.3937,2.4008,2.4492,2.5295,2.552,2.5189,2.552,2.552,2.5189,2.5263,2.5483,2.5836,2.6312,2.6692,2.6983,2.6983,2.6983,2.6983,2.6983,2.6983,2.7027,2.7349,2.7671,2.7955,2.8277,2.8598,2.8886,2.05,2.0756,2.1141,2.1508,0.0,0.0,0.0,0.0,2.284,2.284,2.2547,2.2292,2.208,2.1952,2.187,2.1877,2.1878,2.1844,2.1736,2.1501,2.0778,1.9461,1.9383,1.8942,1.7989,0.0,0.0,1.7793,1.7661,1.7622,1.7649,1.8156,1.8263,1.8009,1.829,1.8571,1.8823,1.8571,1.8798,1.9401,1.9401,1.9401,1.9401,1.9401,1.9415,1.9508,1.997,2.0374,2.0575,2.0281,2.0157,2.0104,1.984,1.9602,1.9441,1.9679,1.9746,1.9746,1.9746,2.0174,2.0628,2.0628,2.0869,2.1109,2.1109,0.0,2.1109,2.1109,0.0,2.1109,2.1109,0.0,0.0,2.1243,2.167,2.2044,2.2117,2.2666,2.3052,2.2901,2.296,2.2987,2.296,2.2974,2.3108,2.3354,2.3086,2.3215,2.383,2.383,2.395,2.4249,2.4906,2.5226,2.5189,2.5226,2.5226,2.5189,2.5543,2.5763,2.5836,2.6582,2.6947,2.6983,2.6983,2.6983,2.6983,2.6983,2.6983,2.7027,2.7349,2.7671,2.7955,2.8277,2.8598,2.8886,2.0958,2.1361,2.1856,2.202,0.0,0.0,0.0,2.2578,2.2406,2.2652,2.1994,2.1553,2.1762,2.1593,2.1513,2.1702,2.1554,2.113,2.0306,2.0158,1.9539,1.833,1.8277,1.8068,1.7608,0.0,0.0,1.7608,1.7956,1.8103,1.8116,1.837,1.8517,1.8529,1.8517,1.8651,1.889,1.8798,1.8985,1.9401,1.9401,1.9401,1.9401,1.9401,1.9495,1.9679,2.005,2.0277,2.0401,2.0237,2.0197,2.0184,2.0064,1.993,1.9893,1.9983,2.0024,2.0024,2.0024,2.0361,2.0712,2.0712,2.0895,2.1109,2.1109,2.1109,2.1109,2.1109,0.0,0.0,0.0,0.0,0.0,0.0,2.1609,2.1823,2.1997,2.2428,2.2839,2.3147,2.3201,2.3099,2.2928,2.2893,2.2947,2.3046,2.2974,2.3014,2.3268,2.342,2.3647,2.3941,2.4838,2.5413,2.5543,2.5777,2.5777,2.5543,2.5946,2.6019,2.5836,2.6619,2.6983,2.6983,2.6983,2.6983,2.6983,2.6983,2.6983,2.7027,2.7349,2.7671,2.7926,2.8072,2.8476,2.8886,2.1709,2.2075,2.2515,2.2625,2.2623,2.2572,2.2373,2.1936,2.172,2.203,2.12,2.0719,2.1107,2.0841,2.0773,2.1039,2.0896,2.031,1.9186,1.9047,1.859,1.7648,1.7608,1.7622,1.7702,1.7902,1.7956,1.7862,1.8304,1.849,1.849,1.8571,1.8718,1.889,1.8704,1.8771,1.9038,1.893,1.9092,1.9401,1.9401,1.9401,1.9401,1.9401,1.9575,1.984,2.0104,2.025,2.0361,2.0361,2.0361,2.0361,2.0361,2.0264,2.0224,2.0304,2.0361,2.0361,2.0361,2.0575,2.0802,2.0802,2.0949,2.1109,2.1109,2.1109,2.1109,2.1109,2.1109,0.0,0.0,0.0,2.1149,2.1328,0.0,2.1542,2.171,2.2195,2.2712,2.3215,2.3352,2.3304,2.3065,2.2962,2.2893,2.2893,2.2893,2.2893,2.2893,2.3153,2.342,2.3683,2.4784,2.5486,2.571,2.616,2.6239,2.5983,2.6239,2.6239,2.5983,2.6692,2.6983,2.6983,2.6983,2.6983,2.6983,2.6983,2.6983,2.7027,2.7349,2.7671,2.7926,2.8014,2.8394,2.8886,2.2858,2.2876,2.3004,2.3389,2.262,2.1693,2.1052,2.0963,2.0954,2.0954,2.0225,1.974,1.9773,1.9285,1.9125,1.9425,1.9479,1.93,1.892,1.8666,1.8251,1.7635,1.7608,1.7716,1.7996,1.8009,1.8156,1.8464,1.8477,1.849,1.8504,1.8784,1.889,1.889,1.889,1.9078,1.9361,1.9052,1.9092,1.9401,1.9401,1.9401,1.9401,1.9401,1.9575,1.984,2.0104,2.0414,2.0686,2.0686,2.0686,0.0,0.0,2.0468,2.0264,2.0575,2.0686,2.0686,2.0686,2.0869,2.1096,2.1096,2.1096,2.1109,2.1109,2.1109,2.1109,2.1109,2.1109,2.1109,2.1109,2.1109,2.1015,2.0779,2.0935,0.0,0.0,2.1984,2.2688,2.2967,2.3229,2.3406,2.3406,2.3099,2.2893,2.2893,2.2893,2.2893,2.2893,2.3153,2.3292,2.3305,2.4674,2.5388,2.5388,2.606,2.6385,2.6399,2.6385,2.6385,2.6385,2.6801,2.6983,2.6983,2.6983,2.6983,2.6983,2.6983,2.6983,2.7027,2.7349,2.7671,2.7955,2.8262,2.8622,2.8886,2.3694,2.3144,2.2575,2.246,2.2356,2.1988,2.104,2.0261,1.9937,2.0305,1.9669,1.932,1.971,1.9766,1.9816,1.9904,1.9771,1.9613,1.9506,1.9052,1.8663,1.8477,1.829,1.8223,1.833,1.8489,1.8556,1.849,1.8906,1.8971,1.8784,1.9078,1.9212,1.9212,1.9212,1.9308,1.9388,1.9294,1.9308,1.9401,1.9401,1.9508,1.9679,1.9867,1.988,1.984,2.0104,2.0264,0.0,2.0646,2.0712,2.0739,2.0909,2.0895,2.0828,2.0935,2.0962,2.0962,0.0,0.0,2.1109,2.1109,2.1109,2.1109,2.1109,2.1109,2.1109,2.1109,2.1109,2.1109,2.1109,2.1267,2.1321,2.1007,2.142,2.1677,0.0,2.232,2.3036,2.3346,2.3634,2.3694,2.3413,2.3127,2.2869,2.2599,2.2802,2.2984,2.2984,2.3236,2.348,2.3684,2.4379,2.4953,2.541,2.6099,2.6438,2.6399,2.6655,2.6655,2.6399,2.6801,2.6983,2.6983,2.6983,2.6983,2.6983,2.6983,2.6983,2.7042,2.7546,2.7824,2.7955,2.8277,2.8598,2.8886,2.3626,2.3013,2.2424,2.2168,2.1695,2.0954,1.9875,1.9275,1.9114,1.9623,1.9397,1.9484,2.0188,2.0537,2.077,2.097,2.0815,2.0548,2.0134,1.9853,1.9437,1.8916,1.8945,1.8905,1.8839,1.8985,1.8985,1.8826,1.9214,1.9294,1.9092,1.9308,1.9401,1.9401,1.9401,1.9401,1.9401,1.9401,1.9401,1.9401,1.9508,1.9669,1.984,2.0241,2.0214,1.9987,0.0,2.0388,2.0441,2.0735,2.0828,2.0869,2.1056,2.1109,2.1109,2.1109,2.1109,2.1109,2.1109,2.1109,0.0,2.1109,2.1109,0.0,2.1109,2.1109,2.1109,2.1109,2.1109,2.1109,2.1109,2.1267,2.1362,2.1141,2.1457,2.1772,0.0,2.2444,2.3091,2.3557,2.3833,2.3799,2.3314,2.3173,2.2903,2.2318,2.2795,2.3112,2.3002,2.3242,2.3502,2.3728,2.415,2.461,2.5051,2.6027,2.6495,2.6445,2.6816,2.6838,2.6619,2.6874,2.6983,2.6983,2.6983,2.6983,2.6983,2.6983,2.6983,2.7042,2.7583,2.7809,2.797,2.8394,2.8725,2.8886,2.2601,2.235,2.2299,2.2266,2.0518,1.8786,1.7766,1.8116,1.8624,1.8903,1.9506,2.0214,2.1056,2.1462,2.1877,2.2392,2.2411,2.1964,2.0886,2.1015,2.0521,1.9063,1.9546,1.9693,1.9428,1.9415,1.9415,1.9415,1.9401,1.9401,1.9415,1.9401,1.9401,1.9401,1.9415,1.9401,1.9374,1.9401,1.9415,1.9441,1.9693,1.9813,1.9907,2.0498,2.0508,2.0277,2.0601,2.0726,2.0766,2.1015,2.1109,2.1109,2.1109,2.1109,2.1109,2.1109,2.1109,2.1109,2.1109,2.1109,2.1109,2.1109,2.1109,0.0,0.0,0.0,2.1109,2.1109,2.1109,2.1109,2.1109,2.1141,2.1141,2.1141,2.1141,2.1393,2.2055,2.2418,2.2846,2.3498,2.3804,2.37,2.3103,2.3239,2.3018,2.213,2.2869,2.3276,2.3055,2.3296,2.3441,2.3441,2.406,2.44,2.4448,2.5746,2.6471,2.65,2.6822,2.6969,2.6983,2.6983,2.6983,2.6983,2.6983,2.6983,2.6983,2.6983,2.6983,2.7027,2.7349,2.7686,2.8014,2.8666,2.8886,2.8886,2.1045,2.0295,1.9562,1.8965,1.8382,1.791,1.7635,1.8277,1.897,1.9506,2.0468,2.1301,2.171,2.2251,2.2612,2.2773,2.2786,2.2653,2.2358,2.1997,2.1403,2.0588,2.0481,2.0244,1.9693,1.9693,1.9693,1.9693,1.9495,1.9508,1.9679,1.9495,1.9401,1.9401,1.9629,1.9452,1.9065,1.9506,1.9693,1.9693,1.9773,2.0067,2.0498,2.0646,2.0762,2.0895,2.0975,2.1002,2.1002,2.1082,2.1109,2.1109,2.1109,2.1109,2.1109,2.1109,2.1109,2.1109,2.1109,2.1109,2.1109,2.1109,2.1109,2.1109,0.0,0.0,0.0,0.0,0.0,0.0,0.0,2.152,2.1772,2.152,2.1884,2.2261,2.2449,2.2762,2.3041,2.3223,2.327,2.3446,2.3733,2.3407,2.3078,2.278,2.3017,2.3271,2.3431,2.3927,2.4224,2.4224,2.4377,2.4602,2.4829,2.5453,2.6032,2.65,2.6588,2.6749,2.6983,2.6983,2.6983,2.6983,2.6983,2.6983,2.6983,2.6983,2.6983,2.7027,2.7349,2.7817,2.8321,2.8739,2.8886,2.8856,1.9849,1.903,1.8318,1.7862,1.821,1.8464,1.821,1.8704,1.9372,2.0094,2.102,2.1743,2.2124,2.2712,2.3113,2.3281,2.3295,2.3121,2.2699,2.2605,2.2138,2.1149,2.1203,2.0855,1.9983,1.9957,1.9867,1.9642,1.9481,1.9548,1.9786,1.9535,1.9468,1.9589,1.9733,1.9613,1.9303,1.98,1.9957,2.0,2.0134,2.0418,0.0,2.0815,2.0962,2.1109,2.1109,2.1109,2.1109,2.1109,2.1109,2.1109,2.1109,2.1109,2.1109,2.1109,2.1109,2.1109,2.1109,2.1109,2.1109,2.1109,2.1109,2.1109,2.1109,2.1109,2.1109,0.0,2.1109,2.1109,0.0,0.0,2.1614,2.1425,2.1821,2.2198,2.2355,2.2668,2.295,2.3074,2.3371,2.3663,2.4024,2.3304,2.2799,2.2766,2.3088,2.337,2.3535,2.4171,2.4495,2.4495,2.4767,2.4902,2.4767,2.5531,2.6026,2.6296,2.6442,2.6676,2.6983,2.6983,2.6983,2.6983,2.6983,2.6983,2.6983,2.6983,2.6983,2.7027,2.7349,2.77,2.8081,2.852,2.8769,2.8871,1.8877,1.831,1.8009,1.8076,1.901,1.9653,1.9196,1.9506,2.0057,2.0779,2.1462,2.205,2.2451,2.2972,2.3434,2.3723,2.375,2.338,2.2558,2.2998,2.2665,2.1283,2.171,2.1456,2.029,2.0224,1.9987,1.9508,1.9428,1.9562,1.9853,1.9548,1.9575,1.9853,1.9853,1.9853,1.9867,2.005,2.017,2.0224,2.0561,2.0726,2.0793,2.1015,2.1109,2.1109,2.1109,2.1109,2.1109,2.1109,2.1109,2.1109,2.1109,2.1109,2.1109,2.1109,2.1109,2.1109,2.1109,2.1109,2.1109,2.1109,2.1109,2.1109,2.1109,2.1109,2.1109,2.1109,2.1109,2.1109,2.1109,0.0,2.1172,2.1172,2.1488,2.1803,2.2024,2.2355,2.2714,2.307,2.358,0.0,2.4145,2.3295,2.2736,2.2769,2.327,2.359,2.3623,2.4223,2.4563,2.4563,2.5143,2.5215,2.4692,2.5755,2.6252,2.6149,2.6339,2.6632,2.6983,2.6983,2.6983,2.6983,2.6983,2.6983,2.6983,2.6983,2.6983,2.7013,2.7305,2.7466,2.7613,2.8131,2.8525,2.8827,1.8129,1.805,1.8103,1.837,1.9185,1.9933,2.0307,2.1229,2.1857,2.1764,2.2733,2.3362,2.3145,2.3225,2.3319,2.3372,2.3407,2.3305,2.3145,2.3238,2.2852,2.1871,2.1924,2.155,2.0615,2.033,2.0157,2.005,1.9629,1.9639,2.0117,1.9613,1.9653,2.013,2.013,2.013,2.0117,1.996,2.0013,2.0224,2.0561,2.0815,2.1042,2.1096,2.1109,2.1109,2.1109,2.1109,2.1109,2.1109,2.1109,2.1109,2.1109,2.1109,2.1109,2.1109,2.1109,2.1109,2.1109,2.1109,2.1109,2.1109,2.1109,2.1109,2.1109,2.1109,2.1109,2.1109,2.1109,2.1109,2.1109,0.0,2.152,2.152,2.201,2.2261,2.1772,2.2198,2.2706,2.3073,2.2979,2.3314,2.4404,2.4084,2.3918,2.4216,2.4075,2.4104,2.4403,2.4775,2.4984,0.0,2.5101,2.5364,0.0,0.0,2.5848,2.6822,2.6339,2.6413,2.6983,2.6983,2.6983,2.6983,2.6983,2.6983,2.6983,2.6983,2.6983,2.6998,2.7056,2.7393,2.7838,2.7955,2.8204,2.8437,1.7955,1.8235,1.8609,1.9092,2.0057,2.0886,2.1328,2.2365,2.2899,2.2285,2.2579,2.2846,2.2859,2.2993,2.3086,2.3086,2.3233,2.3225,2.31,2.3233,2.2958,2.2245,2.2071,2.1643,2.0922,2.0437,2.0197,2.0197,1.9653,1.9666,2.0184,1.9639,1.9679,2.0197,2.0197,2.037,2.0637,2.0374,2.0428,2.0664,2.0842,2.0989,2.1109,2.1109,2.1109,2.1109,2.1109,2.1109,2.1109,2.1109,2.1109,2.1109,2.1109,2.1109,2.1109,2.1109,2.1109,2.1109,2.1109,2.1109,2.1109,2.1109,2.1109,2.1109,2.1109,2.1109,2.1109,2.1109,2.1109,2.1109,2.1109,2.1356,0.0,0.0,2.197,2.224,2.2079,2.2323,2.2732,2.3243,2.316,2.3475,2.4492,2.4436,2.4342,2.43,2.4157,2.4176,2.4266,2.4795,2.5086,0.0,0.0,0.0,2.552,0.0,2.6032,2.6486,2.6339,2.653,2.6983,2.6983,2.6983,2.6983,2.6983,2.6983,2.6983,2.6983,2.6983,2.6983,2.6983,2.7276,2.77,2.77,2.7803,2.7964,1.8369,1.881,1.9356,1.9973,2.098,2.1658,2.1556,2.2439,2.2885,2.2209,2.1987,2.1833,2.165,2.1868,2.2018,2.1953,2.2124,2.2302,2.2392,2.2311,2.2173,2.1927,2.1673,2.128,2.0725,2.0442,2.0264,2.0197,1.9773,1.976,0.0,1.9679,1.9706,2.0117,2.0304,2.057,2.0922,2.0815,2.0869,2.1029,2.1082,2.1109,2.1109,2.1109,2.1109,2.1109,2.1109,2.1109,2.1109,2.1109,2.1109,2.1109,2.1109,2.1109,2.1109,2.1109,2.1109,2.1109,2.1109,2.1109,2.1109,2.1109,2.1109,2.1109,2.1109,2.1109,2.1122,2.1189,2.1256,2.1296,2.1296,2.1515,0.0,0.0,2.1929,2.2175,2.2372,2.2471,2.2728,2.3309,2.3389,2.3681,2.4409,2.4538,2.4405,2.404,2.418,2.4286,2.4258,2.4853,0.0,0.0,0.0,2.571,2.5305,0.0,2.6208,2.6222,2.6339,2.6603,2.6983,2.6983,2.6983,2.6983,2.6983,2.6983,2.6983,2.6983,2.6983,2.6983,2.6983,2.7232,2.7569,2.7533,2.7562,2.7642,1.9533,1.9863,2.0264,2.0882,2.1523,2.1523,2.0211,2.051,2.0983,2.1177,2.142,2.0935,1.9331,1.9178,1.9111,1.8855,1.8855,1.9425,2.0733,1.9599,1.9311,2.0357,2.0157,1.9844,1.9487,2.0262,2.0508,2.0197,2.0144,2.001,0.0,1.9786,1.9786,1.988,2.0668,0.0,0.0,2.0855,2.0935,2.0766,2.1002,2.1109,2.1109,2.1109,2.1109,2.1109,2.1109,2.1109,2.1109,2.1109,2.1109,2.1109,2.1109,2.1109,2.1109,2.1109,2.1109,2.1109,2.1109,2.1109,2.1109,2.1109,2.1109,2.1109,2.1109,2.1109,2.1189,2.1489,2.1756,2.1911,2.1911,2.1924,2.1951,0.0,0.0,2.2339,2.209,2.2306,2.2646,2.2987,2.3048,2.3306,2.3984,2.4317,2.4365,2.402,2.4617,2.4989,2.4984,0.0,0.0,2.51,2.5388,2.5661,2.593,2.5467,2.5804,2.6896,2.6325,2.6383,2.6983,2.6983,2.6983,2.6983,2.6983,2.6983,2.6983,2.6983,2.6983,2.6983,2.6983,2.7364,2.7838,2.7583,2.7656,2.7838,1.9379,2.0047,2.037,1.9161,1.9898,2.0288,1.913,1.9139,1.8982,1.8202,1.8994,1.9426,1.8866,1.8676,1.8522,1.8425,1.8519,1.8818,1.9418,1.8924,1.8809,1.9283,1.8823,1.8864,1.9589,1.949,1.9797,2.0494,2.029,2.0144,2.0024,0.0,0.0,0.0,0.0,2.0815,2.0762,2.0828,2.0882,2.0949,2.1069,2.1109,2.1109,2.1109,2.1109,2.1109,2.1109,2.1109,2.1109,2.1109,2.1109,2.1109,2.1109,2.1109,2.1109,2.1109,2.1109,2.1109,2.1109,2.1109,2.1109,2.1109,2.1109,2.1109,2.1109,2.1243,2.1435,2.1555,2.181,2.1991,2.1991,2.2124,2.2245,2.2245,0.0,2.268,2.2546,2.2647,2.2957,2.3519,2.3199,2.3314,2.4196,2.4054,2.4111,2.4547,2.4931,2.4984,2.4747,0.0,0.0,2.5344,0.0,2.5403,2.569,2.5666,2.59,2.6413,2.6544,2.6735,2.6983,2.6983,2.6983,2.6983,2.6983,2.6983,2.6983,2.6983,2.6983,2.6983,2.6983,2.7261,2.7627,2.7305,2.751,2.7868,1.8659,1.9342,1.9565,1.8035,1.8676,1.9005,1.7882,1.7725,1.7163,1.5664,1.6388,1.7152,1.7338,1.7182,1.7092,1.7092,1.7197,1.7475,1.7902,1.7546,1.7475,1.7938,1.741,1.7798,1.9215,1.8962,1.9487,2.0833,2.0508,2.029,2.0197,0.0,0.0,0.0,2.0473,2.0649,2.0396,2.0699,2.0922,2.1109,2.1109,2.1109,2.1109,2.1109,2.1109,2.1109,2.1109,2.1109,2.1109,2.1109,2.1109,2.1109,2.1109,2.1109,2.1109,2.1109,2.1109,2.1109,2.1109,2.1109,2.1109,2.1109,2.1109,2.1136,2.1216,2.1435,2.1636,2.181,2.2077,2.2245,2.2245,2.2405,2.2552,2.2552,0.0,0.0,2.2893,2.2893,2.3099,2.3611,2.3215,2.3208,2.3972,2.3688,2.3812,2.4624,2.4843,2.4892,2.4809,0.0,0.0,0.0,0.0,0.0,2.5388,2.571,2.5895,2.6032,2.6574,2.6896,2.6983,2.6983,2.6983,2.6983,2.6983,2.6983,2.6983,2.6983,2.6983,2.6983,2.6983,2.7188,2.7489,2.7217,2.7481,2.7882,1.7415,1.7534,1.7718,1.8293,1.8404,1.7889,1.6362,1.6115,1.5593,1.411,1.394,1.3975,1.3975,1.3975,1.3932,1.3932,1.3975,1.4573,1.6054,1.4786,1.4608,1.6089,1.5891,1.6427,1.7887,1.8838,1.9896,2.1109,2.0846,2.0521,2.021,0.0,1.9817,1.8306,2.0234,2.0181,1.8736,2.0409,2.1109,2.1109,2.1109,2.1109,2.1109,2.1109,2.1109,2.1109,2.1109,2.1109,2.1109,2.1109,2.1109,2.1109,2.1109,2.1109,2.1109,2.1109,2.1109,2.1109,2.1109,2.1109,2.1109,2.1109,2.1109,2.1189,2.1515,2.1614,2.1743,2.2285,2.2645,2.288,2.288,2.2893,2.2893,2.2893,0.0,0.0,2.2893,2.2893,2.2893,2.2893,2.2893,2.2893,2.2928,2.3201,2.3577,2.3966,2.434,2.4775,0.0,0.0,0.0,2.51,2.5359,0.0,2.51,2.5374,2.5661,2.5982,2.6354,2.6676,2.6983,2.6983,2.6983,2.6983,2.6983,2.6983,2.6983,2.6983,2.6983,2.6983,2.6983,2.7188,2.7518,2.7518,2.7671,2.7911,1.6723,1.7403,1.7513,1.5663,1.615,1.6374,1.4995,1.4805,1.4666,1.4282,1.4225,1.4225,1.4225,1.4042,1.3953,1.4075,1.4091,1.4357,1.4902,1.4402,1.4308,1.4769,1.447,1.4954,1.6357,1.6466,1.7042,1.816,0.0,0.0,0.0,1.8024,1.7759,1.7124,1.8879,1.9382,1.8979,2.0455,2.1109,2.1109,2.1109,2.1109,2.1109,2.1109,2.1109,2.1109,2.1109,2.1109,2.1109,2.1109,2.1109,2.1109,2.1109,2.1109,2.1109,2.1109,2.1109,2.1109,2.1109,2.1109,2.1109,2.1109,2.1256,2.1475,2.1569,2.189,2.2258,2.2679,2.2827,2.2893,2.2893,2.2893,2.2893,2.2893,2.2893,0.0,2.2893,2.2893,2.2962,2.3201,2.303,2.2996,2.3236,2.3338,2.3625,2.4225,2.442,2.4723,0.0,0.0,0.0,0.0,2.5271,0.0,2.5374,2.5661,2.588,2.6032,2.6574,2.6896,2.6983,2.6983,2.6983,2.6983,2.6983,2.6983,2.6983,2.6983,2.6983,2.6983,2.6983,2.7188,2.7518,2.7518,2.7817,2.8247,1.5452,1.6044,1.6105,1.4217,1.4739,1.5086,1.4211,1.4131,1.4213,1.4318,1.4335,1.4322,1.4387,1.418,1.405,1.42,1.4237,1.4294,1.4335,1.4237,1.4217,1.4217,1.3896,1.4368,1.5744,1.544,0.0,1.7033,1.7023,1.6818,1.6498,1.6829,1.6604,1.5998,1.8058,1.8716,1.8364,2.0303,2.1109,2.1109,2.1109,2.1109,2.1109,2.1109,2.1109,2.1109,2.1109,2.1109,2.1109,2.1109,2.1109,2.1109,2.1109,2.1109,2.1109,2.1109,2.1109,2.1109,2.1109,2.1109,2.1109,2.1109,2.1368,2.1649,2.1863,2.2245,2.2632,2.2853,2.2893,2.2893,2.2893,2.2893,2.2893,2.2893,2.2893,2.2893,2.2893,2.2893,2.2962,2.3201,2.303,2.2962,2.3201,2.3338,2.366,2.4232,2.4405,2.4679,0.0,0.0,2.5188,2.5344,2.5188,2.5247,2.5486,2.5822,2.6076,2.6208,2.6735,2.6983,2.6983,2.6983,2.6983,2.6983,2.6983,2.6983,2.6983,2.6983,2.6983,2.6983,2.6983,2.7115,2.732,2.7569,2.7868,2.8247,1.3904,1.3904,1.3904,1.392,1.405,1.4107,1.3961,1.4075,1.418,1.4196,1.4196,1.4253,1.4379,1.4294,1.4196,1.4196,1.4318,1.4335,1.4225,1.42,1.4192,1.4192,1.3993,1.4487,1.5728,1.5434,1.5851,1.7072,1.6827,1.654,1.6234,1.6551,1.6073,1.501,1.7689,1.8235,1.7302,1.9973,2.1109,2.1109,2.1109,2.1109,2.1109,2.1109,2.1109,2.1109,2.1109,2.1109,2.1109,2.1109,2.1109,2.1109,2.1109,2.1109,2.1109,2.1109,2.1109,2.1109,2.1109,2.1109,2.1109,2.1136,2.1408,2.1796,2.2325,2.2659,2.2893,2.2893,2.2893,2.2893,2.2893,2.2893,2.2893,2.2893,2.2893,2.2893,2.2893,2.2893,2.2893,2.2893,0.0,0.0,2.2928,2.3236,2.3611,0.0,2.436,0.0,0.0,0.0,2.5086,2.5086,2.5115,2.5261,2.5486,2.5871,2.6208,2.6544,2.6852,2.6983,2.6983,2.6983,2.6983,2.6983,2.6983,2.6983,2.6983,2.6983,2.6983,2.6983,2.6983,2.6998,2.71,2.7692,2.7926,2.8028,1.3904,1.3904,1.3945,1.4091,1.4034,1.4042,1.4233,1.4237,1.4229,1.4359,1.4338,1.4346,1.4387,1.4354,1.4338,1.4338,1.4164,1.4066,1.4172,1.405,1.3969,1.3969,1.3928,1.4058,1.4363,1.4042,1.3883,1.3879,1.3836,1.375,1.3674,1.3759,1.4193,1.4977,1.6689,1.7882,1.8652,2.0367,2.1109,2.1109,2.1109,2.1109,2.1109,2.1109,2.1109,2.1109,2.1109,2.1109,2.1109,2.1109,2.1109,2.1109,2.1109,2.1109,2.1109,2.1109,2.1109,2.1109,2.1109,2.1109,2.1162,2.1422,2.1863,2.2311,2.2672,2.284,2.2893,2.2893,2.2893,2.2893,2.2893,2.2893,2.2893,2.2893,2.2893,2.2893,2.2893,2.2893,2.2893,0.0,2.2893,2.2996,2.327,2.3611,2.3986,0.0,0.0,2.4984,2.5086,2.5086,2.5086,2.5086,2.5286,2.5461,2.55,2.6105,2.6559,2.6881,2.6954,2.6983,2.6983,2.6983,2.6983,2.6983,2.6983,2.6983,2.6983,2.6983,2.6983,2.6983,2.6983,2.7144,2.7408,2.7765,2.8072,2.8335,1.3904,1.3904,1.3937,1.4034,1.4034,1.4091,1.4286,1.4237,1.4237,1.4371,1.4367,1.4343,1.4387,1.4359,1.4318,1.4318,1.4286,1.4278,1.4294,1.4196,1.4107,1.4034,1.3945,1.3823,1.366,1.3508,1.3197,1.2807,1.2807,1.2807,1.2807,1.2807,1.3547,1.4945,1.5684,1.6818,1.8139,1.8908,1.9591,2.0132,2.0132,2.0526,2.1109,2.1109,2.1109,2.1109,2.1109,2.1109,2.1109,2.1109,2.1109,2.1136,2.1269,2.1341,2.1341,2.1341,2.1216,2.1136,2.1269,2.1341,2.1416,2.1877,2.2178,2.2498,2.2827,2.2893,2.2893,2.2893,2.2893,2.2893,2.2893,2.2893,2.2893,2.2893,2.2893,2.2893,2.2893,2.2893,2.2893,2.2893,2.2893,2.2962,2.3133,2.3679,2.4,2.3986,2.4495,0.0,2.4815,2.4815,2.4916,2.5086,2.5359,2.5573,2.5719,2.6398,2.6822,2.6983,2.6983,2.6983,2.6983,2.6983,2.6983,2.6983,2.6983,2.6983,2.6983,2.6983,2.7086,2.7217,2.7217,2.7408,2.773,2.8014,2.8247,2.8437,1.3904,1.3904,1.3912,1.3937,1.405,1.4148,1.4208,1.4156,1.4188,1.4298,1.4229,1.4188,1.4298,1.4221,1.4184,1.4217,1.4456,1.4546,1.433,1.4314,1.4286,1.414,1.3985,1.3758,1.3492,1.3435,1.3206,1.284,1.2815,1.2807,1.2807,1.2807,1.3547,1.4912,1.4912,1.5684,1.7012,1.7012,1.7785,1.9004,1.9004,1.9846,2.1109,2.1109,2.1109,2.1109,2.1109,2.1109,2.1109,2.1109,2.1109,2.1162,2.1489,2.1582,2.1628,2.1636,2.1475,2.1283,2.1529,2.1649,2.1836,2.2298,2.2458,2.2552,2.284,2.2893,2.2893,2.2893,2.2893,2.2893,2.2893,2.2893,2.2893,2.2893,2.2893,2.2893,2.2893,0.0,2.2893,2.2893,2.2893,2.2928,2.3065,2.3611,2.3884,2.3577,2.419,2.4563,2.4495,2.4563,2.4762,2.5159,2.5432,2.5749,2.6164,2.672,2.6983,2.6983,2.6983,2.6983,2.6983,2.6983,2.6983,2.6983,2.6983,2.6983,2.6983,2.6983,2.7159,2.7445,2.7489,2.7642,2.7882,2.8262,2.8394,2.8437,1.3904,1.3904,1.3953,1.4107,1.4026,1.3993,1.4156,1.4042,1.3953,1.3977,1.3961,1.3953,1.3977,1.3961,1.401,1.42,1.4265,1.418,1.3993,1.3985,1.3969,1.3945,1.3912,1.388,1.3823,1.3522,1.3305,1.3051,1.2872,1.2807,1.2807,1.2807,1.3547,1.4912,1.4912,1.5684,1.7012,1.7012,1.7785,1.9004,1.9004,1.9846,2.1109,2.1109,2.1109,2.1109,2.1109,2.1109,2.1109,2.1109,2.1109,2.1162,2.1489,2.1582,2.1636,2.1877,2.1884,2.1804,2.1636,2.1943,2.2311,2.2392,2.2605,2.284,2.288,2.2893,2.2893,2.2893,2.2893,2.2893,2.2893,2.2893,2.2893,2.2893,2.2893,2.2893,2.2893,0.0,2.2893,2.2893,2.2893,2.3133,2.3782,2.3918,2.4088,2.4292,2.4747,2.4849,2.4529,2.4815,2.5149,2.5447,2.5734,2.6237,2.6837,2.6939,2.6983,2.6983,2.6983,2.6983,2.6983,2.6983,2.6983,2.6983,2.6983,2.6983,2.6983,2.6983,2.7013,2.7086,2.7401,2.7547,2.7627,2.8174,2.8394,2.8437,1.3904,1.3904,1.3928,1.4018,1.3961,1.3961,1.4184,1.4018,1.3937,1.4034,1.3961,1.3904,1.3904,1.3904,1.3937,1.4018,1.4026,1.3993,1.3904,1.3993,1.4002,1.3904,1.3904,1.3855,1.3731,1.3409,1.3181,1.3092,1.3011,1.2978,1.2945,1.3076,1.3829,1.504,1.4289,1.4655,1.5814,1.5066,1.5976,1.7914,1.7914,1.9196,2.1109,2.1109,2.1109,2.1109,2.1109,2.1109,2.1109,2.1109,2.1216,2.1435,2.1729,2.193,2.2044,2.2178,2.2218,2.2191,2.2058,2.2325,2.2659,2.2659,2.28,2.2893,2.2893,2.2893,2.2893,2.2893,2.2893,2.2893,2.2893,2.2893,2.2893,2.2893,2.2893,0.0,2.2893,2.2893,2.2893,2.2893,2.2893,2.3099,2.3611,2.385,2.4056,2.4155,2.4719,2.4942,2.4719,2.508,2.5551,2.6012,2.6193,2.65,2.6983,2.6983,2.6983,2.6983,2.6983,2.6983,2.6983,2.6983,2.6983,2.6983,2.6983,2.6983,2.6983,2.6983,2.71,2.7291,2.7613,2.7847,2.8052,2.8505,2.8681,2.8695,1.3896,1.3872,1.3855,1.3896,1.3904,1.3953,1.4091,1.3993,1.3953,1.4099,1.3993,1.3904,1.3904,1.3904,1.3904,1.3904,1.3904,1.3904,1.3904,1.4034,1.405,1.3904,1.3904,1.3823,1.3609,1.3368,1.3206,1.3157,1.3116,1.3116,1.3157,1.3222,1.3789,1.4648,1.3511,1.3552,1.4357,1.3613,1.4716,1.7044,1.7335,1.8908,2.1109,2.1109,2.1109,2.1109,2.1109,2.1109,2.1109,2.1109,2.1256,2.1542,2.1903,2.2138,2.2338,2.2485,2.2525,2.2512,2.2432,2.2632,2.2893,2.2893,2.2893,2.2893,2.2893,2.2893,2.2893,2.2893,2.2893,2.2893,2.2893,2.2893,2.2893,2.2893,0.0,2.2893,2.2893,2.2893,2.2893,2.2893,2.2893,2.3057,2.3468,2.379,2.3983,2.3975,2.4665,2.5057,2.4897,2.5349,2.5881,2.65,2.6574,2.6735,2.6983,2.6983,2.6983,2.6983,2.6983,2.6983,2.6983,2.6983,2.6983,2.6983,2.6983,2.6983,2.6983,2.6983,2.7188,2.7547,2.7794,2.8116,2.8437,2.8783,2.8886,2.8886,1.3872,1.3739,1.3674,1.3872,1.3904,1.3904,1.392,1.3912,1.3904,1.392,1.3912,1.3904,1.3904,1.3904,1.3904,1.3904,1.3904,1.3904,1.3904,1.3912,1.3912,1.3904,1.3904,1.3823,1.3609,1.3585,1.3488,1.3386,1.3181,1.3215,1.3378,1.3027,1.2987,1.3252,1.2963,1.2881,1.303,1.4226,1.5619,1.7109,1.8364,1.975,2.1109,2.1109,2.1109,2.1109,2.1109,2.1109,2.1109,2.1109,2.1122,2.1243,2.1804,2.2004,2.2124,2.2706,2.2867,2.28,2.2485,2.2632,2.2893,2.2893,2.2893,2.2893,2.2893,2.2893,2.2893,2.2893,2.2893,2.2893,2.2893,2.2893,2.2893,2.2893,0.0,0.0,2.2893,2.2893,2.2893,2.2893,2.2893,2.3138,2.3803,2.39,2.3989,2.4246,2.4954,2.5236,2.4911,2.5596,2.6129,2.6486,2.6793,2.6969,2.6983,2.6983,2.6983,2.6983,2.6983,2.6983,2.6983,2.6983,2.6983,2.6983,2.6983,2.6983,2.6983,2.6983,2.7188,2.7547,2.7794,2.8116,2.8437,2.8783,2.8886,2.8886,1.3698,1.3739,1.3823,1.3888,1.3904,1.3904,1.3904,1.3904,1.3904,1.3904,1.3904,1.3904,1.3904,1.3904,1.3904,1.3904,1.3904,1.3904,1.3904,1.3904,1.3904,1.3904,1.3904,1.3872,1.3807,1.3666,1.3577,1.3504,1.3431,1.3439,1.3539,1.3366,1.3277,1.3288,1.3076,1.2904,1.2906,1.4493,1.5949,1.7358,1.8759,2.0129,2.1395,2.1176,2.1109,2.1109,2.1109,2.1109,2.1136,2.1355,2.151,2.1724,2.2124,2.2378,2.2612,2.2827,2.2893,2.2867,2.2726,2.2813,2.2893,2.2893,2.2893,2.2893,2.2893,2.2893,2.2893,2.2893,2.2893,2.2893,2.2893,2.2893,2.2893,2.2893,0.0,2.2893,2.2893,2.2893,2.2893,2.2893,2.3033,2.3367,2.3844,2.4036,2.4246,2.4511,2.5277,2.5648,2.5472,2.6222,2.6676,2.6808,2.6925,2.6983,2.6983,2.6983,2.6983,2.6983,2.6983,2.6983,2.6983,2.6983,2.6983,2.6983,2.6983,2.6983,2.6983,2.6983,2.7188,2.7547,2.7794,2.8116,2.8437,2.8783,2.8886,2.8886,1.3666,1.3739,1.3839,1.3896,1.3904,1.3904,1.3904,1.3904,1.3904,1.3904,1.3904,1.3904,1.3904,1.3904,1.3904,1.3904,1.3904,1.3904,1.3904,1.3904,1.3904,1.3904,1.3904,1.3872,1.3823,1.3723,1.3666,1.3609,1.3609,1.3633,1.369,1.3577,1.349,1.3394,1.3173,1.3027,1.3021,1.5092,1.6499,1.7489,1.9402,2.0663,2.1435,2.1296,2.1189,2.1136,2.1323,2.1323,2.1296,2.1622,2.185,2.2031,2.2325,2.2619,2.2893,2.2893,2.2893,2.2893,2.2893,2.2893,2.2893,2.2893,2.2893,2.2893,2.2893,2.2893,2.2893,2.2893,2.2893,2.2893,2.2893,2.2893,2.2893,2.2893,2.2893,2.2893,2.2893,2.2987,2.3,2.2907,2.322,2.3566,2.3833,2.4118,2.4417,2.4825,2.5492,2.5975,2.6152,2.6692,2.6983,2.6983,2.6983,2.6983,2.6983,2.6983,2.6983,2.6983,2.6983,2.6983,2.6983,2.6983,2.6983,2.6983,2.6983,2.6983,2.6983,2.6983,2.7188,2.7547,2.7794,2.8116,2.8437,2.8783,2.8886,2.8886,1.3831,1.3731,1.3666,1.3872,1.3904,1.3904,1.3904,1.3904,1.3904,1.3904,1.3904,1.3904,1.3904,1.3904,1.3904,1.3904,1.3904,1.3904,1.3904,1.3904,1.3904,1.3904,1.3896,1.3787,1.3617,1.3815,1.3815,1.3609,1.3609,1.3698,1.3896,1.3573,1.341,1.3394,1.3181,1.3092,1.3327,1.6168,1.7335,1.7467,2.0436,2.1408,2.1149,2.1475,2.1408,2.1189,2.1777,2.1836,2.1636,2.193,2.1991,2.2044,2.2338,2.2619,2.2893,2.2893,2.2893,2.2893,2.2893,2.2893,2.2893,2.2893,2.2893,2.2893,2.2893,2.2893,2.2893,2.2893,2.2893,2.2893,2.2893,2.2893,2.2893,2.2893,2.2907,2.2907,2.2907,2.314,2.3207,2.2934,2.3429,2.3803,2.3803,2.4035,2.4475,2.5139,2.558,2.6166,2.6947,2.6983,2.6983,2.6983,2.6983,2.6983,2.6983,2.6983,2.6983,2.6983,2.6983,2.6983,2.6983,2.6983,2.6983,2.6983,2.6983,2.6983,2.6983,2.6983,2.7188,2.751,2.7794,2.8116,2.8437,2.8783,2.8886,2.8886,1.3642,1.3739,1.3839,1.3896,1.3904,1.3904,1.3904,1.3904,1.3904,1.3904,1.3904,1.3904,1.3904,1.3904,1.3904,1.3904,1.3904,1.3904,1.3904,1.3904,1.3904,1.3904,1.3747,1.3714,1.3823,1.3723,1.3723,1.3823,1.3823,1.3847,1.3896,1.3633,1.3498,1.3402,1.3345,1.3823,1.4757,1.6773,1.8184,1.9224,2.0903,2.1649,2.171,2.1622,2.1649,2.175,2.1924,2.197,2.193,2.2191,2.2285,2.2338,2.2632,2.2827,2.2893,2.2893,2.2893,2.2893,2.2893,2.2893,2.2893,2.2893,2.2893,2.2893,2.2893,2.3067,2.3126,2.2947,2.3033,2.3126,2.2934,2.3046,2.3193,2.3193,2.3367,2.3536,2.3536,2.3394,2.3252,2.3193,2.3527,2.3803,2.3803,2.4222,2.469,2.5152,2.585,2.6473,2.6947,2.6983,2.6983,2.6983,2.6983,2.6983,2.6983,2.6983,2.6983,2.6983,2.6983,2.6983,2.6983,2.6983,2.6983,2.6983,2.6983,2.6983,2.6983,2.6983,2.732,2.778,2.7882,2.8247,2.8769,2.8856,2.8886,2.8886,1.3585,1.3747,1.388,1.3815,1.3855,1.3904,1.3904,1.3904,1.3904,1.3904,1.3904,1.3904,1.3904,1.3904,1.3904,1.3904,1.3904,1.3904,1.3904,1.3904,1.3904,1.3904,1.3698,1.369,1.3896,1.3763,1.3798,1.3904,1.3904,1.3863,1.3763,1.3731,1.3571,1.3305,1.3417,1.419,1.5524,1.7159,1.862,1.9966,2.1352,2.189,2.185,2.1903,2.197,2.2017,2.2278,2.2258,2.2205,2.2498,2.2592,2.2619,2.284,2.2893,2.2893,2.2893,2.2893,2.2893,2.2893,2.2893,2.2893,2.2893,2.2893,2.2893,2.2893,2.3041,2.3086,2.2934,2.3041,2.3126,2.306,2.3193,2.3332,2.3487,2.3647,2.3763,2.3607,2.3541,2.342,2.3166,2.3621,2.3937,2.3817,2.4302,2.4821,2.541,2.618,2.6728,2.6983,2.6983,2.6983,2.6983,2.6983,2.6983,2.6983,2.6983,2.6983,2.6983,2.6983,2.6983,2.6983,2.6983,2.6983,2.6983,2.6983,2.6983,2.6983,2.6983,2.7291,2.7736,2.7868,2.8218,2.8725,2.8842,2.8886,2.8886,1.3625,1.3755,1.3855,1.3658,1.3798,1.3904,1.3904,1.3904,1.3904,1.3904,1.3904,1.3904,1.3904,1.3904,1.3904,1.3904,1.3904,1.3904,1.3904,1.3904,1.3904,1.3904,1.3714,1.3706,1.3896,1.3888,1.3888,1.3904,1.3904,1.3823,1.3633,1.3815,1.3604,1.3133,1.3455,1.4432,1.5885,1.7405,1.8812,2.0172,2.171,2.2058,2.1716,2.2218,2.2271,2.2138,2.2706,2.2686,2.2498,2.28,2.2893,2.2893,2.2893,2.2893,2.2893,2.2893,2.2893,2.2893,2.2893,2.2893,2.2893,2.2893,2.292,2.2934,2.2907,2.292,2.2934,2.2934,2.296,2.3054,2.3252,2.3319,2.3447,2.3688,2.379,2.3674,2.3407,2.3581,2.3562,2.3,2.3621,2.4022,2.379,2.4321,2.5001,2.5721,2.6531,2.6983,2.6983,2.6983,2.6983,2.6983,2.6983,2.6983,2.6983,2.6983,2.6983,2.6983,2.6983,2.6983,2.6983,2.6983,2.6983,2.6983,2.6983,2.6983,2.6983,2.6983,2.7188,2.7547,2.7794,2.8116,2.8437,2.8783,2.8886,2.8886,1.3787,1.3872,1.3888,1.3855,1.3872,1.3904,1.3904,1.3904,1.3904,1.3904,1.3904,1.3904,1.3904,1.3904,1.3904,1.3904,1.3904,1.3904,1.3904,1.3904,1.3904,1.3904,1.3863,1.3863,1.3904,1.3731,1.3731,1.3904,1.3904,1.388,1.3847,1.3706,1.3563,1.3353,1.3512,1.5011,1.7421,1.7565,1.9261,2.1817,2.1799,2.197,2.2245,2.2378,2.2525,2.2719,2.2853,2.2853,2.2813,2.288,2.2893,2.2893,2.2893,2.2893,2.2893,2.2893,2.2893,2.2893,2.2893,2.2893,2.2893,2.2893,2.3046,2.3166,2.296,2.3046,2.322,2.322,2.3407,2.3562,2.3354,2.3514,2.3621,2.3447,2.3621,2.379,2.3688,2.3527,2.338,2.3247,2.3394,2.3452,2.3399,2.4514,2.5305,2.5472,2.6438,2.6983,2.6983,2.6983,2.6983,2.6983,2.6983,2.6983,2.6983,2.6983,2.6983,2.6983,2.6983,2.6983,2.6983,2.6983,2.6983,2.6983,2.6983,2.6983,2.6983,2.6983,2.7188,2.7547,2.7794,2.8116,2.8437,2.8783,2.8886,2.8886,1.3774,1.3847,1.3872,1.3755,1.3847,1.3904,1.3904,1.3904,1.3904,1.3904,1.3904,1.3904,1.3904,1.3904,1.3904,1.3904,1.3904,1.3904,1.3904,1.3904,1.3904,1.3904,1.3904,1.3904,1.3904,1.3815,1.3779,1.3904,1.3787,1.3734,1.3652,1.3609,1.3423,1.3133,1.3536,1.522,1.7673,1.7839,1.9593,2.2205,2.2224,2.2271,2.2432,2.2579,2.276,2.2893,2.2893,2.2893,2.2893,2.2893,2.2893,2.2893,2.2893,2.2893,2.2893,2.2893,2.2893,2.2893,2.2893,2.2893,2.2893,2.2893,2.3014,2.306,2.2934,2.31,2.3252,2.314,2.3268,2.3375,2.3292,2.3567,2.375,2.3567,2.3781,2.3875,2.3594,2.342,2.3238,2.3126,2.3233,2.3345,2.3527,2.4822,2.5554,2.541,2.6409,2.6983,2.6983,2.6983,2.6983,2.6983,2.6983,2.6983,2.6983,2.6983,2.6983,2.6983,2.6983,2.6983,2.6983,2.6983,2.6983,2.6983,2.6983,2.6983,2.6983,2.6983,2.7188,2.7495,2.7656,2.7882,2.8204,2.8564,2.8769,2.8886,1.3682,1.3807,1.3855,1.3674,1.3807,1.3904,1.3904,1.3904,1.3904,1.3904,1.3904,1.3904,1.3904,1.3904,1.3904,1.3904,1.3904,1.3904,1.3904,1.3904,1.3904,1.3904,1.3904,1.3904,1.3904,1.3904,1.3904,1.3904,1.369,1.3544,1.35,1.3555,1.3342,1.2961,1.3563,1.5194,1.7552,1.8069,1.9768,2.2211,2.2639,2.2672,2.2525,2.28,2.2893,2.2893,2.2893,2.2893,2.2893,2.2893,2.2893,2.2893,2.2893,2.2893,2.2893,2.2893,2.2893,2.2893,2.2893,2.2893,2.2893,2.2893,2.2934,2.296,2.2907,2.306,2.3193,2.2979,2.3014,2.3121,2.3252,2.3567,2.3777,2.3669,2.3821,2.3808,2.3313,2.3212,2.3188,2.2989,2.319,2.3472,2.3873,2.4973,2.5584,2.5518,2.6388,2.6925,2.6983,2.6983,2.6983,2.6983,2.6983,2.6983,2.6983,2.6983,2.6983,2.6983,2.6983,2.6983,2.6983,2.6983,2.6983,2.6983,2.6983,2.6983,2.6983,2.6983,2.7144,2.743,2.7489,2.7642,2.7882,2.8262,2.8598,2.8886,1.3872,1.3888,1.3896,1.3872,1.3888,1.3904,1.3904,1.3904,1.3904,1.3904,1.3904,1.3904,1.3904,1.3904,1.3904,1.3904,1.3904,1.3904,1.3904,1.3904,1.3904,1.3904,1.3904,1.3904,1.3904,1.3904,1.3904,1.3904,1.369,1.3674,1.3823,1.3539,1.3449,1.3496,1.3474,1.5163,1.8006,1.7864,1.9718,2.276,2.2552,2.2605,2.284,2.288,2.2893,2.2893,2.2893,2.2893,2.2893,2.2893,2.2893,2.2893,2.2893,2.2893,2.2893,2.2893,2.2893,2.2893,2.2893,2.2893,2.2893,2.2893,2.306,2.3193,2.296,2.2934,2.3027,2.322,2.3474,2.3581,2.3332,2.3567,2.3629,2.3108,2.3054,2.3054,2.2974,2.296,2.305,2.3304,2.3379,2.3619,2.4268,2.4477,2.4975,2.5848,2.6329,2.6691,2.6969,2.6983,2.6983,2.6983,2.6983,2.6983,2.6983,2.6983,2.6983,2.6983,2.6983,2.6983,2.6983,2.6983,2.6983,2.6983,2.6983,2.6983,2.6983,2.6983,2.7013,2.7086,2.7401,2.751,2.7613,2.8174,2.8598,2.8886,1.3904,1.3904,1.3904,1.3904,1.3904,1.3904,1.3904,1.3904,1.3904,1.3904,1.3904,1.3904,1.3904,1.3904,1.3904,1.3904,1.3904,1.3904,1.3904,1.3904,1.3904,1.3904,1.3904,1.3904,1.3904,1.3904,1.3904,1.3904,1.3628,1.353,1.3638,1.3336,1.3262,1.337,1.4173,1.5788,1.792,1.8755,2.0466,2.2619,2.2645,2.2773,2.2893,2.2893,2.2893,2.2893,2.2893,2.2893,2.2893,2.2893,2.2893,2.2893,2.2893,2.2893,2.2893,2.2893,2.2893,2.2893,2.2893,2.2893,2.2893,2.2893,2.3,2.3067,2.2934,2.2893,2.2934,2.3033,2.3166,2.3255,2.3086,2.3313,2.338,2.2974,2.3041,2.306,2.292,2.3065,2.3304,2.3679,2.3866,2.4087,2.4365,2.4951,2.5425,2.5712,2.6024,2.6296,2.6442,2.6442,2.653,2.672,2.672,2.6808,2.6983,2.6983,2.6983,2.6983,2.6983,2.6983,2.6983,2.6983,2.6983,2.6983,2.6983,2.6983,2.6983,2.6983,2.6983,2.7013,2.7144,2.7357,2.7539,2.7955,2.8321,2.8666]},{"header":{"parameterUnit":"m.s-1","parameterCategory":1,"la1":30.6,"la2":28.766,"lo1":-90.7593,"lo2":-88.6598,"dy":0.0162,"dx":0.0183,"nx":116,"ny":114,"refTime":"2023-09-19T00:00:00:Z","depth":0,"parameterNumber":3,"parameterNumberName":"V-component_of_WINDS"},"data":[0.0,0.0,0.0,0.0,0.0,0.0,0.0,0.0,0.0,0.0,0.0,0.0,0.0,0.0,0.0,0.0,0.0,0.0,0.0,0.0,0.0,0.0,0.0,0.0,0.0,0.0,0.0,0.0,0.0,0.0,0.0,0.0,0.0,0.0,0.0,0.0,0.0,0.0,0.0,0.0,0.0,0.0,0.0,0.0,0.0,0.0,0.0,0.0,0.0,0.0,0.0,0.0,0.0,0.0,0.0,0.0,0.0,0.0,0.0,0.0,0.0,0.0,0.0,0.0,0.0,0.0,0.0,0.0,0.0,0.0,0.0,0.0,0.0,0.0,0.0,0.0,0.0,0.0,0.0,0.0,0.0,0.0,0.0,0.0,0.0,0.0,0.0,0.0,0.0,0.0,0.0,0.0,0.0,0.0,0.0,0.0,0.0,0.0,0.0,0.0,0.0,0.0,0.0,0.0,0.0,0.0,0.0,0.0,0.0,0.0,0.0,0.0,0.0,0.0,0.0,0.0,0.0,0.0,0.0,0.0,0.0,0.0,0.0,0.0,0.0,0.0,0.0,0.0,0.0,0.0,0.0,0.0,0.0,0.0,0.0,0.0,0.0,0.0,0.0,0.0,0.0,0.0,0.0,0.0,0.0,0.0,0.0,0.0,0.0,0.0,0.0,0.0,0.0,0.0,0.0,0.0,0.0,0.0,0.0,0.0,0.0,0.0,0.0,0.0,0.0,0.0,0.0,0.0,0.0,0.0,0.0,0.0,0.0,0.0,0.0,0.0,0.0,0.0,0.0,0.0,0.0,0.0,0.0,0.0,0.0,0.0,0.0,0.0,0.0,0.0,0.0,0.0,0.0,0.0,0.0,0.0,0.0,0.0,0.0,0.0,0.0,0.0,0.0,0.0,0.0,0.0,0.0,0.0,0.0,0.0,0.0,0.0,0.0,0.0,0.0,0.0,0.0,0.0,0.0,0.0,0.0,0.0,0.0,0.0,0.0,0.0,0.0,0.0,0.0,0.0,0.0,0.0,0.0,0.0,0.0,0.0,0.0,0.0,0.0,0.0,0.0,0.0,0.0,0.0,0.0,0.0,0.0,0.0,0.0,0.0,0.0,0.0,0.0,0.0,0.0,0.0,0.0,0.0,0.0,0.0,0.0,0.0,0.0,0.0,0.0,0.0,0.0,0.0,0.0,0.0,0.0,0.0,0.0,0.0,0.0,0.0,0.0,0.0,0.0,0.0,0.0,0.0,0.0,0.0,0.0,0.0,0.0,0.0,0.0,0.0,0.0,0.0,0.0,0.0,0.0,0.0,0.0,0.0,0.0,0.0,0.0,0.0,0.0,0.0,0.0,0.0,0.0,0.0,0.0,0.0,0.0,0.0,0.0,0.0,0.0,0.0,0.0,0.0,0.0,0.0,0.0,0.0,0.0,0.0,0.0,0.0,0.0,0.0,0.0,0.0,0.0,0.0,0.0,0.0,0.0,0.0,0.0,0.0,0.0,0.0,0.0,0.0,0.0,0.0,0.0,0.0,0.0,0.0,0.0,0.0,0.0,0.0,0.0,0.0,0.0,0.0,0.0,0.0,0.0,0.0,0.0,0.0,0.0,0.0,0.0,0.0,0.0,0.0,0.0,0.0,0.0,0.0,0.0,0.0,0.0,0.0,0.0,0.0,0.0,0.0,0.0,0.0,0.0,0.0,0.0,0.0,0.0,0.0,0.0,0.0,0.0,0.0,0.0,0.0,0.0,0.0,0.0,0.0,0.0,0.0,0.0,0.0,0.0,0.0,0.0,0.0,0.0,0.0,0.0,0.0,0.0,0.0,0.0,0.0,0.0,0.0,0.0,0.0,0.0,0.0,0.0,0.0,0.0,0.0,0.0,0.0,0.0,0.0,0.0,0.0,0.0,0.0,0.0,0.0,0.0,0.0,0.0,0.0,0.0,0.0,0.0,0.0,0.0,0.0,0.0,0.0,0.0,0.0,0.0,0.0,0.0,0.0,0.0,0.0,0.0,0.0,0.0,0.0,0.0,0.0,0.0,0.0,0.0,0.0,0.0,0.0,0.0,0.0,0.0,0.0,0.0,0.0,0.0,0.0,0.0,0.0,0.0,0.0,0.0,0.0,0.0,0.0,0.0,0.0,0.0,0.0,0.0,0.0,0.0,0.0,0.0,0.0,0.0,0.0,0.0,0.0,0.0,0.0,0.0,0.0,0.0,0.0,0.0,0.0,0.0,0.0,0.0,0.0,0.0,0.0,0.0,0.0,0.0,0.0,0.0,0.0,0.0,0.0,0.0,0.0,0.0,0.0,0.0,0.0,0.0,0.0,0.0,0.0,0.0,0.0,0.0,0.0,0.0,0.0,0.0,0.0,0.0,0.0,0.0,0.0,0.0,0.0,0.0,0.0,0.0,0.0,0.0,0.0,0.0,0.0,0.0,0.0,0.0,0.0,0.0,0.0,0.0,0.0,0.0,0.0,0.0,0.0,0.0,0.0,0.0,0.0,0.0,0.0,0.0,0.0,0.0,0.0,0.0,0.0,0.0,0.0,0.0,0.0,0.0,0.0,0.0,0.0,0.0,0.0,0.0,0.0,0.0,0.0,0.0,0.0,0.0,0.0,0.0,0.0,0.0,0.0,0.0,0.0,0.0,0.0,0.0,0.0,0.0,0.0,0.0,0.0,0.0,0.0,0.0,0.0,0.0,0.0,0.0,0.0,0.0,0.0,0.0,0.0,0.0,0.0,0.0,0.0,0.0,0.0,0.0,0.0,0.0,0.0,0.0,0.0,0.0,0.0,0.0,0.0,0.0,0.0,0.0,0.0,0.0,0.0,0.0,0.0,0.0,0.0,0.0,0.0,0.0,0.0,0.0,0.0,0.0,0.0,0.0,0.0,0.0,0.0,0.0,0.0,0.0,0.0,0.0,0.0,0.0,0.0,0.0,0.0,0.0,0.0,0.0,0.0,0.0,0.0,0.0,0.0,0.0,0.0,0.0,0.0,0.0,0.0,0.0,0.0,0.0,0.0,0.0,0.0,0.0,0.0,0.0,0.0,0.0,0.0,0.0,0.0,0.0,0.0,0.0,0.0,0.0,0.0,0.0,0.0,0.0,0.0,0.0,0.0,0.0,0.0,0.0,0.0,0.0,0.0,0.0,0.0,0.0,0.0,0.0,0.0,0.0,0.0,0.0,0.0,0.0,0.0,0.0,0.0,0.0,0.0,0.0,0.0,0.0,0.0,0.0,0.0,0.0,0.0,0.0,0.0,0.0,0.0,0.0,0.0,0.0,0.0,0.0,0.0,0.0,0.0,0.0,0.0,0.0,0.0,0.0,0.0,0.0,0.0,0.0,0.0,0.0,0.0,0.0,0.0,0.0,0.0,0.0,0.0,0.0,0.0,0.0,0.0,0.0,0.0,0.0,0.0,0.0,0.0,0.0,0.0,0.0,0.0,0.0,0.0,0.0,0.0,0.0,0.0,0.0,0.0,0.0,0.0,0.0,0.0,0.0,0.0,0.0,0.0,0.0,0.0,0.0,0.0,0.0,0.0,0.0,0.0,0.0,0.0,0.0,0.0,0.0,0.0,0.0,0.0,0.0,0.0,0.0,0.0,0.0,0.0,0.0,0.0,0.0,0.0,0.0,0.0,0.0,0.0,0.0,0.0,0.0,0.0,0.0,0.0,0.0,0.0,0.0,0.0,0.0,0.0,0.0,0.0,0.0,0.0,0.0,0.0,0.0,0.0,0.0,0.0,0.0,0.0,0.0,0.0,0.0,0.0,0.0,0.0,0.0,0.0,0.0,0.0,0.0,0.0,0.0,0.0,0.0,0.0,0.0,0.0,0.0,0.0,0.0,0.0,0.0,0.0,0.0,0.0,0.0,0.0,0.0,0.0,0.0,0.0,0.0,0.0,0.0,0.0,0.0,0.0,0.0,0.0,0.0,0.0,0.0,0.0,0.0,0.0,0.0,0.0,0.0,0.0,0.0,0.0,0.0,0.0,0.0,0.0,0.0,0.0,0.0,0.0,0.0,0.0,0.0,0.0,0.0,0.0,0.0,0.0,0.0,0.0,0.0,0.0,0.0,0.0,0.0,0.0,0.0,0.0,0.0,0.0,0.0,0.0,0.0,0.0,0.0,0.0,0.0,0.0,0.0,0.0,0.0,0.0,0.0,0.0,0.0,0.0,0.0,0.0,0.0,0.0,0.0,0.0,0.0,0.0,0.0,0.0,0.0,0.0,0.0,0.0,0.0,0.0,0.0,0.0,0.0,0.0,0.0,0.0,0.0,0.0,0.0,0.0,0.0,0.0,0.0,0.0,0.0,0.0,0.0,0.0,0.0,0.0,0.0,0.0,0.0,0.0,0.0,0.0,0.0,0.0,0.0,0.0,0.0,0.0,0.0,0.0,0.0,0.0,0.0,0.0,0.0,0.0,0.0,0.0,0.0,0.0,0.0,0.0,0.0,0.0,0.0,0.0,0.0,0.0,0.0,0.0,0.0,0.0,0.0,0.0,0.0,0.0,0.0,0.0,0.0,0.0,0.0,0.0,0.0,0.0,0.0,0.0,0.0,0.0,0.0,0.0,0.0,0.0,0.0,0.0,0.0,0.0,0.0,0.0,0.0,0.0,0.0,0.0,0.0,0.0,0.0,0.0,0.0,0.0,0.0,0.0,0.0,0.0,0.0,0.0,0.0,0.0,0.0,0.0,0.0,0.0,0.0,0.0,0.0,0.0,0.0,0.0,0.0,0.0,0.0,0.0,0.0,0.0,0.0,0.0,0.0,0.0,0.0,0.0,0.0,0.0,0.0,0.0,0.0,0.0,0.0,0.0,0.0,0.0,0.0,0.0,0.0,0.0,0.0,0.0,0.0,0.0,0.0,0.0,0.0,0.0,0.0,0.0,0.0,0.0,0.0,0.0,0.0,0.0,0.0,0.0,0.0,0.0,0.0,0.0,0.0,0.0,0.0,0.0,0.0,0.0,0.0,0.0,0.0,0.0,0.0,0.0,0.0,0.0,0.0,0.0,0.0,0.0,0.0,0.0,0.0,0.0,0.0,0.0,0.0,0.0,0.0,0.0,0.0,0.0,0.0,0.0,0.0,0.0,0.0,0.0,0.0,0.0,0.0,0.0,0.0,0.0,0.0,0.0,0.0,0.0,0.0,0.0,0.0,0.0,0.0,0.0,0.0,0.0,0.0,0.0,0.0,0.0,0.0,0.0,0.0,0.0,0.0,0.0,0.0,0.0,0.0,0.0,0.0,0.0,0.0,0.0,0.0,0.0,0.0,0.0,0.0,0.0,0.0,0.0,0.0,0.0,0.0,0.0,0.0,0.0,0.0,0.0,0.0,0.0,0.0,0.0,0.0,0.0,0.0,0.0,0.0,0.0,0.0,0.0,0.0,0.0,0.0,0.0,0.0,0.0,0.0,0.0,0.0,0.0,0.0,0.0,0.0,0.0,0.0,0.0,0.0,0.0,0.0,0.0,0.0,0.0,0.0,0.0,0.0,0.0,0.0,0.0,0.0,0.0,0.0,0.0,0.0,0.0,0.0,0.0,0.0,0.0,0.0,0.0,0.0,0.0,0.0,0.0,0.0,0.0,0.0,0.0,0.0,0.0,0.0,0.0,0.0,0.0,0.0,0.0,0.0,0.0,0.0,0.0,0.0,0.0,0.0,0.0,0.0,0.0,0.0,0.0,0.0,0.0,0.0,0.0,0.0,0.0,0.0,0.0,0.0,0.0,0.0,0.0,0.0,0.0,0.0,0.0,0.0,0.0,0.0,0.0,0.0,0.0,0.0,0.0,0.0,0.0,0.0,0.0,0.0,0.0,0.0,0.0,0.0,0.0,0.0,0.0,0.0,0.0,0.0,0.0,0.0,0.0,0.0,0.0,0.0,0.0,0.0,0.0,0.0,0.0,0.0,0.0,0.0,0.0,0.0,0.0,0.0,0.0,0.0,0.0,0.0,0.0,0.0,0.0,0.0,0.0,0.0,0.0,0.0,0.0,0.0,0.0,0.0,0.0,0.0,0.0,0.0,0.0,0.0,0.0,0.0,0.0,0.0,0.0,0.0,0.0,0.0,0.0,0.0,0.0,0.0,0.0,4.0434,4.0309,0.0,0.0,0.0,0.0,0.0,0.0,0.0,0.0,0.0,0.0,0.0,0.0,0.0,0.0,0.0,0.0,0.0,0.0,0.0,0.0,0.0,0.0,0.0,0.0,0.0,0.0,0.0,0.0,0.0,0.0,0.0,0.0,0.0,0.0,0.0,0.0,0.0,3.2317,3.2317,3.2904,3.4007,3.4007,3.4052,3.4086,0.0,0.0,0.0,0.0,0.0,0.0,0.0,0.0,0.0,0.0,0.0,0.0,0.0,0.0,0.0,0.0,0.0,0.0,0.0,0.0,0.0,0.0,0.0,0.0,0.0,0.0,0.0,0.0,0.0,0.0,0.0,0.0,0.0,0.0,0.0,0.0,0.0,0.0,0.0,0.0,0.0,0.0,0.0,0.0,0.0,0.0,0.0,0.0,0.0,0.0,0.0,0.0,0.0,0.0,0.0,0.0,0.0,0.0,0.0,0.0,0.0,0.0,0.0,0.0,0.0,0.0,0.0,0.0,0.0,0.0,4.2718,4.2145,0.0,0.0,0.0,0.0,0.0,0.0,0.0,0.0,0.0,0.0,0.0,0.0,0.0,0.0,0.0,0.0,0.0,0.0,0.0,0.0,0.0,0.0,0.0,2.7433,2.777,2.8351,2.8523,2.886,0.0,0.0,0.0,0.0,0.0,0.0,0.0,3.1593,3.2283,3.2904,3.3317,3.4283,3.5811,3.5904,3.5811,3.5432,3.4776,0.0,0.0,0.0,0.0,0.0,0.0,0.0,0.0,0.0,0.0,0.0,0.0,0.0,0.0,0.0,0.0,0.0,0.0,0.0,0.0,0.0,0.0,0.0,0.0,0.0,0.0,0.0,0.0,0.0,0.0,0.0,0.0,0.0,0.0,0.0,0.0,0.0,0.0,0.0,0.0,0.0,0.0,0.0,0.0,0.0,0.0,0.0,0.0,0.0,0.0,0.0,0.0,0.0,0.0,0.0,0.0,0.0,0.0,0.0,0.0,0.0,0.0,0.0,4.4712,4.5734,4.6996,4.7134,4.7651,4.8341,4.5717,4.4642,4.4678,4.441,0.0,0.0,0.0,0.0,0.0,0.0,0.0,0.0,0.0,0.0,0.0,0.0,0.0,0.0,0.0,0.0,0.0,0.0,0.0,0.0,0.0,2.8048,2.8401,2.8402,2.9006,2.942,2.948,0.0,0.0,0.0,0.0,0.0,3.1662,3.2386,3.28,3.2904,3.4869,3.6628,3.8157,3.8813,3.9779,4.0814,3.7502,3.6732,3.7916,0.0,0.0,0.0,0.0,0.0,0.0,0.0,0.0,0.0,0.0,0.0,0.0,0.0,0.0,0.0,0.0,0.0,0.0,0.0,0.0,0.0,0.0,0.0,0.0,0.0,0.0,0.0,0.0,0.0,0.0,0.0,0.0,0.0,0.0,0.0,0.0,0.0,0.0,0.0,0.0,0.0,3.9124,3.8607,0.0,0.0,0.0,0.0,0.0,0.0,0.0,0.0,0.0,0.0,0.0,0.0,0.0,4.4427,4.5757,4.5914,4.6389,4.71,4.7858,4.8307,4.8548,4.9238,5.0306,5.1582,5.1188,0.0,4.6251,4.5522,0.0,0.0,0.0,0.0,0.0,0.0,0.0,0.0,0.0,0.0,0.0,0.0,0.0,0.0,0.0,0.0,0.0,0.0,0.0,0.0,0.0,2.9088,2.992,3.0291,3.1765,3.2352,3.1489,3.2559,0.0,0.0,0.0,3.2007,3.2421,3.2731,3.3731,3.5501,3.7778,3.9434,4.0538,4.1297,4.2033,4.262,4.0917,4.0055,3.9813,3.8698,0.0,0.0,0.0,0.0,0.0,0.0,0.0,0.0,0.0,0.0,0.0,0.0,0.0,0.0,0.0,0.0,0.0,0.0,0.0,0.0,0.0,0.0,0.0,0.0,0.0,0.0,0.0,0.0,0.0,0.0,0.0,0.0,0.0,0.0,0.0,0.0,0.0,0.0,0.0,4.0262,4.071,3.9986,4.0952,4.1205,0.0,0.0,0.0,0.0,0.0,0.0,0.0,0.0,0.0,4.632,4.7079,4.7838,4.8479,4.9769,5.0597,5.0942,5.2065,5.3065,5.3927,5.4287,5.503,5.603,5.6081,5.4908,5.277,5.0237,4.8272,4.6803,0.0,0.0,0.0,0.0,4.6562,4.6906,0.0,0.0,0.0,0.0,0.0,0.0,0.0,0.0,0.0,0.0,0.0,0.0,2.9213,3.0636,3.1947,3.2869,3.449,3.4973,3.3835,3.449,3.4155,3.2455,3.2396,3.2662,3.3214,3.3766,3.557,3.8651,4.0549,4.2056,4.3182,4.3781,4.4264,4.4609,4.4436,4.3401,4.1688,4.0503,3.9365,3.8341,0.0,0.0,0.0,0.0,0.0,0.0,0.0,0.0,0.0,0.0,0.0,0.0,0.0,0.0,0.0,0.0,0.0,0.0,0.0,0.0,0.0,0.0,0.0,0.0,0.0,0.0,0.0,0.0,0.0,0.0,0.0,0.0,0.0,0.0,0.0,0.0,0.0,4.1331,4.1952,4.0998,4.2573,4.3091,0.0,0.0,0.0,0.0,0.0,0.0,4.5713,4.7044,4.8513,5.0203,5.1203,5.1942,5.2306,5.4184,5.5219,5.5426,5.672,5.7978,5.9081,5.9081,5.9495,6.0185,6.0013,5.9495,5.8461,5.4651,5.1858,4.9927,4.9548,4.8927,4.8376,4.9134,4.941,4.9513,0.0,0.0,0.0,0.0,0.0,0.0,0.0,0.0,0.0,0.0,0.0,2.9213,3.1386,3.3017,3.45,3.5939,3.618,3.6215,3.6146,3.488,3.4086,3.3983,3.3983,3.3983,3.4052,3.6156,3.8744,4.178,4.2654,4.4195,4.6389,4.6424,4.7169,4.8479,4.7789,4.6217,4.3966,4.1792,4.0791,4.0549,3.8375,0.0,0.0,0.0,0.0,0.0,0.0,0.0,0.0,0.0,0.0,0.0,0.0,0.0,0.0,0.0,0.0,0.0,0.0,0.0,0.0,0.0,0.0,0.0,0.0,0.0,0.0,0.0,0.0,0.0,0.0,0.0,0.0,0.0,0.0,0.0,0.0,0.0,0.0,4.1067,4.3492,0.0,0.0,0.0,0.0,4.5225,4.6617,4.8134,4.9631,5.0444,5.1892,5.4134,5.5667,5.715,5.8513,5.9426,6.022,6.0909,6.1737,6.2204,6.2273,6.2273,6.2687,6.3324,6.2634,6.1875,6.084,5.6996,5.4547,5.3011,5.1548,5.0513,4.9962,5.072,5.0996,5.1099,0.0,0.0,0.0,0.0,0.0,0.0,0.0,0.0,2.7681,2.838,2.929,3.074,3.3017,3.5087,3.6881,3.8353,3.9399,3.9365,3.7881,3.7295,3.6329,3.488,3.4362,3.4786,3.627,3.8019,4.04,4.3483,4.4781,4.6286,4.8031,4.8548,4.9306,5.0272,4.9996,4.9183,4.7803,4.5527,4.3712,4.2206,4.0411,3.8916,0.0,0.0,0.0,0.0,0.0,0.0,0.0,0.0,0.0,0.0,0.0,0.0,0.0,0.0,0.0,0.0,0.0,0.0,0.0,0.0,0.0,0.0,0.0,0.0,0.0,0.0,0.0,0.0,0.0,0.0,0.0,0.0,0.0,0.0,0.0,0.0,0.0,4.5354,4.7514,0.0,4.6548,4.7376,4.81,4.8341,5.0651,5.2754,5.4287,5.6012,5.7771,5.9599,6.0634,6.1427,6.1944,6.322,6.3738,6.3496,6.4289,6.4688,6.4688,6.4688,6.4826,6.5067,6.4791,6.455,6.4117,6.222,5.915,5.5598,5.5529,5.4685,5.3685,5.4494,5.5081,5.5513,0.0,0.0,0.0,0.0,0.0,0.0,0.0,0.0,2.8001,2.867,3.0317,3.243,3.4983,3.7502,3.971,4.1457,4.209,4.1642,3.9848,3.8778,3.7433,3.5639,3.5604,3.657,3.8617,4.0365,4.2504,4.5092,4.6872,4.8376,4.9582,5.0375,5.1134,5.1873,5.1873,5.172,5.141,4.9631,4.6975,4.3815,4.2309,4.1055,3.9917,0.0,0.0,0.0,0.0,0.0,0.0,0.0,0.0,0.0,0.0,0.0,0.0,0.0,0.0,0.0,0.0,0.0,0.0,0.0,0.0,0.0,0.0,0.0,0.0,0.0,0.0,0.0,0.0,0.0,0.0,0.0,0.0,0.0,0.0,4.7148,4.9134,4.8893,5.1548,5.2686,5.0893,5.1892,5.2754,5.2996,5.5391,5.746,5.9012,6.053,6.2048,6.3618,6.4358,6.4738,6.4738,6.6033,6.6359,6.5842,6.6393,6.6654,6.6654,6.6378,6.6413,6.6654,6.6378,6.6275,6.624,6.5723,6.3082,5.9426,5.915,5.8099,5.6823,5.7667,5.8254,5.8702,0.0,0.0,0.0,0.0,0.0,0.0,0.0,2.8047,2.8807,2.9437,3.1524,3.4111,3.7202,4.0193,4.2906,4.519,4.4057,4.2861,4.2056,3.9227,3.7226,3.649,3.7881,3.9434,4.0998,4.3207,4.5126,4.672,4.8927,5.041,5.1203,5.1892,5.2686,5.346,5.346,5.3873,5.4494,5.377,5.0444,4.5535,4.3988,4.331,4.293,0.0,0.0,0.0,0.0,0.0,0.0,0.0,0.0,0.0,0.0,0.0,0.0,0.0,0.0,0.0,0.0,0.0,0.0,0.0,0.0,0.0,0.0,0.0,0.0,0.0,0.0,0.0,0.0,0.0,0.0,0.0,0.0,0.0,4.6893,4.9996,5.2099,5.1444,5.5306,5.715,5.4977,5.8116,5.9944,5.9202,6.0565,6.2117,6.3653,6.3738,6.4446,6.593,6.6654,6.7014,6.7014,6.7738,6.8083,6.8083,6.8083,6.8083,6.8083,6.7359,6.7428,6.8049,6.7325,6.7014,6.7014,6.7014,6.6117,6.4565,6.2324,6.0496,5.9237,6.0013,6.0289,6.0358,0.0,0.0,0.0,0.0,0.0,0.0,0.0,2.8288,2.8927,3.0188,3.2352,3.4914,3.7985,4.0503,4.2906,4.519,4.4057,4.2861,4.2056,4.0193,3.9261,3.9606,4.002,4.1504,4.41,4.479,4.641,4.9065,4.9686,5.0942,5.277,5.2977,5.3754,5.4996,5.4996,5.5099,5.5272,5.5065,5.3823,5.1686,4.7976,4.5803,4.4514,0.0,0.0,0.0,0.0,0.0,0.0,0.0,0.0,0.0,0.0,0.0,0.0,0.0,0.0,0.0,0.0,0.0,0.0,0.0,0.0,0.0,0.0,0.0,0.0,0.0,0.0,0.0,0.0,0.0,0.0,0.0,5.0927,5.2168,5.0858,5.3479,5.6081,5.7529,5.9288,6.0358,6.0289,6.1254,6.1979,6.2324,6.3772,6.5067,6.6014,6.6566,6.7049,6.7463,6.7669,6.7807,6.7807,6.798,6.8083,6.8083,6.8083,6.8083,6.8083,6.7876,6.7911,6.8083,6.7876,6.7807,6.7807,6.7807,6.7221,6.6255,6.5102,6.3669,6.2358,6.2565,6.2324,6.1979,0.0,0.0,0.0,0.0,0.0,0.0,0.0,2.8661,2.9317,3.0533,3.3224,3.5949,3.833,4.1193,4.363,4.5259,4.4057,4.2723,4.1607,4.04,4.0193,4.1297,4.2297,4.3906,4.6307,4.7293,4.8824,5.0927,5.1858,5.303,5.4356,5.4977,5.5908,5.7081,5.7391,5.7685,5.7961,5.7651,5.7288,5.6598,5.3306,5.0686,4.8479,4.5824,4.4596,4.3975,4.2263,4.2194,4.2642,4.0676,0.0,0.0,0.0,0.0,0.0,0.0,0.0,0.0,0.0,0.0,0.0,0.0,0.0,0.0,0.0,0.0,0.0,0.0,0.0,0.0,0.0,0.0,0.0,0.0,5.4616,5.6513,5.6943,5.853,6.0254,6.1875,6.3013,6.3876,6.4343,6.4634,6.5014,6.5462,6.6324,6.7172,6.7931,6.8049,6.8256,6.8566,6.829,6.8083,6.8083,6.8083,6.8256,6.8621,6.8256,6.8428,6.9049,6.8394,6.829,6.8586,6.8256,6.8083,6.8083,6.8083,6.7842,0.0,0.0,0.0,0.0,0.0,6.4308,6.3929,0.0,0.0,0.0,0.0,0.0,0.0,0.0,2.91,2.9877,3.0705,3.3938,3.6732,3.8192,4.1607,4.416,4.5065,4.3749,4.2338,4.1128,4.0412,4.0792,4.2533,4.4656,4.6535,4.8169,5.0272,5.1755,5.2582,5.4685,5.5823,5.603,5.7495,5.8564,5.9375,6.0013,6.0703,6.1254,6.0599,6.0323,6.0185,5.884,5.6495,5.346,5.0548,4.941,4.8927,4.5989,4.5057,4.4919,4.3229,0.0,0.0,0.0,0.0,0.0,0.0,0.0,0.0,0.0,0.0,0.0,0.0,0.0,0.0,0.0,0.0,0.0,0.0,0.0,0.0,0.0,0.0,0.0,0.0,5.8099,6.0703,6.3669,6.4186,6.4427,6.491,6.6221,6.7152,6.7275,6.7911,6.8325,6.8221,6.829,6.8621,6.9138,6.8635,0.0,0.0,0.0,6.8359,6.8359,6.8359,6.8724,6.9414,6.8704,6.9084,7.0346,6.898,6.8704,6.9276,6.8635,6.829,6.8221,6.8221,6.8212,6.8152,6.7329,6.662,6.5999,6.593,6.5895,6.5792,0.0,0.0,0.0,0.0,0.0,0.0,0.0,2.9655,3.0322,3.1422,3.381,3.5732,3.6663,3.9043,4.14,4.3436,4.194,4.1172,4.1899,4.2057,4.3349,4.616,4.7482,4.912,5.1272,5.2375,5.3632,5.4927,5.6046,5.7185,5.834,5.9323,6.0151,6.0875,6.1013,6.1185,6.1289,6.1151,6.1082,6.1047,6.0771,5.884,5.5943,5.4099,5.303,5.2168,4.9769,4.9666,5.0237,4.7514,4.732,4.7907,4.6079,4.454,0.0,0.0,0.0,0.0,0.0,0.0,0.0,0.0,0.0,0.0,0.0,0.0,0.0,0.0,0.0,0.0,0.0,0.0,0.0,5.8875,6.1737,6.4462,6.6876,6.7793,6.7793,6.6669,6.7325,6.8118,6.8793,6.9518,6.9725,6.9104,6.9621,6.9463,6.8394,6.936,6.9759,6.9311,6.9725,6.9966,6.9966,6.9966,7.0035,7.0208,7.0035,0.0,7.038,7.0104,6.9725,6.9311,6.9759,6.9621,6.9069,6.9069,6.9029,6.8868,6.7527,6.693,6.6723,6.6137,6.5895,6.5895,0.0,0.0,0.0,0.0,0.0,0.0,0.0,3.0269,3.1075,3.17,3.3763,3.5521,3.6496,3.8468,4.0324,4.1912,4.0852,4.0699,4.2175,4.3475,4.5433,4.8172,5.0299,5.1955,5.3187,5.5131,5.6539,5.7306,5.8495,5.9426,6.0185,6.0978,6.1737,6.2461,6.2841,6.322,6.36,6.36,6.36,6.36,6.36,6.2703,6.1047,5.8357,5.6874,5.5977,5.408,5.3873,5.4099,5.1444,5.0789,5.0755,4.8893,4.7251,4.5699,0.0,0.0,0.0,0.0,0.0,0.0,0.0,0.0,0.0,0.0,0.0,0.0,0.0,0.0,5.3046,5.3804,0.0,5.9357,6.2013,6.4358,6.6497,6.8448,6.938,6.9449,6.831,6.8808,6.9414,6.9828,7.0173,7.0242,6.9897,7.0208,7.007,6.9291,7.0001,7.041,7.043,7.0798,7.1167,7.1555,7.1555,7.1766,7.2152,7.1731,7.2152,7.3261,7.2082,7.1996,7.2772,7.1926,7.1574,7.1542,7.0731,7.0372,7.0238,6.9083,6.8656,6.8621,6.8235,6.8095,6.8042,0.0,0.0,0.0,0.0,0.0,0.0,0.0,3.0747,3.1709,3.1797,3.3609,3.5244,3.6121,3.7755,3.9158,4.0058,4.034,4.1046,4.2456,4.4749,4.712,4.9543,5.2327,5.4125,5.4824,5.7362,5.8918,5.9424,6.0842,6.1599,6.1772,6.2583,6.3342,6.4048,6.4669,6.529,6.5895,6.5895,6.5895,6.5895,6.5895,6.5895,6.555,6.2461,6.0703,5.9633,5.7702,5.6909,5.646,5.4322,5.3168,5.2444,5.1237,4.9927,4.8341,4.5885,4.5389,0.0,0.0,0.0,0.0,0.0,0.0,0.0,0.0,5.0134,5.1168,5.3306,5.4961,5.6564,5.8254,6.0082,6.2082,6.4531,6.6359,6.792,6.9342,7.0136,7.0502,7.0238,7.0445,7.0717,7.1018,7.1073,7.1085,7.1072,7.1196,7.1161,7.0848,7.1265,7.1706,7.2028,7.2489,7.2929,7.3387,7.3529,7.3922,7.4583,7.3922,7.4601,7.6351,7.4315,7.4369,7.5959,7.3869,7.3297,7.3797,7.2508,7.1933,7.1862,7.1209,7.1043,7.1118,7.0509,7.03,7.0229,0.0,0.0,0.0,0.0,0.0,0.0,0.0,0.0,3.1661,3.1797,3.316,3.4054,3.3819,3.4872,3.6085,3.7233,4.0492,4.2712,4.333,4.5843,4.8414,5.088,5.2342,5.438,5.7049,5.772,5.895,6.0873,6.1883,6.2703,6.3358,6.4117,6.4876,6.5654,6.5723,6.5826,6.5895,6.5895,6.5895,6.5895,6.5895,6.5895,6.5861,6.5447,6.4377,6.2634,5.9047,5.7357,5.6564,5.4943,5.4322,5.4203,5.403,5.3425,5.2168,4.9169,4.7445,4.5975,4.3677,4.4147,4.5927,4.87,4.9962,5.1686,0.0,5.684,5.7357,5.8978,6.053,6.1461,6.1013,6.3289,6.5378,6.5723,6.762,6.9347,7.017,7.0898,7.1882,7.3239,7.2224,7.191,7.3267,7.3416,7.3447,7.349,7.4132,7.3882,7.2531,7.4417,7.4952,7.3672,7.565,7.6436,7.5797,7.6529,7.6922,7.6993,7.6922,7.6993,7.7243,7.6243,7.5601,7.5173,7.4208,7.3797,7.3886,7.3649,7.3553,7.3543,7.3398,7.3756,7.4044,7.1325,7.03,7.03,0.0,0.0,0.0,0.0,0.0,0.0,0.0,0.0,0.0,3.1832,3.2676,3.3407,3.3719,3.5398,3.6687,3.72,4.0067,4.2683,4.4773,4.6805,4.9481,5.2908,5.446,5.5887,5.734,5.9669,6.0991,6.1206,6.2892,6.3916,6.4255,6.4565,6.5359,6.6551,6.6551,6.6792,6.7187,6.7187,6.7187,6.7187,6.7187,6.7187,6.7034,6.5704,6.4274,6.2565,5.9599,5.7805,0.0,5.4529,5.4149,5.4478,5.4478,5.3651,5.2203,4.9582,4.8376,4.7686,4.6734,4.7548,4.9134,5.0858,5.2858,5.515,5.7943,5.8944,5.9806,6.1772,6.3756,6.5014,6.4669,6.6758,6.8379,6.7965,6.9782,7.1396,7.1709,7.2369,7.3237,7.4366,7.3104,7.2771,7.4331,7.4511,7.4518,7.4528,7.5243,7.5225,7.4154,7.5905,7.6624,7.6009,7.7378,7.8149,7.8291,7.8618,7.8799,7.8816,7.8327,7.8327,7.8727,7.7439,7.6677,7.6366,7.6023,7.5624,7.5112,7.4129,7.3742,7.3678,7.3201,7.3193,7.345,7.3104,7.2973,7.2973,0.0,0.0,0.0,0.0,0.0,0.0,0.0,0.0,0.0,0.0,3.2453,3.3049,3.3717,3.5816,3.7162,3.7162,3.9386,4.1956,4.4745,4.7058,4.9848,5.3261,5.544,5.6964,5.7806,6.083,6.2205,6.1813,6.3862,6.4936,6.5014,6.5204,6.6016,6.729,6.729,6.7601,6.8083,6.8083,6.8083,6.8083,6.8083,6.7842,6.7256,6.5186,6.3082,6.0944,5.8823,5.6961,5.5219,5.3149,5.2839,5.3272,5.3479,5.2927,5.1789,4.972,4.8824,4.8548,4.8741,5.0237,5.1996,5.3168,5.5943,5.8771,6.0306,6.153,6.291,6.4791,6.6482,6.7713,6.7912,6.9129,7.004,6.9912,7.1498,7.2778,7.2985,7.3456,7.4065,7.4793,7.3738,7.3542,7.5149,7.5118,7.5191,7.5581,7.6408,7.6623,7.61,7.7559,7.8311,7.8135,7.908,7.9679,7.9816,8.0036,8.0036,7.9779,7.9229,7.9229,7.9743,7.806,7.7179,7.6959,7.6959,7.6628,7.5983,7.4588,7.4147,7.4258,7.323,7.3083,7.3597,7.4536,7.4757,7.4588,0.0,0.0,0.0,0.0,0.0,0.0,0.0,0.0,0.0,0.0,0.0,0.0,0.0,3.5126,3.6347,3.6347,3.855,4.0634,4.2286,4.6094,4.9067,5.0839,5.4113,5.6928,5.91,6.0331,6.1685,6.3146,6.4777,6.5683,6.588,6.6521,6.725,6.8049,6.8049,6.8083,6.8083,6.8083,6.8083,6.8083,6.8083,6.7221,6.5792,6.422,6.1289,5.7823,5.6271,5.4237,5.2099,5.0617,5.0114,5.0252,5.0962,5.1651,5.1927,5.041,4.8893,4.7893,4.8617,5.103,5.3873,5.6115,5.953,6.2721,6.4186,6.6255,6.8083,6.8966,6.9173,6.9446,7.0151,6.9706,6.9736,7.1196,7.2156,7.2954,7.3645,7.379,7.4075,7.4802,7.4238,7.4349,7.5935,7.5418,7.5616,7.7107,7.805,7.8526,7.849,8.003,8.0523,7.9748,8.1289,8.1362,7.9816,8.0571,8.0571,7.9816,7.9779,7.9779,7.9743,7.806,7.6885,7.613,7.613,7.613,7.6056,7.5197,7.5307,7.5873,7.4258,7.4625,7.5909,7.516,7.4404,7.3744,0.0,0.0,0.0,0.0,0.0,0.0,0.0,0.0,0.0,0.0,0.0,0.0,0.0,0.0,0.0,0.0,3.8028,4.001,4.2176,4.5581,4.826,4.9931,5.3661,5.6123,5.6976,5.9874,6.1195,6.0882,6.3025,6.3882,6.345,6.3813,6.4375,6.5117,6.5635,6.5842,6.5876,6.6393,6.6654,6.6551,6.555,6.4807,6.3998,6.0427,5.7667,5.5237,0.0,5.0617,4.972,4.8238,4.8065,4.8582,4.9341,4.941,4.9203,4.9203,4.9203,4.9824,5.2582,5.5168,5.7909,6.122,6.3772,6.6033,6.8014,6.8724,6.8966,6.9242,6.8366,6.7513,6.7282,6.8223,6.9068,6.9059,7.1962,7.411,7.3852,7.4208,7.4436,7.4125,7.3881,7.4165,7.5182,7.5565,7.6178,7.7237,7.8589,7.9412,7.9412,8.0901,8.1672,8.1395,8.1415,8.1158,8.0608,8.0351,8.0073,7.9779,7.8662,7.7855,7.7341,7.6754,7.635,7.6056,7.5542,7.5616,7.5983,7.4661,7.4588,7.5212,7.4111,7.4368,7.5197,7.4404,7.4625,7.5285,0.0,0.0,0.0,0.0,0.0,0.0,0.0,0.0,0.0,0.0,0.0,0.0,0.0,0.0,0.0,0.0,0.0,3.9056,4.0891,4.4039,4.6287,4.7361,5.1289,5.3514,5.3631,5.6907,5.8226,5.7463,5.9665,6.0374,5.9701,6.049,6.1224,6.1979,6.2737,6.3255,6.3496,6.3738,6.3703,6.3324,6.2048,6.0909,5.9599,5.6391,5.3873,0.0,4.8996,4.7824,4.7431,4.6479,4.6479,4.6948,4.7431,4.781,4.8238,4.8996,5.0548,5.272,5.5927,5.8685,6.1496,6.5048,6.6669,6.794,6.9946,7.0025,6.9539,6.8983,6.7926,6.6778,6.5773,6.6522,6.7307,6.7322,7.0185,7.2403,7.2475,7.3388,7.3964,7.3722,7.3722,7.4111,7.5212,7.5542,7.6114,7.7215,7.8846,7.9816,7.9816,8.1321,8.2186,8.2186,8.1415,8.0865,8.0571,7.9764,7.9213,7.8883,7.7803,7.6885,7.6093,7.5799,7.5506,7.5212,7.4992,7.5197,7.5616,7.4882,7.4845,7.5249,7.4441,7.4625,7.5234,7.4441,7.5139,7.6497,0.0,0.0,0.0,0.0,0.0,0.0,0.0,0.0,0.0,0.0,0.0,0.0,0.0,0.0,0.0,0.0,0.0,0.0,3.8556,4.1654,4.3433,4.3396,4.7324,4.95,4.9454,5.1867,5.3164,5.3279,5.5051,5.5591,5.4979,5.6646,5.7844,5.8582,5.9392,6.0116,6.0737,6.0082,5.9357,5.8582,5.7789,5.5805,5.3184,5.2272,5.0168,4.7582,4.6824,4.6065,4.5397,4.5397,4.5466,4.5535,4.5569,4.7121,4.91,5.008,5.2961,5.634,5.872,6.1565,6.4619,6.759,6.8281,6.8669,7.0192,7.0431,6.9904,6.8342,6.7761,6.7061,6.5665,6.4759,6.4746,6.6273,6.737,6.8582,7.0073,7.1688,7.2936,7.3611,7.378,7.4404,7.5909,7.5417,7.5674,7.7252,7.8883,7.9816,7.9816,8.1321,8.2186,8.215,8.1379,8.0534,7.9743,7.8919,7.8112,7.7289,7.7215,7.6775,7.6019,7.5197,7.4441,7.378,7.4588,7.494,7.5087,7.5799,7.613,7.6093,7.527,7.5454,7.6056,7.527,7.5968,7.7179,0.0,0.0,0.0,0.0,0.0,0.0,0.0,0.0,0.0,0.0,0.0,0.0,0.0,0.0,0.0,0.0,0.0,0.0,3.7366,4.0667,4.2323,4.1727,4.6177,4.8343,4.7746,5.0729,5.2014,5.1454,5.262,5.2653,5.1651,5.2177,5.2384,5.2321,5.308,5.3513,5.372,5.4099,5.4134,5.3823,5.2513,5.1873,5.141,4.8962,4.7893,4.7514,4.6203,4.5569,4.5397,4.5397,4.6155,4.7203,4.7741,4.9134,5.1099,5.4184,5.6943,5.9771,6.3186,6.5964,6.8433,7.09,7.107,7.0893,7.1816,7.0665,6.8908,6.7313,6.5021,6.3192,6.2774,6.3975,6.5324,6.6339,7.0183,7.301,7.2789,7.4184,7.4808,7.3817,7.4771,7.5395,7.5197,7.6114,7.7142,7.8185,7.9213,7.9816,7.9816,8.1321,8.1929,8.1342,8.0534,7.9743,7.8919,7.806,7.7509,7.7289,7.6078,7.538,7.516,7.4368,7.4221,7.461,7.4793,7.5564,7.6665,7.6276,7.6445,7.6922,7.613,7.6313,7.6885,7.6078,7.6408,7.7289,0.0,0.0,0.0,0.0,0.0,0.0,0.0,0.0,0.0,0.0,0.0,0.0,0.0,0.0,0.0,0.0,0.0,0.0,0.0,3.8483,3.9826,4.0023,4.28,4.4154,4.3679,4.5993,4.7093,4.6803,4.7134,4.7115,4.6785,4.6833,4.7072,4.7527,4.8272,4.8962,4.9617,4.9686,4.9548,0.0,0.0,4.732,4.701,4.5975,4.563,4.5699,4.5479,4.5845,4.65,4.7203,4.7996,4.9065,5.1134,5.2823,5.477,5.8288,6.0927,6.3411,6.6551,6.8552,7.0341,7.2621,7.2095,7.1093,7.1418,6.9934,6.7729,6.5079,6.3038,6.1399,6.0408,6.1813,6.3417,6.4237,6.7907,7.1027,7.1982,7.3523,7.4588,7.4735,7.5542,7.6203,7.6497,7.6995,7.7803,7.9029,7.9559,7.9963,8.0314,8.1525,8.2003,8.1525,8.0388,7.9229,7.8023,7.7546,7.7289,7.7289,7.6371,7.5564,7.4867,7.4441,7.4111,7.3876,7.4573,7.5417,7.6261,7.6518,7.6665,7.6775,7.6665,7.6665,7.6775,7.6665,7.6922,7.7289,0.0,0.0,0.0,0.0,0.0,0.0,0.0,0.0,0.0,0.0,0.0,0.0,0.0,0.0,0.0,0.0,0.0,0.0,0.0,0.0,3.7043,3.8496,3.8972,3.9217,3.9217,4.0345,4.1119,4.1442,4.1056,4.1186,4.1792,4.1683,4.2324,4.3586,4.4307,4.541,4.6583,4.6079,4.5445,4.4755,4.4126,4.3091,4.2159,0.0,4.3828,4.3517,4.4893,4.6259,4.772,4.9755,5.0597,5.1375,5.503,5.734,5.9254,6.2324,6.4722,6.6846,6.914,7.0266,7.1373,7.3581,7.2312,7.0469,7.0173,6.8672,6.6221,6.2477,6.1489,6.0689,5.8754,5.9578,6.0933,6.2071,6.431,6.7026,7.0146,7.1945,7.3707,7.5689,7.613,7.6827,7.8295,7.7839,7.817,7.9853,7.9963,8.022,8.0828,8.1599,8.1929,8.1709,8.0241,7.8772,7.7326,7.7289,7.7289,7.7289,7.7179,7.6335,7.4903,7.4793,7.3986,7.2753,7.4133,7.4867,7.516,7.6445,7.6702,7.6313,7.6922,7.6775,7.635,7.7032,7.7289,7.7289,0.0,0.0,0.0,0.0,0.0,0.0,0.0,0.0,0.0,0.0,3.1864,0.0,0.0,0.0,0.0,0.0,0.0,0.0,0.0,0.0,0.0,3.7667,3.842,3.8796,3.8796,3.9659,4.0125,4.0212,4.0126,4.0008,3.9809,3.9792,3.9711,3.9606,4.0353,4.0836,4.1112,4.1676,4.1814,4.1676,4.155,4.1676,4.209,4.3034,0.0,0.0,4.51,4.5569,4.65,5.1237,5.3616,5.5168,5.8392,6.0875,6.322,6.6221,6.7896,6.9194,7.1501,7.2656,7.3604,7.5334,7.3452,7.0963,7.0281,6.7305,6.3972,6.1226,6.009,5.9503,5.9102,6.0322,6.2328,6.5191,6.7687,7.0146,7.2716,7.4441,7.5395,7.5124,7.6261,7.7215,7.7509,7.8023,7.9066,8.0681,8.0791,8.0571,8.0036,8.0755,8.0608,7.925,7.8243,7.7582,7.7289,7.7289,7.7289,7.7289,7.6628,7.5821,7.4867,7.4221,7.3744,7.3487,7.378,7.4661,7.5873,7.5491,7.6004,7.7032,7.6533,7.6628,7.7105,7.7252,7.7289,7.7289,0.0,0.0,0.0,0.0,0.0,0.0,0.0,0.0,0.0,3.1662,3.18,3.18,0.0,0.0,0.0,0.0,0.0,0.0,0.0,0.0,0.0,0.0,3.7472,3.7758,3.7758,3.8358,3.8759,3.8947,0.0,3.8439,3.8651,3.8028,3.7821,3.8054,3.8813,3.933,3.9733,4.0572,4.0894,4.0894,4.0894,4.109,4.155,0.0,0.0,0.0,4.5259,4.5914,4.71,5.0479,5.341,5.6409,6.1082,6.3841,6.5895,6.8497,6.9587,7.0289,7.2169,7.3238,7.3986,7.4762,7.2798,7.0138,6.8087,6.5118,6.201,5.9134,5.8535,5.8572,5.8572,5.9905,6.163,6.3613,6.5632,6.8238,7.1945,7.2753,7.3597,7.5322,7.6203,7.6995,7.7876,7.8736,7.9874,8.1489,8.1636,8.1452,8.1064,8.1012,8.0461,7.9265,7.8405,7.7766,7.7289,7.6885,7.6885,7.7289,7.6041,7.527,7.4867,7.4074,7.345,7.3083,7.3523,7.4162,7.4845,7.4882,7.5344,7.6041,7.6093,7.635,7.6738,7.7142,7.7289,7.7289,0.0,0.0,0.0,0.0,0.0,0.0,0.0,2.948,3.0032,3.1602,3.18,3.18,3.18,3.18,3.18,0.0,0.0,0.0,0.0,0.0,0.0,0.0,0.0,0.0,3.6761,0.0,0.0,3.7701,3.7086,0.0,0.0,0.0,0.0,0.0,3.8261,3.902,3.9733,4.0572,4.0894,0.0,0.0,4.0894,4.1067,0.0,0.0,0.0,0.0,4.619,4.7479,4.9375,5.2065,5.5582,6.1047,6.4462,6.6876,6.8862,6.9897,7.0772,7.249,7.3372,7.3861,7.4226,7.1919,6.8817,6.595,6.2989,6.0052,5.7361,5.7299,5.7813,5.796,5.9024,6.0272,6.141,6.2842,6.5521,7.0353,7.066,7.1798,7.5652,7.6093,7.6754,7.8442,7.9339,8.0404,8.1819,8.2113,8.2113,8.1929,8.1195,8.0461,7.9816,7.9029,7.8259,7.7582,7.6775,7.6607,7.7032,7.5747,7.4977,7.4625,7.4001,7.3266,7.2532,7.3156,7.3634,7.4001,7.4441,7.494,7.5454,7.5909,7.6203,7.6423,7.7069,7.7289,7.7289,0.0,0.0,0.0,0.0,0.0,0.0,0.0,2.948,3.0032,3.1602,3.18,3.18,3.18,3.18,3.18,0.0,0.0,0.0,0.0,0.0,0.0,0.0,0.0,0.0,0.0,0.0,0.0,3.645,3.6381,0.0,0.0,0.0,0.0,0.0,0.0,3.902,3.9733,4.0572,0.0,0.0,0.0,0.0,0.0,0.0,0.0,0.0,0.0,4.55,4.6052,4.8996,5.0651,5.2099,5.5409,6.0358,6.5083,6.6033,6.8241,7.0897,7.316,7.3791,7.4147,7.5532,7.1851,6.7461,6.5693,6.1704,5.8033,5.6994,5.6847,5.7152,5.7886,5.8107,5.8951,6.1227,6.2328,6.4628,6.9522,7.077,7.2408,7.5726,7.6093,7.6754,7.8442,7.9339,8.0183,8.1048,8.1782,8.1893,8.1158,8.0367,7.989,7.9816,7.9029,7.8552,7.8479,7.7619,7.6848,7.6203,7.6056,7.5212,7.3832,7.3722,7.3266,7.2496,7.2569,7.345,7.472,7.4074,7.5102,7.7032,7.635,7.6555,7.7215,7.7289,7.7289,7.7289,0.0,0.0,0.0,0.0,0.0,0.0,0.0,2.9213,2.9903,3.0972,3.1524,3.18,3.18,3.18,3.18,0.0,0.0,0.0,0.0,0.0,0.0,0.0,0.0,0.0,0.0,0.0,3.6284,3.6284,3.6284,0.0,0.0,0.0,0.0,0.0,0.0,3.8364,3.9089,3.9848,0.0,0.0,0.0,0.0,0.0,0.0,0.0,0.0,0.0,0.0,4.5604,4.6824,4.8031,4.9203,4.9927,5.341,5.8081,6.2549,6.5688,6.8412,7.1638,7.3479,7.4543,7.4691,7.0827,6.6409,6.427,6.0052,5.6466,5.6124,5.6455,5.7042,5.785,5.7997,5.829,5.9281,5.9685,6.1447,6.5865,6.6329,6.8114,7.334,7.3927,7.4955,7.7546,7.9029,8.033,8.1636,8.2003,8.2039,8.1746,8.0514,7.9816,7.9816,7.9029,7.8112,7.7121,7.6754,7.6151,7.5359,7.4404,7.3854,7.3685,7.3193,7.2789,7.2532,7.301,7.3597,7.4184,7.4368,7.527,7.6555,7.624,7.6607,7.7289,7.7289,7.7289,7.7289,0.0,0.0,0.0,0.0,0.0,0.0,2.8282,2.9041,2.9799,3.0602,3.1361,3.18,3.18,3.18,3.18,3.18,0.0,0.0,0.0,0.0,0.0,0.0,0.0,0.0,0.0,0.0,3.5973,3.5973,3.618,3.6284,0.0,0.0,3.6422,3.6674,0.0,0.0,0.0,0.0,0.0,0.0,0.0,0.0,0.0,0.0,0.0,0.0,0.0,0.0,0.0,0.0,0.0,4.6927,4.641,4.8238,5.1755,5.7978,6.2238,6.5691,6.9276,7.2081,7.3868,7.3523,6.9573,6.5198,6.2975,5.8694,5.5328,5.5548,5.6051,5.6748,5.7813,5.7997,5.7997,5.7997,5.8217,5.9685,6.3552,6.3576,6.5338,7.1101,7.1578,7.2775,7.6261,7.8736,8.0718,8.2076,8.2186,8.2113,8.1856,8.055,7.9926,8.0147,7.914,7.8038,7.6864,7.657,7.6056,7.5234,7.4111,7.3744,7.4037,7.3487,7.3215,7.3215,7.3817,7.4184,7.4441,7.5028,7.5711,7.6445,7.6445,7.6812,7.7289,7.7289,7.7289,7.7289,0.0,0.0,0.0,0.0,0.0,0.0,0.0,2.9041,2.9799,3.0602,3.1361,3.18,3.18,3.18,3.18,3.18,0.0,0.0,0.0,0.0,0.0,0.0,0.0,0.0,0.0,0.0,3.5214,3.5214,3.5939,3.6284,3.6284,3.6284,3.6708,3.7478,0.0,0.0,0.0,0.0,0.0,0.0,0.0,0.0,0.0,0.0,0.0,0.0,0.0,0.0,0.0,0.0,0.0,0.0,0.0,4.5996,4.7548,5.2149,5.7771,6.3203,6.6235,6.9247,7.1688,7.2358,6.8269,6.3685,6.1995,5.7886,5.462,5.5438,5.5622,5.6099,5.7703,5.7997,5.7997,5.7997,5.8682,6.0334,6.3662,6.4103,6.5608,6.9633,6.9412,7.0499,7.4536,7.8589,8.1342,8.215,8.2186,8.1856,8.1048,8.0257,8.0183,8.0975,7.9433,7.8589,7.8552,7.7729,7.6885,7.6093,7.6056,7.5652,7.4903,7.4867,7.4867,7.4867,7.4867,7.5344,7.6093,7.6093,7.6555,7.7289,7.7289,7.7289,7.7289,7.7289,7.7289,7.7289,0.0,0.0,0.0,0.0,0.0,0.0,0.0,2.8282,2.8834,2.9075,2.9765,3.0248,3.0248,3.0248,3.0455,3.1016,0.0,0.0,0.0,0.0,0.0,0.0,0.0,0.0,0.0,0.0,3.4707,3.519,3.5421,3.5801,3.6284,3.6284,3.6422,3.6674,3.6674,3.7122,0.0,0.0,0.0,0.0,0.0,0.0,4.0998,0.0,0.0,0.0,0.0,0.0,0.0,0.0,0.0,0.0,0.0,0.0,0.0,4.8169,5.2701,5.7772,6.1224,6.3966,6.6018,6.6601,6.374,6.048,5.9381,5.6271,5.3959,5.5328,5.5585,5.6099,5.7703,5.7997,5.7997,5.7997,5.8217,5.9134,6.1263,6.3038,6.5608,6.9596,7.3303,7.624,7.8075,7.991,8.1342,8.215,8.2186,8.1856,8.1048,8.0257,7.9669,7.936,7.8883,7.8038,7.69,7.7142,7.6628,7.527,7.527,7.516,7.4903,7.4903,7.4903,7.494,7.5469,7.5873,7.613,7.6702,7.7069,7.7289,7.7289,7.7289,7.7289,7.7289,7.7289,7.7289,0.0,0.0,0.0,0.0,0.0,0.0,0.0,2.7837,2.8319,2.8118,2.8836,2.9342,2.9342,2.9342,2.9695,3.0627,0.0,0.0,0.0,0.0,0.0,0.0,0.0,0.0,0.0,3.35,3.4017,3.4776,3.5042,3.5594,3.6284,3.6284,3.6284,3.6284,3.6284,3.6559,0.0,0.0,0.0,0.0,0.0,0.0,4.0998,0.0,0.0,0.0,0.0,0.0,0.0,0.0,0.0,0.0,0.0,0.0,0.0,0.0,4.8686,5.2498,5.6936,6.0238,6.2498,6.3014,6.0933,5.8535,5.774,5.5269,5.3654,5.5254,5.5585,5.6099,5.7703,5.7997,5.7997,5.7997,5.7997,5.8547,6.015,6.2254,6.5118,6.9155,7.4404,7.7855,7.8348,8.0241,8.1672,8.215,8.1929,8.1415,8.0571,7.9764,7.8956,7.8148,7.8112,7.7635,7.6555,7.7069,7.6812,7.5821,7.5821,7.5821,7.5821,7.5821,7.5821,7.5821,7.6335,7.6555,0.0,7.7105,7.7289,7.7289,7.7289,7.7289,7.7289,7.7289,7.7289,7.7289,0.0,0.0,0.0,0.0,0.0,0.0,0.0,0.0,0.0,0.0,2.8349,2.8925,2.8925,2.9011,2.9468,0.0,0.0,0.0,0.0,0.0,0.0,0.0,0.0,0.0,0.0,3.2455,3.3248,3.4086,3.4776,3.5525,3.6284,3.6284,3.6284,3.6284,3.6284,3.6284,0.0,0.0,0.0,0.0,0.0,0.0,0.0,0.0,0.0,0.0,0.0,0.0,0.0,0.0,0.0,0.0,0.0,0.0,0.0,0.0,0.0,0.0,0.0,5.7416,6.0275,6.0808,5.9294,5.7446,5.6701,5.4792,0.0,5.5254,5.5585,5.6099,5.7703,5.7997,5.7997,5.7997,5.8033,5.8621,6.0199,6.2022,6.4738,6.8738,7.3413,7.624,7.6203,7.9837,8.2186,8.2186,8.1452,8.0645,7.9853,7.9029,7.8222,7.7326,7.7289,7.7289,7.7289,7.7289,7.7289,7.7289,7.7289,7.7289,7.7289,7.7289,7.7289,7.7289,7.7289,7.7289,7.7289,7.7289,7.7289,7.7289,7.7289,7.7289,7.7289,7.7289,7.7289,7.7289,0.0,0.0,0.0,0.0,0.0,0.0,0.0,0.0,0.0,0.0,2.7063,2.7326,2.7326,2.8066,2.8904,0.0,0.0,0.0,0.0,0.0,0.0,0.0,0.0,0.0,0.0,3.1972,3.2741,3.4086,3.4259,3.5018,3.6284,3.6284,3.6284,3.6284,3.6284,3.6284,0.0,0.0,0.0,0.0,0.0,0.0,0.0,0.0,0.0,0.0,4.3815,4.4402,0.0,0.0,0.0,0.0,0.0,0.0,0.0,0.0,4.6376,4.783,4.9618,0.0,5.3135,5.429,5.4428,5.4278,0.0,5.3618,5.3654,5.5254,5.5585,5.6099,5.7703,5.7997,5.7997,5.7997,5.8499,5.9269,6.0272,6.4481,6.8752,7.2165,7.5799,7.7745,7.7069,8.0167,8.2186,8.2186,8.1452,8.0645,7.9853,7.9029,7.8222,7.7326,7.7289,7.7289,7.7289,7.7289,7.7289,7.7289,7.7289,7.7289,7.7289,7.7289,7.7289,7.7289,7.7289,7.7289,7.7289,7.7289,7.7289,7.7289,7.7289,7.7289,7.7289,7.7289,7.7289,7.7289,0.0,0.0,0.0,0.0,0.0,0.0,0.0,0.0,0.0,0.0,0.0,0.0,0.0,0.0,0.0,0.0,0.0,0.0,0.0,0.0,0.0,0.0,0.0,3.18,3.18,3.18,3.2568,3.4086,3.4086,3.4845,3.6284,3.6284,3.6284,3.6284,3.6284,3.6284,0.0,0.0,0.0,0.0,3.9503,0.0,0.0,0.0,0.0,0.0,4.3517,4.4229,0.0,4.5272,4.5397,4.5397,0.0,0.0,0.0,0.0,4.6272,4.7341,4.7956,4.9514,5.1189,5.2171,5.2794,5.3214,5.3214,5.3471,5.4106,5.5328,5.5879,5.6528,5.7776,5.7997,5.7997,5.7997,5.8682,5.9893,6.1814,6.5375,6.9119,7.2716,7.5359,7.7304,7.8369,8.0057,8.1232,8.1636,8.0571,7.9727,7.925,7.8479,7.7803,7.7326,7.7289,7.7289,7.7289,7.7289,7.7289,7.7289,7.7289,7.7289,7.7289,7.7289,7.7289,7.7289,7.7289,7.7289,7.7289,7.7289,7.7289,7.7289,7.7289,7.7289,7.7289,7.7289,7.7289,7.7273,0.0,0.0,0.0,0.0,0.0,0.0,0.0,0.0,0.0,0.0,0.0,0.0,0.0,0.0,0.0,0.0,0.0,0.0,0.0,0.0,0.0,0.0,0.0,3.1834,3.1972,3.1972,3.2731,3.4259,3.4259,3.5018,3.649,3.6353,3.6284,3.6284,3.6284,3.6284,0.0,0.0,0.0,0.0,3.8847,0.0,0.0,0.0,0.0,0.0,0.0,0.0,0.0,4.5363,4.5397,4.5397,4.5397,0.0,0.0,0.0,0.0,0.0,4.7623,4.978,5.1844,5.2209,5.2739,5.3214,5.3214,5.3801,5.462,5.5438,5.6235,5.7042,5.785,5.7997,5.7997,5.7997,5.8976,6.0994,6.4543,6.6182,6.8421,7.2055,7.4023,7.6166,7.8972,7.9596,8.0073,8.0755,7.9433,7.8589,7.8589,7.7766,7.7289,7.7289,7.7289,7.7289,7.7289,7.7289,7.7289,7.7289,7.7289,7.7289,7.7289,7.7289,7.7289,7.7289,7.7289,0.0,7.7289,7.7289,7.7289,7.7289,7.7289,7.7289,7.7289,7.7289,7.7289,7.7295,0.0,0.0,0.0,0.0,0.0,0.0,0.0,0.0,0.0,0.0,0.0,0.0,0.0,0.0,0.0,0.0,0.0,0.0,0.0,0.0,0.0,0.0,3.1635,3.2076,3.2731,3.2731,3.349,3.5018,3.5018,3.5811,3.7295,3.6628,3.6284,3.6284,3.6284,3.6284,3.6387,0.0,0.0,0.0,4.002,0.0,0.0,0.0,0.0,0.0,0.0,0.0,0.0,4.5203,4.5397,4.5397,4.5397,0.0,0.0,0.0,0.0,0.0,4.8203,5.0445,5.2472,5.1879,5.2454,5.3214,5.3214,5.3801,5.462,5.5438,5.6235,5.7042,5.785,5.7997,5.7997,5.7997,6.037,6.3857,6.8531,6.9376,7.0293,7.2275,7.4515,7.613,7.6607,7.8568,7.9853,7.9963,7.9103,7.8589,7.8589,7.7766,7.7289,7.7289,7.7289,7.7289,7.7289,7.7289,7.7289,7.7289,7.7289,7.7289,7.7289,7.7289,7.7289,7.7289,0.0,7.7289,7.7289,7.7289,7.7289,7.7289,7.7289,7.7289,7.7289,7.7289,7.7289,7.7243,0.0,0.0,0.0,0.0,0.0,0.0,0.0,0.0,0.0,0.0,0.0,0.0,0.0,0.0,0.0,0.0,0.0,0.0,0.0,0.0,0.0,3.1044,3.1361,3.1874,3.2628,3.2817,3.3662,3.519,3.519,3.5777,3.6846,3.6456,3.6284,3.6284,3.6284,3.6284,3.6387,3.7536,3.8226,0.0,0.0,0.0,0.0,0.0,0.0,0.0,0.0,0.0,0.0,0.0,4.5397,4.5397,4.5397,0.0,0.0,0.0,0.0,0.0,4.8343,5.0297,5.226,5.2581,5.3267,5.3838,5.3838,5.4473,5.5291,5.6088,5.6895,5.7556,5.7923,5.8694,5.9869,6.1667,6.3906,6.6219,6.8508,6.8802,6.9559,7.16,7.2812,7.4353,7.6518,7.7378,7.8201,7.9066,7.8369,7.7876,7.7876,7.7509,7.7289,7.7289,7.7289,7.7289,7.7289,7.7289,7.7289,7.7289,7.7289,7.7289,7.7289,7.7289,7.7289,7.7289,0.0,7.7289,7.7289,7.7289,7.7289,7.7289,7.7289,7.7289,7.7273,7.7233,7.7103,7.6993,0.0,0.0,0.0,0.0,0.0,0.0,0.0,0.0,0.0,0.0,0.0,0.0,0.0,0.0,0.0,0.0,0.0,0.0,0.0,0.0,3.1064,3.0814,3.1213,3.1821,3.2658,3.3,3.3938,3.5466,3.5466,3.5732,3.6284,3.649,3.649,3.6284,3.6284,3.6387,3.6628,3.7433,3.8192,0.0,0.0,0.0,0.0,0.0,0.0,0.0,0.0,0.0,0.0,0.0,0.0,0.0,0.0,0.0,0.0,4.5397,4.65,4.7851,4.8511,5.0244,5.2156,5.3239,5.3807,5.4326,5.506,5.5732,5.6503,5.7666,5.84,5.8804,5.8584,5.9869,6.1912,6.4811,6.6953,6.8398,6.8765,6.8839,6.9559,7.16,7.1857,7.3215,7.6665,7.646,7.6717,7.8185,7.7693,7.7289,7.7289,7.7289,7.7289,7.7289,7.7289,7.7289,7.7289,7.7289,7.7289,7.7289,7.7289,7.7289,7.7289,7.7289,7.7289,7.7289,7.7289,7.7289,7.7289,7.7289,7.7289,7.7289,7.7289,7.7289,7.7258,7.7155,7.6982,7.6769,0.0,0.0,0.0,0.0,0.0,0.0,0.0,0.0,0.0,0.0,0.0,0.0,0.0,0.0,0.0,0.0,0.0,0.0,0.0,0.0,3.0835,3.0804,3.1495,3.2365,3.3495,3.3834,3.4742,3.6215,3.6215,3.6249,3.6318,3.7053,3.7019,3.6284,3.6284,3.6697,3.7467,3.8226,3.8951,3.9698,4.0469,0.0,0.0,0.0,0.0,0.0,0.0,0.0,0.0,0.0,0.0,0.0,0.0,0.0,4.5397,4.5397,4.65,4.7946,4.8954,5.0935,5.2806,5.3127,5.3266,5.4058,5.7042,5.7776,5.8474,6.0786,6.1312,6.1117,6.0346,6.1545,6.3196,6.4995,6.7907,7.044,7.1945,7.2165,7.2496,7.3428,7.3538,7.4221,7.6019,7.613,7.646,7.7326,7.7362,7.7289,7.7289,7.7289,7.7289,7.7289,7.7289,7.7289,7.7289,7.7289,7.7289,7.7289,7.7289,7.7289,7.7289,7.7289,7.7289,7.7289,7.7289,7.7289,7.7289,7.7289,7.7289,7.7289,7.7289,7.7289,7.7258,7.7155,7.6982,7.6769,0.0,0.0,0.0,0.0,0.0,0.0,0.0,0.0,0.0,0.0,0.0,0.0,0.0,0.0,0.0,0.0,0.0,0.0,0.0,0.0,3.0414,3.0247,3.0658,3.165,3.3237,3.404,3.5042,3.6284,3.6284,3.6284,3.6318,3.6594,3.6846,3.7053,3.7053,3.7467,3.8226,3.8985,3.9468,3.9767,4.0572,0.0,0.0,0.0,0.0,0.0,0.0,0.0,0.0,0.0,4.5397,4.5397,4.5397,4.5397,4.5397,4.5397,4.6746,4.8356,4.9101,5.1239,5.3508,5.4466,5.4693,5.528,5.7483,5.8767,5.9758,6.0676,6.2071,6.3075,6.2768,6.442,6.6219,6.7343,7.022,7.2386,7.2496,7.2496,7.2606,7.2936,7.2936,7.3597,7.5212,7.5344,7.5894,7.7215,7.7289,7.7289,7.7289,7.7289,7.7289,7.7289,7.7289,7.7289,7.7289,7.7289,7.7289,7.7289,7.7289,7.7289,7.7289,7.7289,7.7289,7.7289,7.7289,7.7289,7.7289,7.7289,7.7289,7.7289,7.7289,7.7289,7.7258,7.7155,7.6982,7.6785,0.0,0.0,0.0,0.0,0.0,0.0,0.0,0.0,0.0,0.0,0.0,0.0,0.0,0.0,0.0,0.0,0.0,0.0,3.0182,3.0161,3.014,3.0022,3.0423,3.1426,3.3035,3.4077,3.5156,3.6284,3.6284,3.6284,3.6318,3.6559,3.6984,3.7502,3.7743,3.8261,3.8985,3.9503,3.9848,4.0158,4.0917,4.1538,0.0,0.0,0.0,0.0,0.0,0.0,0.0,0.0,4.5397,4.5397,4.5397,4.5397,4.5437,4.5585,4.7012,4.863,4.9353,5.132,5.355,5.4877,5.5611,5.6528,5.8657,5.9979,6.1227,6.2768,6.3833,6.4494,6.4494,6.6232,6.7884,6.8421,7.1431,7.3413,7.2606,7.2496,7.2496,7.2496,7.2496,7.3046,7.4404,7.4757,7.5454,7.6812,7.7179,7.7289,7.7289,7.7289,7.7289,7.7289,7.7289,7.7289,7.7289,7.7289,7.7289,7.7289,7.7289,7.7289,7.7289,7.7289,7.7289,7.7289,7.7289,7.7289,7.7289,7.7289,7.7289,7.731,7.7227,7.7243,7.7258,7.7029,7.6934,7.6866,0.0,0.0,0.0,0.0,0.0,0.0,0.0,0.0,0.0,0.0,0.0,0.0,0.0,0.0,0.0,0.0,0.0,0.0,2.9913,2.9891,3.0,3.0288,3.1001,3.1901,3.2981,3.4055,3.5179,3.6284,3.6284,3.6284,3.6318,3.7122,3.7502,3.7547,3.8295,3.902,3.9698,3.9698,4.0193,4.0963,4.1711,4.2021,4.2194,0.0,0.0,0.0,0.0,0.0,0.0,0.0,4.5397,4.5397,4.5397,4.5397,4.5515,4.6055,4.7317,4.8753,4.9758,5.1187,5.274,5.4096,5.5647,5.7703,6.0896,6.163,6.2989,6.7871,6.6976,6.5325,6.5325,6.6623,6.7737,6.7737,7.1078,7.3413,7.2606,7.2496,7.2496,7.2496,7.2496,7.2826,7.3611,7.4441,7.5234,7.6056,7.6848,7.7289,7.7289,7.7289,7.7289,7.7289,7.7289,7.7289,7.7289,7.7289,7.7289,7.7289,7.7289,7.7289,7.7289,7.7289,7.7289,7.7289,7.7289,7.7289,7.7289,7.7289,7.7289,7.731,7.7155,7.7186,7.7264,7.6757,7.6806,7.7045,0.0,0.0,0.0,0.0,0.0,0.0,0.0,0.0,0.0,0.0,0.0,0.0,0.0,0.0,0.0,0.0,0.0,0.0,2.9902,2.9891,2.9935,3.0033,3.0948,3.1847,3.2641,3.4464,3.5713,3.6284,3.6284,3.6284,3.6318,3.7122,3.7778,3.8295,3.9054,3.9813,4.0538,4.0538,4.0986,4.1676,4.1918,4.2642,4.369,0.0,0.0,0.0,0.0,0.0,0.0,0.0,0.0,0.0,4.5397,4.579,4.6358,4.6885,4.8367,4.997,5.0678,5.2728,5.4894,5.5871,5.7728,6.0052,6.2732,6.2879,6.3503,6.7283,6.7026,6.6476,6.76,6.8678,6.9389,6.9389,7.1321,7.2789,7.2532,7.2496,7.2496,7.2496,7.2496,7.2826,7.3611,7.4441,7.5234,7.6056,7.6848,7.7289,7.7289,7.7289,7.7289,7.7289,7.7289,7.7289,7.7289,7.6738,7.646,7.6445,7.5894,7.6188,7.7289,7.6702,7.6775,7.7289,7.6702,7.6775,7.7289,7.7289,7.7289,7.731,7.7279,7.7217,7.7155,7.6998,7.6934,7.6882,0.0,0.0,0.0,0.0,0.0,0.0,0.0,0.0,0.0,0.0,2.9891,0.0,0.0,0.0,0.0,0.0,0.0,0.0,0.0,2.9891,2.9891,2.9891,3.0893,3.2056,3.3306,3.4957,3.5952,3.6284,3.6284,3.6456,3.6801,3.7571,3.833,3.9089,3.9848,4.0434,4.0894,4.0894,4.1343,4.2021,4.2344,4.3207,4.4345,0.0,0.0,0.0,0.0,0.0,0.0,0.0,0.0,0.0,4.5397,4.5742,4.6329,4.7359,4.8756,5.0187,5.1227,5.3288,5.5475,5.6932,5.8841,6.1117,6.3943,6.5154,6.6352,6.8641,6.8495,6.8311,6.9619,7.0,7.0183,7.0513,7.1651,7.2496,7.2496,7.2496,7.2496,7.2496,7.2496,7.2679,7.3193,7.4258,7.5087,7.5579,7.6665,7.7289,7.7289,7.7289,7.7289,7.7289,7.6995,7.6812,7.6812,7.6041,7.5616,7.5616,7.5124,7.5417,7.6335,7.5821,7.5894,7.6335,7.5821,7.6078,7.6812,7.6787,7.6756,7.6778,7.693,7.7013,7.6982,7.6918,7.6918,7.695,0.0,0.0,0.0,0.0,0.0,0.0,0.0,0.0,0.0,0.0,2.9891,2.9891,0.0,0.0,0.0,0.0,0.0,0.0,0.0,0.0,2.9891,2.9891,3.0926,3.2496,3.4657,3.5437,3.5986,3.6422,3.6353,3.6697,3.7512,3.8261,3.902,3.9836,4.0572,4.0929,4.0998,4.0917,4.1378,4.2159,4.2896,4.369,4.4471,4.5134,0.0,0.0,0.0,0.0,0.0,0.0,0.0,0.0,4.5397,4.554,4.6022,4.7713,4.8864,4.997,5.172,5.3371,5.5207,5.7629,5.9612,6.1777,6.4921,6.8017,7.0403,7.105,7.0734,7.055,7.138,7.0881,7.055,7.1307,7.2004,7.2496,7.2496,7.2496,7.2496,7.2496,7.2496,7.2496,7.2496,7.3949,7.4903,7.4903,7.6335,7.7179,7.7179,7.7142,7.7069,7.7069,7.6387,7.5983,7.5983,7.5212,7.4793,7.4793,7.472,7.4683,7.4683,7.4757,7.4793,7.4793,7.4867,7.5307,7.5968,7.5837,7.5812,7.5854,7.6324,7.6567,7.668,7.6643,7.6806,7.7077,0.0,0.0,0.0,0.0,0.0,0.0,0.0,0.0,0.0,0.0,0.0,0.0,0.0,0.0,0.0,0.0,0.0,0.0,0.0,0.0,2.9891,2.9891,3.1428,3.3306,3.5494,3.572,3.6271,3.7226,3.6605,3.6697,3.7512,3.8261,3.933,4.0653,4.0825,4.1228,4.1711,4.1136,4.1688,4.2965,4.3138,4.3988,4.5169,4.5328,4.5397,0.0,0.0,0.0,0.0,0.0,0.0,0.0,4.5397,4.6521,4.7969,4.8793,5.0317,5.2059,5.3478,5.506,5.6847,5.9281,6.2548,6.5705,6.7687,6.9619,7.0903,7.044,7.1248,7.2239,7.3046,7.2532,7.2055,7.2202,7.2386,7.2496,7.2496,7.2496,7.2496,7.2496,7.2496,7.2496,7.2496,7.3949,7.4903,7.4903,7.5821,7.635,7.635,7.5747,7.5417,7.5417,7.5234,7.516,7.516,7.4368,7.3964,7.3927,7.3303,7.301,7.3046,7.367,7.3964,7.4001,7.461,7.5014,7.516,7.4995,7.497,7.5028,7.5593,7.5778,7.5807,7.6486,7.6785,7.6866,0.0,0.0,0.0,0.0,0.0,0.0,0.0,0.0,0.0,0.0,0.0,0.0,0.0,0.0,0.0,0.0,0.0,0.0,0.0,0.0,3.0249,3.111,3.2188,3.3739,3.5743,3.5952,3.6537,3.7502,3.7088,3.7467,3.8571,3.8951,3.9951,4.14,4.1055,4.1309,4.1952,4.1193,4.1792,4.3207,4.3207,4.4091,4.5397,4.5397,4.5397,4.5397,4.5397,0.0,0.0,0.0,0.0,0.0,0.0,0.0,4.7663,4.8936,5.0219,5.1687,5.384,5.5574,5.7655,6.1263,6.464,6.7393,6.8641,6.9853,7.0917,7.1651,7.2496,7.3083,7.312,7.3083,7.2936,7.2569,7.3156,7.3523,7.312,7.3413,7.3656,7.3656,7.3656,7.3656,7.3656,7.4771,7.5307,7.494,7.5652,7.5946,7.5542,7.5124,7.4903,7.4903,7.4551,7.4331,7.4331,7.3523,7.312,7.312,7.2716,7.2496,7.2496,7.2936,7.334,7.3722,7.3744,7.3905,7.4234,7.4047,7.4159,7.4504,7.5131,7.5596,7.6049,7.6591,7.685,7.6982,0.0,0.0,0.0,0.0,0.0,0.0,0.0,0.0,0.0,0.0,0.0,0.0,0.0,0.0,0.0,0.0,0.0,0.0,0.0,0.0,0.0,3.2439,3.3017,3.4082,3.5754,3.6251,3.6915,3.7685,3.7812,3.864,4.0077,3.9974,4.0745,4.2194,4.1573,4.1654,4.2159,4.1412,4.1895,4.3207,4.3207,4.4091,4.5397,4.5397,4.5397,4.5397,4.5397,4.5397,4.5397,4.5397,0.0,0.0,0.0,0.0,4.7258,4.8996,4.9989,5.1129,5.3679,5.5868,5.851,6.3001,6.5828,6.7687,6.8495,6.9522,7.0844,7.2679,7.3413,7.3523,7.301,7.345,7.3634,7.2826,7.3949,7.4661,7.4001,7.4478,7.483,7.472,7.483,7.4793,7.45,7.5359,7.5579,7.4757,7.5322,7.5395,7.472,7.4573,7.45,7.45,7.3854,7.3487,7.3487,7.2826,7.2422,7.2312,7.2312,7.2239,7.2092,7.2386,7.2863,7.345,7.2789,7.2798,7.3272,7.307,7.339,7.4054,7.4658,7.5505,7.6412,7.67,7.695,7.7124,0.0,0.0,0.0,0.0,0.0,0.0,0.0,0.0,0.0,0.0,2.9891,2.9891,0.0,0.0,0.0,0.0,0.0,0.0,2.9891,0.0,0.0,3.2439,3.3506,3.461,3.5777,3.6811,3.7709,3.8468,3.9089,4.0193,4.1676,4.1021,4.155,4.3034,4.293,4.293,4.3,4.2194,4.2378,4.3207,4.3207,4.4091,4.5397,4.5397,4.5397,4.5397,4.5397,4.5397,4.5397,4.5397,4.5858,0.0,0.0,0.0,4.9886,5.0174,5.1434,5.3004,5.4095,5.7116,6.0603,6.3405,6.5375,6.688,6.77,6.9559,7.1013,7.066,7.2253,7.3891,7.4463,7.4683,7.4478,7.367,7.4294,7.4867,7.4757,7.483,7.4647,7.3927,7.4478,7.4353,7.2973,7.4169,7.4735,7.3927,7.3964,7.3979,7.3854,7.3193,7.2826,7.2826,7.2716,7.2679,7.2679,7.2569,7.2165,7.1454,7.1454,7.1101,7.0477,7.1872,7.2569,7.2642,7.2569,7.2482,7.2446,7.2245,7.2552,7.3202,7.3825,7.4671,7.5649,7.6482,7.695,7.7124,0.0,0.0,0.0,0.0,0.0,0.0,0.0,0.0,0.0,0.0,0.0,2.9891,0.0,0.0,0.0,2.9891,2.9891,3.0075,3.0441,3.1315,3.2284,3.3406,3.4118,3.4963,3.606,3.7012,3.7847,3.8606,3.933,4.0503,4.1987,4.2137,4.2758,4.3793,4.3379,4.3414,4.3759,4.3,4.3138,4.3828,4.3828,4.4458,4.5397,4.5397,4.5397,4.5397,4.5397,4.5397,4.5466,4.5927,4.5996,4.61,4.6927,0.0,0.0,0.0,5.1407,5.3004,5.517,5.7691,6.0444,6.3368,6.4971,6.6145,6.7407,6.8862,7.0096,7.0646,7.1982,7.3156,7.3487,7.3927,7.4111,7.3758,7.4368,7.4903,7.4903,7.4903,7.4757,7.4404,7.5102,7.5139,7.3964,7.4882,7.5065,7.378,7.3722,7.3487,7.3046,7.2679,7.2312,7.1821,7.2275,7.2055,7.1174,7.1615,7.1417,7.0624,7.0624,7.044,7.011,7.0844,7.1394,7.1857,7.2226,7.2292,7.2129,7.1964,7.2314,7.3073,7.3808,7.4736,7.5776,7.6658,7.7092,7.7217,0.0,0.0,0.0,0.0,0.0,0.0,0.0,0.0,0.0,0.0,0.0,0.0,0.0,0.0,0.0,0.0,3.0431,3.0647,3.1131,3.2181,3.3204,3.4175,3.4888,3.57,3.6594,3.7571,3.833,3.8882,3.9641,4.0779,4.2332,4.293,4.369,4.4574,4.3988,4.3953,4.4276,4.3724,4.3793,4.4311,4.4311,4.4734,4.5397,4.5397,4.5397,4.5397,4.5397,4.5397,4.55,4.6341,4.6341,4.623,4.7726,4.8537,0.0,0.0,0.0,5.2931,5.5721,5.7508,5.9343,6.2401,6.3906,6.5068,6.6733,6.7871,6.9045,7.0646,7.1468,7.2018,7.2422,7.3303,7.3927,7.3722,7.4368,7.4903,7.4903,7.4903,7.483,7.4625,7.5322,7.5395,7.439,7.5028,7.4918,7.3487,7.3377,7.3046,7.2239,7.2202,7.1821,7.1013,7.1578,7.1321,7.011,7.0499,7.0389,6.9816,6.9816,6.9669,6.9486,6.9898,7.0384,7.0993,7.1699,7.1976,7.1927,7.1826,7.2258,7.2973,7.3654,7.4556,7.5541,7.6173,7.6486,7.6563,0.0,0.0,0.0,0.0,0.0,0.0,0.0,0.0,0.0,0.0,0.0,0.0,3.0775,3.0839,3.1131,3.1834,3.1898,3.1898,3.1951,3.2934,3.3723,3.4164,3.587,0.0,3.7433,3.8847,3.9595,3.9629,4.0434,4.1619,4.3138,4.3172,4.3988,4.5328,4.5294,4.4941,4.4311,4.4276,4.4276,4.4311,4.4311,4.4734,4.5397,4.5397,4.5397,4.5397,4.5397,4.5397,4.55,4.6341,4.7031,4.7817,4.9116,5.0397,5.1522,0.0,0.0,0.0,5.5218,5.6271,5.7508,5.9967,6.1765,6.338,6.5031,6.6623,6.8214,6.9816,7.0183,7.0697,7.2239,7.3766,7.4588,7.3817,7.4368,7.4903,7.4903,7.4903,7.4625,7.3854,7.4478,7.4353,7.2789,7.334,7.345,7.2642,7.2569,7.2202,7.1417,7.1344,7.0977,7.0183,7.0183,7.0183,7.011,6.9412,6.8995,6.8972,6.8972,6.8568,6.7884,6.9273,6.9949,7.0023,7.0799,7.1427,7.1816,7.1816,7.2159,7.2742,7.2973,7.3561,7.4299,7.4493,7.452,7.466,0.0,0.0,0.0,0.0,0.0,0.0,0.0,0.0,0.0,0.0,0.0,0.0,0.0,3.193,3.2017,3.229,3.2749,3.3127,3.3392,3.4409,3.5071,3.5204,3.6567,3.7347,3.7502,3.8951,3.9698,3.9698,4.0986,4.2137,4.3207,4.369,4.4436,4.5397,4.5397,4.5259,4.4996,4.4996,4.4996,4.5036,4.5373,4.5685,4.5917,4.5917,4.6094,4.6409,4.6615,4.6868,4.7341,4.86,4.8882,4.899,5.0442,5.1116,5.157,5.2615,5.3049,5.3544,5.5144,5.5805,5.6712,5.9685,6.0811,6.1692,6.3306,6.4567,6.5865,6.7467,6.8214,6.9059,7.066,7.1872,7.2812,7.356,7.3523,7.356,7.4074,7.3707,7.3266,7.2973,7.3634,7.3707,7.2606,7.323,7.3156,7.1821,7.1711,7.138,7.0587,7.055,7.0146,6.9376,6.9816,6.9853,6.9339,6.8531,6.8128,6.8128,6.8128,6.7994,6.77,6.8174,6.8562,6.896,6.9151,6.9922,7.1002,7.0946,7.1076,7.1397,7.1983,7.2767,7.3624,7.4197,7.441,7.4431,0.0,0.0,0.0,0.0,0.0,0.0,0.0,0.0,0.0,0.0,0.0,0.0,0.0,0.0,3.3149,3.3403,3.4099,3.4659,3.4924,3.5949,3.6571,3.6571,3.7635,3.8226,3.8226,3.9468,4.0089,4.0089,4.1366,4.2401,4.3207,4.3966,4.4699,4.5397,4.5397,4.5397,4.5397,4.5397,4.5397,4.545,4.5993,4.6356,4.6627,4.6775,4.7193,4.7724,4.7972,4.8222,4.8686,4.9984,5.0055,4.9925,5.1382,5.1859,5.2043,5.2946,5.3214,5.3471,5.484,5.5401,5.6172,5.8584,5.96,6.0334,6.1692,6.2879,6.4127,6.5778,6.6733,6.7811,6.9412,7.0132,7.1013,7.2642,7.2459,7.2275,7.2826,7.2422,7.2018,7.1725,7.2165,7.2275,7.1762,7.2422,7.2349,7.0977,7.116,7.083,6.9743,6.9706,6.9339,6.8531,6.9522,6.9596,6.8495,6.8238,6.7958,6.77,6.77,6.77,6.7687,6.7497,6.7783,6.8385,6.8218,6.8892,7.0105,7.0035,7.005,7.0229,7.109,7.1754,7.2345,7.3208,7.3484,7.3458,0.0,0.0,0.0,0.0,0.0,0.0,0.0,0.0,0.0,3.308,0.0,0.0,0.0,0.0,0.0,3.5236,3.5996,3.6444,3.6456,3.7518,3.8113,3.8113,3.9146,3.9698,3.9733,4.0503,4.0929,4.0963,4.1735,4.2494,4.3266,4.4004,4.4751,4.545,4.545,4.545,4.545,4.5423,4.541,4.5484,4.6065,4.6757,4.7487,4.7974,4.865,4.9341,4.9365,4.9365,4.9484,5.0211,5.0449,5.0712,5.2027,5.2783,5.3214,5.3214,5.3214,5.3398,0.0,0.0,0.0,5.659,5.7985,5.938,6.0162,6.1545,6.316,6.4811,6.5815,6.688,6.8458,6.8788,6.9325,7.0903,7.1233,7.127,7.127,7.127,7.0977,7.0183,7.011,7.011,7.011,7.0807,7.094,7.011,7.0793,7.0536,6.8958,6.8921,6.8568,6.7774,6.9242,6.9316,6.7737,6.8458,6.8458,6.77,6.77,6.77,6.7687,6.735,6.7597,6.8334,6.8064,6.8416,6.9119,6.9155,6.9155,6.9243,7.0193,7.0489,7.0511,7.1464,7.1672,7.1603,0.0,0.0,0.0,0.0,0.0,0.0,0.0,0.0,3.3172,0.0,0.0,0.0,3.6051,3.6683,3.7136,3.749,3.7601,3.768,3.7842,3.8243,3.8459,3.8459,3.9273,3.9974,4.0572,4.1297,4.1987,4.2551,4.3635,4.4292,4.4514,4.5646,4.6307,4.6507,4.6507,4.6507,4.6448,4.6107,4.61,4.6358,4.7595,4.8339,4.8757,4.9273,4.9844,5.0408,5.0588,5.0906,5.1263,5.1508,5.1934,5.2503,5.2879,5.3071,5.3214,5.3214,5.3214,5.3398,5.4179,0.0,0.0,0.0,0.0,0.0,5.8621,5.9453,6.0481,6.1545,6.2866,6.415,6.5228,6.5888,6.6609,6.765,6.9302,7.044,7.044,7.044,7.033,7.011,7.011,7.011,7.011,7.0293,7.011,6.9302,6.9435,6.9362,6.8921,6.9449,6.9412,6.8605,6.9009,6.8752,6.77,6.7921,6.7921,6.77,6.77,6.7647,6.7538,6.7294,6.7263,6.7389,6.72,6.7257,6.751,6.809,6.8343,6.8416,6.9274,6.9926,7.0496,7.1288,7.1526,7.1531,0.0,0.0,0.0,0.0,0.0,0.0,0.0,3.4992,3.5374,0.0,0.0,0.0,3.7524,3.8026,3.8345,3.8471,3.8677,3.8974,3.941,3.9801,4.0158,4.0515,4.0917,4.1366,4.1861,4.2458,4.3018,4.3482,4.4683,4.5269,4.5316,4.6408,4.6879,4.6879,4.6879,4.7105,4.7366,4.6953,4.6943,4.735,4.8749,4.9609,5.01,5.0631,5.1255,5.1825,5.1984,5.2242,5.2491,5.2491,5.281,5.3214,5.3214,5.3214,5.3214,5.3214,5.3214,5.3287,5.3765,5.473,5.5695,5.6161,0.0,0.0,5.7997,5.8609,5.9343,5.9783,6.1178,6.2438,6.2952,6.4016,6.4934,6.5411,6.6953,6.8201,6.8531,6.9192,6.9229,6.8238,6.8678,6.8985,6.8641,6.9192,6.9265,6.8458,6.8715,6.8885,6.8885,6.9045,6.9045,6.8885,6.916,6.8807,6.77,6.7963,6.7963,6.77,6.77,6.762,6.7483,6.728,6.7126,6.6968,6.6845,6.6786,6.6858,6.7329,6.751,6.7619,6.8757,6.9481,7.0025,7.1096,7.1494,7.1494,0.0,0.0,0.0,0.0,0.0,0.0,0.0,3.7694,0.0,0.0,3.8744,3.8882,3.8985,3.9043,3.9055,3.9043,3.9652,4.0353,4.1042,4.1721,4.2447,4.3225,0.0,0.0,4.3462,4.3886,4.4155,4.4214,4.5376,4.5919,4.5919,4.6787,4.7156,4.7049,4.7156,4.7608,4.8263,4.8048,4.8175,4.8633,4.9672,5.0602,5.14,5.193,5.2564,5.3214,5.3214,5.3251,5.3324,5.3324,5.3287,5.3214,5.3214,5.3214,5.3214,5.3214,5.3214,5.3214,5.3214,5.4363,5.5585,5.5585,5.6796,0.0,5.7997,5.8535,5.9086,5.9086,6.0272,6.1337,6.1337,6.2707,6.3809,6.3809,6.4567,6.5448,6.6256,6.7614,6.771,6.5545,6.6549,6.7136,6.6439,6.765,6.8201,6.748,6.8164,6.8701,6.8885,6.8201,6.8164,6.8898,6.9471,6.9104,6.77,6.8298,6.8298,6.77,6.7687,6.7593,6.7456,6.7252,6.7097,6.6976,6.6845,6.6786,6.6786,6.6786,6.6786,6.6967,6.8576,6.9192,6.9373,7.0915,7.1494,7.1494,0.0,0.0,0.0,0.0,0.0,0.0,0.0,3.8401,3.8527,3.8594,3.9675,4.0676,4.1262,4.1773,4.2006,4.1928,4.2018,4.2189,4.2338,4.2577,4.3027,0.0,0.0,0.0,4.5194,4.5296,4.5661,4.6326,4.6924,4.7221,4.7268,4.8504,4.8693,4.8062,4.8766,4.9141,4.9334,4.9917,5.0602,5.1198,5.0795,5.1263,5.22,5.275,5.3067,5.3214,5.3214,5.3618,5.4179,5.4179,5.3728,5.3214,5.3214,5.3214,5.3214,5.3214,5.3214,5.3214,5.3214,5.4363,5.5585,5.5585,5.6796,0.0,5.7997,5.8107,5.8217,5.8217,5.9013,5.9673,5.9673,6.1006,6.2071,6.2071,6.3356,6.4604,6.5411,6.5802,6.5839,6.5362,6.5582,6.5692,6.5545,6.5802,6.5949,6.5778,6.6512,6.754,6.8825,6.8752,6.8752,6.8885,6.9054,6.8651,6.77,6.782,6.782,6.77,6.7579,6.7442,6.7252,6.7097,6.6976,6.683,6.6801,6.6786,6.6786,6.6786,6.6786,6.6967,6.8576,6.9192,6.9373,7.0915,7.1494,7.1494,3.6883,3.7502,3.8054,0.0,0.0,0.0,0.0,3.9813,4.0296,4.0296,4.1309,4.2135,4.2405,4.2708,4.2885,4.2809,4.2796,4.3086,4.3784,4.3905,4.4385,4.5351,0.0,0.0,0.0,4.6528,4.6863,4.7248,4.7705,4.8184,4.8596,4.8842,4.894,4.894,4.894,4.9417,5.0188,5.0188,5.1132,5.2564,5.216,5.2307,5.2817,5.3092,5.3434,5.3801,5.3801,5.4326,5.495,5.4546,5.4142,5.3728,5.3324,5.3214,5.3214,5.3214,5.3214,5.3214,5.3214,5.4363,5.5585,5.5585,5.6796,0.0,0.0,5.7997,5.7997,5.7997,5.8327,5.8609,5.8609,5.96,6.0529,6.0933,6.2034,6.3135,6.393,6.4774,6.4995,6.415,6.4774,6.5141,6.4751,6.5081,6.5288,6.5288,6.5301,6.5999,6.7614,6.732,6.7467,6.8274,6.8138,6.7913,6.7593,6.7511,6.7511,6.7593,6.7524,6.74,6.721,6.7054,6.6932,6.6786,6.6786,6.6786,6.6786,6.6786,6.6786,6.6931,6.8126,6.8866,6.9337,7.0517,7.1168,7.1494,3.7743,3.8295,3.8847,0.0,0.0,0.0,0.0,0.0,4.2228,4.2228,4.3005,4.3467,4.3332,4.3473,4.3662,4.3838,4.3696,4.4128,4.5469,4.5422,4.5835,4.6968,4.7026,4.7071,4.716,0.0,4.7726,4.7726,4.8104,4.8673,4.9344,4.8967,4.9077,4.9574,4.904,4.9627,5.0986,5.0188,5.1132,5.3214,5.3214,5.3214,5.3214,5.3214,5.3581,5.4216,5.4509,5.5133,5.5695,5.4913,5.462,5.4473,5.3691,5.3324,5.3214,5.3398,5.3434,5.3434,5.3434,5.462,5.5842,5.5842,5.6932,5.7997,0.0,0.0,0.0,5.7997,5.7997,5.7997,5.7997,5.8646,5.938,5.9869,6.075,6.1594,6.2242,6.3611,6.4125,6.2939,6.4004,6.4554,6.3906,6.4457,6.4884,6.5081,6.431,6.4567,6.6182,6.5655,6.5962,6.7407,6.7318,6.7359,6.7483,6.7359,6.7359,6.7483,6.7456,6.7373,6.7196,6.7011,6.6903,6.6786,6.6786,6.6786,6.6786,6.6786,6.6786,6.6895,6.7692,6.8488,6.93,7.0097,7.0894,7.1494,3.8606,3.9089,3.9813,4.0503,0.0,0.0,0.0,0.0,4.3069,4.3069,4.4014,4.4712,4.4773,4.5575,4.6436,4.7251,4.6518,4.6448,4.7489,4.6909,4.6806,4.7496,4.7527,4.7705,4.8114,0.0,0.0,4.8229,4.8277,4.8333,4.8489,4.9884,5.0178,4.9647,5.0251,5.1022,5.1803,5.1022,5.1646,5.3214,5.3214,5.3214,5.3214,5.3214,5.3251,5.3508,5.4961,5.5978,5.6528,5.5721,5.5475,5.5328,5.4509,5.3765,5.3324,5.4069,5.4252,5.4252,5.4252,5.5427,5.6675,5.6675,5.7336,5.7997,5.7997,0.0,5.7997,5.7997,0.0,5.7997,5.7997,0.0,0.0,5.8364,5.9538,6.0566,6.0664,6.1336,6.2068,6.2707,6.2976,6.305,6.2976,6.3013,6.338,6.4163,6.3429,6.3673,6.5362,6.5362,6.5692,6.6623,6.7172,6.747,6.7483,6.747,6.747,6.7483,6.7308,6.7224,6.7196,6.6947,6.6801,6.6786,6.6786,6.6786,6.6786,6.6786,6.6786,6.6895,6.7692,6.8488,6.93,7.0097,7.0894,7.1494,3.9468,4.0227,4.1159,4.1469,0.0,0.0,0.0,4.3779,4.4392,4.4881,4.5598,4.6024,4.5882,4.6307,4.6731,4.7074,4.6755,4.6906,4.7693,4.7416,4.7464,4.7985,4.8005,4.8085,4.8296,0.0,0.0,4.8296,4.9251,4.9738,4.9774,5.0472,5.0875,5.0996,5.0875,5.1242,5.1987,5.1646,5.216,5.3214,5.3214,5.3214,5.3214,5.3214,5.3471,5.4069,5.5181,5.5805,5.6051,5.5695,5.5585,5.5548,5.5218,5.4851,5.4656,5.4997,5.5108,5.5108,5.5108,5.5941,5.6811,5.6811,5.7409,5.7997,5.7997,5.7997,5.7997,5.7997,0.0,0.0,0.0,0.0,0.0,0.0,5.9269,5.9857,6.0334,6.0591,6.1189,6.2533,6.2679,6.2717,6.278,6.2793,6.2939,6.3319,6.3013,6.3123,6.382,6.4347,6.4971,6.5778,6.6322,6.6856,6.7308,6.7261,6.7261,6.7308,6.7154,6.7126,6.7196,6.6932,6.6786,6.6786,6.6786,6.6786,6.6786,6.6786,6.6786,6.6895,6.7692,6.8488,6.9228,6.959,7.048,7.1494,4.0883,4.1573,4.2401,4.2608,4.3227,4.3826,4.4147,4.4975,4.5729,4.6317,4.6788,4.7088,4.713,4.7504,4.7917,4.8313,4.8418,4.8582,4.8785,4.8587,4.8429,4.8323,4.8296,4.8416,4.8636,4.927,4.9417,4.8994,5.0205,5.0802,5.0802,5.1022,5.1426,5.1987,5.1389,5.1573,5.2307,5.2097,5.2454,5.3214,5.3214,5.3214,5.3214,5.3214,5.3691,5.4509,5.5328,5.5732,5.5941,5.5941,5.5941,5.5941,5.5941,5.5768,5.5658,5.5879,5.5941,5.5941,5.5941,5.6528,5.7152,5.7152,5.7556,5.7997,5.7997,5.7997,5.7997,5.7997,5.7997,0.0,0.0,0.0,5.8107,5.8499,0.0,5.9086,5.9648,5.9761,6.0444,6.2091,6.2457,6.2641,6.273,6.2768,6.2793,6.2793,6.2793,6.2793,6.2793,6.3613,6.4347,6.4958,6.5633,6.6285,6.6868,6.6945,6.704,6.714,6.704,6.704,6.714,6.6903,6.6786,6.6786,6.6786,6.6786,6.6786,6.6786,6.6786,6.6895,6.7692,6.8488,6.9228,6.9445,7.0387,7.1494,4.3103,4.3138,4.3379,4.4104,4.4634,4.5352,4.6598,4.6809,4.6856,4.6856,4.7218,4.7803,4.8634,4.9752,5.1151,5.2831,5.2978,5.2669,5.1893,5.1112,4.9975,4.837,4.8296,4.8673,4.9444,4.9564,4.9968,5.0729,5.0765,5.0802,5.0839,5.161,5.1987,5.1987,5.1987,5.2417,5.3104,5.2344,5.2454,5.3214,5.3214,5.3214,5.3214,5.3214,5.3691,5.4509,5.5328,5.6088,5.6737,5.6737,5.6737,0.0,0.0,5.6235,5.5768,5.6528,5.6737,5.6737,5.6737,5.7336,5.796,5.796,5.796,5.7997,5.7997,5.7997,5.7997,5.7997,5.7997,5.7997,5.7997,5.7997,5.774,5.6994,5.7519,0.0,0.0,5.8506,5.9492,6.1224,6.2128,6.2603,6.2603,6.2717,6.2793,6.2793,6.2793,6.2793,6.2793,6.3613,6.4103,6.4139,6.534,6.603,6.603,6.6691,6.6983,6.7019,6.6983,6.6983,6.6983,6.6859,6.6786,6.6786,6.6786,6.6786,6.6786,6.6786,6.6786,6.6895,6.7692,6.8488,6.93,7.0061,7.0842,7.1494,4.4561,4.4937,4.5094,4.4803,4.5334,4.6034,4.6775,4.716,4.7764,4.8795,4.9854,5.0743,5.1514,5.2955,5.3894,5.3862,5.3952,5.3885,5.3592,5.2344,5.1363,5.0765,5.0251,5.0068,5.0362,5.0886,5.1069,5.0802,5.1856,5.2123,5.161,5.2417,5.2784,5.2784,5.2784,5.2957,5.3177,5.292,5.2957,5.3214,5.3214,5.3508,5.4069,5.4583,5.462,5.4509,5.5328,5.5768,0.0,5.6627,5.6811,5.6884,5.7446,5.7409,5.7226,5.7519,5.7593,5.7593,0.0,0.0,5.7997,5.7997,5.7997,5.7997,5.7997,5.7997,5.7997,5.7997,5.7997,5.7997,5.7997,5.7939,5.7794,5.7618,5.7674,5.7786,0.0,5.8337,5.8856,5.9363,6.0677,6.1826,6.2517,6.2165,6.1886,6.1985,6.1911,6.1885,6.1885,6.2667,6.3326,6.3875,6.4241,6.4899,6.5979,6.6046,6.6373,6.7019,6.6918,6.6918,6.7019,6.6859,6.6786,6.6786,6.6786,6.6786,6.6786,6.6786,6.6786,6.6931,6.8286,6.8974,6.93,7.0097,7.0894,7.1494,4.5567,4.5968,4.604,4.5513,4.613,4.6856,4.7324,4.8161,4.9232,5.0543,5.1966,5.335,5.4631,5.6043,5.6873,5.6841,5.6898,5.6455,5.5317,5.4546,5.3492,5.206,5.205,5.194,5.1673,5.216,5.216,5.1636,5.27,5.292,5.2454,5.2957,5.3214,5.3214,5.3214,5.3214,5.3214,5.3214,5.3214,5.3214,5.3508,5.3948,5.4509,5.5611,5.5537,5.4913,0.0,5.6014,5.6161,5.6969,5.7226,5.7336,5.785,5.7997,5.7997,5.7997,5.7997,5.7997,5.7997,5.7997,0.0,5.7997,5.7997,0.0,5.7997,5.7997,5.7997,5.7997,5.7997,5.7997,5.7997,5.7939,5.7904,5.7985,5.7869,5.7751,0.0,5.7996,5.8246,5.8396,5.9927,6.1199,6.1637,6.1773,6.1665,6.1215,6.158,6.1712,6.142,6.2164,6.2859,6.3359,6.3534,6.4111,6.5154,6.5444,6.5888,6.6497,6.6685,6.6845,6.6932,6.683,6.6786,6.6786,6.6786,6.6786,6.6786,6.6786,6.6786,6.6931,6.8271,6.8938,6.9337,7.0387,7.1096,7.1494,4.6084,4.6207,4.6231,4.6291,4.7049,4.7767,4.8238,4.9774,5.1169,5.2024,5.3592,5.5537,5.785,5.8866,6.0003,6.152,6.1679,6.0346,5.7288,5.774,5.6381,5.2464,5.3702,5.4106,5.3287,5.3251,5.3251,5.3251,5.3214,5.3214,5.3251,5.3214,5.3214,5.3214,5.3251,5.3214,5.3141,5.3214,5.3251,5.3324,5.4106,5.4436,5.4693,5.6223,5.6345,5.5805,5.6602,5.6847,5.6957,5.774,5.7997,5.7997,5.7997,5.7997,5.7997,5.7997,5.7997,5.7997,5.7997,5.7997,5.7997,5.7997,5.7997,0.0,0.0,0.0,5.7997,5.7997,5.7997,5.7997,5.7997,5.7985,5.7985,5.7985,5.7985,5.7892,5.7643,5.7461,5.7629,5.8251,5.9854,6.0651,6.0087,6.154,6.1873,6.0493,6.1678,6.2151,6.1358,6.2102,6.259,6.259,6.3192,6.3564,6.3587,6.4841,6.5518,6.5591,6.6388,6.675,6.6786,6.6786,6.6786,6.6786,6.6786,6.6786,6.6786,6.6786,6.6786,6.6895,6.7692,6.8525,6.9445,7.0951,7.1494,7.1494,4.5914,4.6123,4.665,4.7612,4.7965,4.8143,4.8287,5.0215,5.2207,5.3592,5.6235,5.8425,5.9648,6.1031,6.2022,6.2462,6.2499,6.2132,6.1325,6.0334,5.8804,5.6565,5.6271,5.5526,5.4106,5.4106,5.4106,5.4106,5.3471,5.3508,5.4069,5.3471,5.3214,5.3214,5.3838,5.3445,5.238,5.3592,5.4106,5.4106,5.4326,5.5133,5.6223,5.6627,5.7042,5.7409,5.7629,5.7703,5.7703,5.7923,5.7997,5.7997,5.7997,5.7997,5.7997,5.7997,5.7997,5.7997,5.7997,5.7997,5.7997,5.7997,5.7997,5.7997,0.0,0.0,0.0,0.0,0.0,0.0,0.0,5.7845,5.7751,5.7845,5.7667,5.7522,5.7449,5.7326,5.7298,5.7478,5.8511,5.9618,6.0638,6.0681,6.0514,6.0126,6.0454,6.0524,6.0253,6.1527,6.2291,6.2291,6.2483,6.2857,6.3439,6.3697,6.4432,6.5591,6.5808,6.6207,6.6786,6.6786,6.6786,6.6786,6.6786,6.6786,6.6786,6.6786,6.6786,6.6895,6.7692,6.885,7.0206,7.1132,7.1494,7.1422,4.6061,4.6954,4.8032,4.8744,5.0031,5.0729,5.0031,5.1389,5.3225,5.5207,5.7655,5.9636,6.0786,6.2401,6.3503,6.3857,6.3894,6.3417,6.2365,6.2108,6.0823,5.8107,5.8253,5.7299,5.4997,5.4924,5.4583,5.3875,5.3434,5.3618,5.4363,5.3581,5.3398,5.3728,5.4216,5.3885,5.3125,5.4399,5.4924,5.495,5.5317,5.6003,0.0,5.7189,5.7593,5.7997,5.7997,5.7997,5.7997,5.7997,5.7997,5.7997,5.7997,5.7997,5.7997,5.7997,5.7997,5.7997,5.7997,5.7997,5.7997,5.7997,5.7997,5.7997,5.7997,5.7997,5.7997,0.0,5.7997,5.7997,0.0,0.0,5.781,5.7881,5.7691,5.7547,5.7486,5.7363,5.7251,5.7201,5.8303,5.9406,6.0313,6.0218,6.0077,6.009,6.0343,6.0486,6.0422,6.1557,6.2185,6.2185,6.2876,6.3117,6.2876,6.3791,6.4519,6.5084,6.5446,6.6025,6.6786,6.6786,6.6786,6.6786,6.6786,6.6786,6.6786,6.6786,6.6786,6.6895,6.7692,6.8561,6.9502,7.0589,7.1205,7.1458,4.6721,4.8327,4.9647,4.9747,5.2317,5.3995,5.2831,5.3592,5.5012,5.6994,5.8866,6.0481,6.179,6.3221,6.4383,6.5068,6.5141,6.4237,6.2083,6.3295,6.2377,5.8474,5.9648,5.8951,5.5842,5.5658,5.4913,5.3508,5.3287,5.3654,5.4546,5.3618,5.3691,5.4546,5.4546,5.4546,5.4583,5.5181,5.5511,5.5658,5.6492,5.6847,5.7031,5.774,5.7997,5.7997,5.7997,5.7997,5.7997,5.7997,5.7997,5.7997,5.7997,5.7997,5.7997,5.7997,5.7997,5.7997,5.7997,5.7997,5.7997,5.7997,5.7997,5.7997,5.7997,5.7997,5.7997,5.7997,5.7997,5.7997,5.7997,0.0,5.7973,5.7973,5.7857,5.7739,5.7655,5.7486,5.7387,5.7371,5.8639,0.0,5.976,6.0096,6.031,6.0297,6.0817,6.1155,6.1142,6.1789,6.2158,6.2158,6.3525,6.3707,6.2485,6.4249,6.4975,6.4722,6.5192,6.5917,6.6786,6.6786,6.6786,6.6786,6.6786,6.6786,6.6786,6.6786,6.6786,6.6858,6.7583,6.7981,6.8343,6.9735,7.0713,7.135,4.8896,4.9341,4.9821,5.0472,5.2711,5.4766,5.5794,5.8327,6.0052,5.9795,6.2352,6.4077,6.3699,6.3919,6.4176,6.4323,6.431,6.4139,6.3699,6.3956,6.2891,6.0089,6.0236,5.9208,5.6638,5.5952,5.5475,5.5181,5.3838,5.3959,5.5365,5.3885,5.3995,5.5401,5.5401,5.5401,5.5365,5.484,5.4987,5.5658,5.6492,5.7189,5.7813,5.796,5.7997,5.7997,5.7997,5.7997,5.7997,5.7997,5.7997,5.7997,5.7997,5.7997,5.7997,5.7997,5.7997,5.7997,5.7997,5.7997,5.7997,5.7997,5.7997,5.7997,5.7997,5.7997,5.7997,5.7997,5.7997,5.7997,5.7997,0.0,5.7845,5.7845,5.7619,5.7522,5.7751,5.7547,5.7642,5.8295,5.871,5.9376,6.0497,6.0752,6.0817,6.0699,6.0923,6.0996,6.0877,6.1611,6.2033,0.0,6.2322,6.2975,0.0,0.0,6.3875,6.6388,6.5192,6.5374,6.6786,6.6786,6.6786,6.6786,6.6786,6.6786,6.6786,6.6786,6.6786,6.6822,6.6967,6.78,6.9011,6.93,6.9916,7.0496,4.95,5.0271,5.1216,5.2454,5.5012,5.7288,5.8499,6.1447,6.2915,6.1227,6.2034,6.2768,6.2805,6.3172,6.3429,6.3429,6.3833,6.3919,6.3466,6.3833,6.3185,6.1117,6.0639,5.9465,5.7483,5.6246,5.5585,5.5585,5.3995,5.4032,5.5548,5.3959,5.4069,5.5585,5.5585,5.6062,5.6796,5.5978,5.6124,5.687,5.7262,5.7666,5.7997,5.7997,5.7997,5.7997,5.7997,5.7997,5.7997,5.7997,5.7997,5.7997,5.7997,5.7997,5.7997,5.7997,5.7997,5.7997,5.7997,5.7997,5.7997,5.7997,5.7997,5.7997,5.7997,5.7997,5.7997,5.7997,5.7997,5.7997,5.7997,5.828,0.0,0.0,5.8761,5.8994,5.9054,5.8921,5.8931,5.9194,5.9268,5.969,6.0715,6.0864,6.1111,6.159,6.1227,6.1178,6.1604,6.1856,6.1992,0.0,0.0,0.0,6.3164,0.0,6.4432,6.5555,6.5192,6.5663,6.6786,6.6786,6.6786,6.6786,6.6786,6.6786,6.6786,6.6786,6.6786,6.6786,6.6786,6.751,6.8561,6.8561,6.8814,6.9213,5.0555,5.1767,5.3272,5.4876,5.7545,5.9709,6.0451,6.3039,6.429,6.2499,6.1874,6.1762,6.2323,6.295,6.327,6.3086,6.3688,6.3751,6.3015,6.3665,6.3382,6.1812,6.099,5.9886,5.8425,5.6742,5.5768,5.5585,5.4326,5.4289,0.0,5.4069,5.4142,5.5365,5.5879,5.6613,5.7483,5.7189,5.7336,5.7776,5.7923,5.7997,5.7997,5.7997,5.7997,5.7997,5.7997,5.7997,5.7997,5.7997,5.7997,5.7997,5.7997,5.7997,5.7997,5.7997,5.7997,5.7997,5.7997,5.7997,5.7997,5.7997,5.7997,5.7997,5.7997,5.7997,5.8033,5.8217,5.84,5.851,5.851,5.9013,0.0,0.0,5.9943,6.031,6.0237,6.0201,6.0187,6.0133,6.0143,6.0407,6.1085,6.1117,6.1465,6.2321,6.168,6.1554,6.2278,6.2295,0.0,0.0,0.0,6.3635,6.2535,0.0,6.4867,6.4903,6.5192,6.5844,6.6786,6.6786,6.6786,6.6786,6.6786,6.6786,6.6786,6.6786,6.6786,6.6786,6.6786,6.7402,6.8235,6.8039,6.8111,6.8416,5.3665,5.4667,5.5768,5.7373,5.9134,6.0463,6.0955,6.2543,6.3868,6.4339,6.4958,6.528,6.4999,6.5003,6.4779,6.4039,6.4039,6.391,6.3456,6.3857,6.3536,6.2305,6.1467,6.0624,5.9754,5.7718,5.6345,5.5585,5.5438,5.5071,0.0,5.4363,5.4363,5.462,5.6785,0.0,0.0,5.7299,5.7519,5.6957,5.7703,5.7997,5.7997,5.7997,5.7997,5.7997,5.7997,5.7997,5.7997,5.7997,5.7997,5.7997,5.7997,5.7997,5.7997,5.7997,5.7997,5.7997,5.7997,5.7997,5.7997,5.7997,5.7997,5.7997,5.7997,5.7997,5.8217,5.8939,5.9673,6.0199,6.0199,6.0236,6.0309,0.0,0.0,6.025,6.0383,6.0262,6.0469,6.1175,6.1236,6.1514,6.2175,6.2129,6.2152,6.237,6.2095,6.1946,6.2033,0.0,0.0,6.2028,6.2838,6.3613,6.4178,6.2933,6.3766,6.6569,6.5156,6.5301,6.6786,6.6786,6.6786,6.6786,6.6786,6.6786,6.6786,6.6786,6.6786,6.6786,6.6786,6.7728,6.9011,6.8271,6.8452,6.9011,5.6784,5.7007,5.7722,5.9859,6.0565,6.13,6.2693,6.3466,6.4083,6.4675,6.4772,6.493,6.5257,6.4865,6.4462,6.4124,6.4585,6.4824,6.4647,6.4793,6.4663,6.4198,6.2419,6.1222,6.0625,5.8355,5.6888,5.6308,5.5842,5.5438,5.5108,0.0,0.0,0.0,0.0,5.7189,5.7042,5.7226,5.7373,5.7556,5.7886,5.7997,5.7997,5.7997,5.7997,5.7997,5.7997,5.7997,5.7997,5.7997,5.7997,5.7997,5.7997,5.7997,5.7997,5.7997,5.7997,5.7997,5.7997,5.7997,5.7997,5.7997,5.7997,5.7997,5.7997,5.8364,5.8792,5.9123,5.982,6.0419,6.0419,6.0786,6.1117,6.1117,0.0,6.1789,6.1838,6.1801,6.1812,6.1976,6.1638,6.1637,6.2219,6.1855,6.2,6.292,6.2391,6.2033,6.2128,0.0,0.0,6.273,0.0,6.2875,6.3685,6.3526,6.4106,6.5374,6.57,6.617,6.6786,6.6786,6.6786,6.6786,6.6786,6.6786,6.6786,6.6786,6.6786,6.6786,6.6786,6.7474,6.838,6.7583,6.809,6.9083,5.9404,5.9308,5.977,6.2,6.2177,6.2527,6.4075,6.4321,6.4473,6.4934,6.4675,6.4719,6.5276,6.4832,6.4492,6.4492,6.503,6.536,6.5245,6.5341,6.536,6.5235,6.3314,6.2069,6.1645,5.9349,5.782,5.7141,5.6345,5.5842,5.5585,0.0,0.0,0.0,5.6731,5.7415,5.7796,5.7356,5.7483,5.7997,5.7997,5.7997,5.7997,5.7997,5.7997,5.7997,5.7997,5.7997,5.7997,5.7997,5.7997,5.7997,5.7997,5.7997,5.7997,5.7997,5.7997,5.7997,5.7997,5.7997,5.7997,5.7997,5.7997,5.807,5.829,5.8792,5.9343,5.982,6.0554,6.1117,6.1117,6.1557,6.1961,6.1961,0.0,0.0,6.2793,6.2793,6.2717,6.2526,6.2091,6.1969,6.2347,6.1912,6.2032,6.3016,6.2468,6.2196,6.2481,0.0,0.0,0.0,0.0,0.0,6.2838,6.3635,6.4192,6.4432,6.5772,6.6569,6.6786,6.6786,6.6786,6.6786,6.6786,6.6786,6.6786,6.6786,6.6786,6.6786,6.6786,6.7293,6.793,6.7366,6.8017,6.9119,6.1366,6.1657,6.2173,6.3796,6.4049,6.4235,6.4721,6.4783,6.4951,6.5329,6.5406,6.5398,6.5398,6.5398,6.5368,6.5368,6.5398,6.5228,6.4839,6.518,6.522,6.483,6.4034,6.3374,6.2897,6.0903,5.9248,5.7997,5.7178,5.6381,5.5622,0.0,5.655,5.6236,5.7438,5.7788,5.7452,5.7833,5.7997,5.7997,5.7997,5.7997,5.7997,5.7997,5.7997,5.7997,5.7997,5.7997,5.7997,5.7997,5.7997,5.7997,5.7997,5.7997,5.7997,5.7997,5.7997,5.7997,5.7997,5.7997,5.7997,5.7997,5.7997,5.8217,5.9013,5.9184,5.9636,6.1227,6.2218,6.2756,6.2756,6.2793,6.2793,6.2793,0.0,0.0,6.2793,6.2793,6.2793,6.2793,6.2793,6.2793,6.278,6.2679,6.2539,6.2433,6.2288,6.2495,0.0,0.0,0.0,6.2028,6.2766,0.0,6.2028,6.2802,6.3613,6.441,6.5229,6.6025,6.6786,6.6786,6.6786,6.6786,6.6786,6.6786,6.6786,6.6786,6.6786,6.6786,6.6786,6.7293,6.8002,6.8002,6.8488,6.9192,6.366,6.3559,6.3691,6.4774,6.4775,6.492,6.5933,6.6097,6.6327,6.701,6.7102,6.7102,6.7102,6.6063,6.5643,6.6216,6.6292,6.6475,6.6875,6.6505,6.6246,6.6105,6.477,6.3818,6.3392,6.1587,6.005,5.8823,0.0,0.0,0.0,5.8047,5.8088,5.7464,5.8103,5.8349,5.8194,5.8065,5.7997,5.7997,5.7997,5.7997,5.7997,5.7997,5.7997,5.7997,5.7997,5.7997,5.7997,5.7997,5.7997,5.7997,5.7997,5.7997,5.7997,5.7997,5.7997,5.7997,5.7997,5.7997,5.7997,5.7997,5.84,5.8902,5.9159,6.004,6.1153,6.2205,6.2609,6.2793,6.2793,6.2793,6.2793,6.2793,6.2793,0.0,6.2793,6.2793,6.2768,6.2679,6.2743,6.2755,6.2667,6.2629,6.2771,6.3212,6.2593,6.2263,0.0,0.0,0.0,0.0,6.2549,0.0,6.2802,6.3613,6.4156,6.4432,6.5772,6.6569,6.6786,6.6786,6.6786,6.6786,6.6786,6.6786,6.6786,6.6786,6.6786,6.6786,6.6786,6.7293,6.8002,6.8002,6.885,7.0025,6.4985,6.4801,6.4746,6.5306,6.5471,6.5672,6.6147,6.6483,6.6865,6.7362,6.7439,6.7561,6.7867,6.6713,6.6101,6.6628,6.698,6.7247,6.7439,6.698,6.6705,6.6705,6.5375,6.4313,6.3588,6.2214,0.0,5.9647,5.9365,5.8774,5.8012,5.8811,5.8997,5.8679,5.8609,5.8689,5.8801,5.8242,5.7997,5.7997,5.7997,5.7997,5.7997,5.7997,5.7997,5.7997,5.7997,5.7997,5.7997,5.7997,5.7997,5.7997,5.7997,5.7997,5.7997,5.7997,5.7997,5.7997,5.7997,5.7997,5.7997,5.7997,5.8609,5.938,5.9967,6.1117,6.2181,6.2683,6.2793,6.2793,6.2793,6.2793,6.2793,6.2793,6.2793,6.2793,6.2793,6.2793,6.2768,6.2679,6.2743,6.2768,6.2679,6.2629,6.2758,6.3126,6.2556,6.2154,0.0,0.0,6.2245,6.273,6.2245,6.239,6.3178,6.4011,6.4541,6.4867,6.617,6.6786,6.6786,6.6786,6.6786,6.6786,6.6786,6.6786,6.6786,6.6786,6.6786,6.6786,6.6786,6.7112,6.7619,6.8235,6.9083,7.0025,6.5413,6.5413,6.5413,6.549,6.6101,6.6369,6.5681,6.6216,6.6713,6.6789,6.6789,6.7056,6.7828,6.7247,6.6789,6.6789,6.7362,6.7439,6.6743,6.6628,6.659,6.659,6.5834,6.4847,6.3672,6.2779,6.1707,6.0407,5.9665,5.8893,5.8168,5.8931,5.9467,5.9785,5.9007,5.8841,5.9122,5.8315,5.7997,5.7997,5.7997,5.7997,5.7997,5.7997,5.7997,5.7997,5.7997,5.7997,5.7997,5.7997,5.7997,5.7997,5.7997,5.7997,5.7997,5.7997,5.7997,5.7997,5.7997,5.7997,5.7997,5.807,5.8719,5.9783,6.1337,6.2254,6.2793,6.2793,6.2793,6.2793,6.2793,6.2793,6.2793,6.2793,6.2793,6.2793,6.2793,6.2793,6.2793,6.2793,0.0,0.0,6.278,6.2667,6.2526,0.0,6.2238,0.0,0.0,0.0,6.1992,6.1992,6.2064,6.2426,6.3178,6.4033,6.4867,6.57,6.646,6.6786,6.6786,6.6786,6.6786,6.6786,6.6786,6.6786,6.6786,6.6786,6.6786,6.6786,6.6786,6.6822,6.7076,6.8648,6.9228,6.9481,6.5413,6.5413,6.5605,6.6292,6.6025,6.6063,6.7141,6.698,6.6942,6.7553,6.7637,6.7676,6.7867,6.7714,6.7637,6.7637,6.6636,6.6178,6.6674,6.6101,6.5719,6.5719,6.5528,6.5261,6.4954,6.3505,6.198,6.0418,6.0228,6.0007,5.9824,6.0045,5.9984,5.9793,5.9298,5.8949,5.871,5.822,5.7997,5.7997,5.7997,5.7997,5.7997,5.7997,5.7997,5.7997,5.7997,5.7997,5.7997,5.7997,5.7997,5.7997,5.7997,5.7997,5.7997,5.7997,5.7997,5.7997,5.7997,5.7997,5.8143,5.8756,5.9967,6.13,6.2291,6.2646,6.2793,6.2793,6.2793,6.2793,6.2793,6.2793,6.2793,6.2793,6.2793,6.2793,6.2793,6.2793,6.2793,0.0,6.2793,6.2755,6.2654,6.2526,6.2384,0.0,0.0,6.2033,6.1992,6.1992,6.1992,6.1992,6.2585,6.3019,6.3214,6.4613,6.5736,6.6533,6.6714,6.6786,6.6786,6.6786,6.6786,6.6786,6.6786,6.6786,6.6786,6.6786,6.6786,6.6786,6.6786,6.7184,6.7836,6.8829,6.959,7.0242,6.5413,6.5413,6.5566,6.6025,6.6025,6.6292,6.7209,6.698,6.698,6.779,6.7591,6.7477,6.7867,6.7553,6.7362,6.7362,6.7209,6.7171,6.7247,6.6789,6.6369,6.6025,6.5605,6.5031,6.4267,6.3381,6.2089,6.0415,6.0415,6.0415,6.0415,6.0415,6.0173,5.9801,5.9571,5.9261,5.887,5.8628,5.8444,5.826,5.826,5.8164,5.7997,5.7997,5.7997,5.7997,5.7997,5.7997,5.7997,5.7997,5.7997,5.807,5.8437,5.8535,5.8535,5.8535,5.829,5.807,5.8437,5.8535,5.8841,6.0003,6.0933,6.1814,6.2609,6.2793,6.2793,6.2793,6.2793,6.2793,6.2793,6.2793,6.2793,6.2793,6.2793,6.2793,6.2793,6.2793,6.2793,6.2793,6.2793,6.2768,6.2705,6.25,6.242,6.2384,6.2185,0.0,6.21,6.21,6.206,6.1992,6.2766,6.3396,6.3758,6.5337,6.6388,6.6786,6.6786,6.6786,6.6786,6.6786,6.6786,6.6786,6.6786,6.6786,6.6786,6.6786,6.704,6.7366,6.7366,6.7836,6.8633,6.9445,7.0025,7.0496,6.5413,6.5413,6.5452,6.5566,6.6101,6.656,6.6667,6.6598,6.6751,6.7446,6.6942,6.6751,6.7446,6.6904,6.6552,6.6705,6.8012,6.8432,6.7599,6.7523,6.7209,6.6522,6.5796,6.4726,6.3305,6.3037,6.2128,6.0568,6.0453,6.0415,6.0415,6.0415,6.0173,5.9809,5.9809,5.9571,5.9206,5.9206,5.8978,5.8597,5.8597,5.8358,5.7997,5.7997,5.7997,5.7997,5.7997,5.7997,5.7997,5.7997,5.7997,5.8143,5.8939,5.9196,5.9221,5.9343,5.8902,5.8474,5.9049,5.938,5.9893,6.1263,6.1704,6.1961,6.2646,6.2793,6.2793,6.2793,6.2793,6.2793,6.2793,6.2793,6.2793,6.2793,6.2793,6.2793,6.2793,0.0,6.2793,6.2793,6.2793,6.278,6.273,6.2526,6.2423,6.2539,6.2305,6.2158,6.2185,6.2158,6.2164,6.2173,6.2947,6.383,6.4758,6.6134,6.6786,6.6786,6.6786,6.6786,6.6786,6.6786,6.6786,6.6786,6.6786,6.6786,6.6786,6.6786,6.7221,6.7821,6.793,6.8416,6.9119,7.0061,7.0387,7.0496,6.5413,6.5413,6.5643,6.6369,6.5987,6.5834,6.6598,6.6063,6.5643,6.5757,6.5681,6.5643,6.5757,6.5681,6.591,6.6628,6.6934,6.6713,6.5834,6.5796,6.5719,6.5605,6.5452,6.5299,6.5031,6.3618,6.2426,6.1402,6.0721,6.0415,6.0415,6.0415,6.0173,5.9809,5.9809,5.9571,5.9206,5.9206,5.8978,5.8597,5.8597,5.8358,5.7997,5.7997,5.7997,5.7997,5.7997,5.7997,5.7997,5.7997,5.7997,5.8143,5.8939,5.9196,5.9343,6.0003,6.0126,5.9905,5.9343,6.0187,6.13,6.152,6.2108,6.2646,6.2756,6.2793,6.2793,6.2793,6.2793,6.2793,6.2793,6.2793,6.2793,6.2793,6.2793,6.2793,6.2793,0.0,6.2793,6.2793,6.2793,6.2705,6.2462,6.241,6.2344,6.2265,6.2128,6.2087,6.2172,6.21,6.2345,6.2983,6.3794,6.4939,6.6424,6.6677,6.6786,6.6786,6.6786,6.6786,6.6786,6.6786,6.6786,6.6786,6.6786,6.6786,6.6786,6.6786,6.6858,6.704,6.7713,6.8075,6.838,6.9844,7.0387,7.0496,6.5413,6.5413,6.5528,6.5948,6.5681,6.5681,6.6552,6.5948,6.5566,6.6025,6.5681,6.5413,6.5413,6.5413,6.5566,6.5948,6.5987,6.5834,6.5413,6.5834,6.5872,6.5413,6.5413,6.5184,6.4771,6.3083,6.2013,6.1593,6.1211,6.1058,6.1065,6.1516,6.1271,6.0462,6.0684,6.0315,5.9537,5.9731,5.9494,5.8939,5.8939,5.8534,5.7997,5.7997,5.7997,5.7997,5.7997,5.7997,5.7997,5.7997,5.829,5.8792,5.96,6.015,6.0566,6.0933,6.1043,6.097,6.0603,6.1337,6.2254,6.2254,6.2536,6.2793,6.2793,6.2793,6.2793,6.2793,6.2793,6.2793,6.2793,6.2793,6.2793,6.2793,6.2793,0.0,6.2793,6.2793,6.2793,6.2793,6.2793,6.2717,6.2526,6.2436,6.2566,6.303,6.2853,6.3017,6.3566,6.3466,6.3741,6.4482,6.483,6.5591,6.6786,6.6786,6.6786,6.6786,6.6786,6.6786,6.6786,6.6786,6.6786,6.6786,6.6786,6.6786,6.6786,6.6786,6.7076,6.7547,6.8343,6.8923,6.943,7.0553,7.0987,7.1024,6.5375,6.5261,6.5184,6.5375,6.5413,6.5643,6.6292,6.5834,6.5643,6.633,6.5834,6.5413,6.5413,6.5413,6.5413,6.5413,6.5413,6.5413,6.5413,6.6025,6.6101,6.5413,6.5413,6.5031,6.4198,6.2892,6.2128,6.1898,6.1707,6.1707,6.1898,6.2204,6.188,6.1161,6.1262,6.0813,5.9945,6.0159,5.9858,5.9197,5.9112,5.8628,5.7997,5.7997,5.7997,5.7997,5.7997,5.7997,5.7997,5.7997,5.84,5.9086,6.0077,6.0823,6.1374,6.1777,6.1887,6.1851,6.163,6.2181,6.2793,6.2793,6.2793,6.2793,6.2793,6.2793,6.2793,6.2793,6.2793,6.2793,6.2793,6.2793,6.2793,6.2793,0.0,6.2793,6.2793,6.2793,6.2793,6.2793,6.2793,6.2816,6.2872,6.2793,6.3095,6.4017,6.3838,6.4021,6.4753,6.4662,6.4871,6.5591,6.5772,6.617,6.6786,6.6786,6.6786,6.6786,6.6786,6.6786,6.6786,6.6786,6.6786,6.6786,6.6786,6.6786,6.6786,6.6786,6.7293,6.8075,6.8902,6.9699,7.0496,7.1241,7.1494,7.1494,6.5261,6.481,6.4504,6.5261,6.5413,6.5413,6.549,6.5452,6.5413,6.549,6.5452,6.5413,6.5413,6.5413,6.5413,6.5413,6.5413,6.5413,6.5413,6.5452,6.5452,6.5413,6.5413,6.5031,6.4198,6.4084,6.3625,6.2808,6.2013,6.2006,6.277,6.1287,6.0936,6.1518,6.0821,6.0439,6.0328,5.9976,5.9588,5.9178,5.8801,5.8391,5.7997,5.7997,5.7997,5.7997,5.7997,5.7997,5.7997,5.7997,5.8033,5.8364,5.9905,6.0456,6.0786,6.2279,6.2719,6.2536,6.1777,6.2181,6.2793,6.2793,6.2793,6.2793,6.2793,6.2793,6.2793,6.2793,6.2793,6.2793,6.2793,6.2793,6.2793,6.2793,0.0,0.0,6.2793,6.2793,6.2793,6.2793,6.2793,6.3036,6.3664,6.3711,6.4054,6.4958,6.469,6.458,6.479,6.4565,6.4772,6.5555,6.6315,6.675,6.6786,6.6786,6.6786,6.6786,6.6786,6.6786,6.6786,6.6786,6.6786,6.6786,6.6786,6.6786,6.6786,6.6786,6.7293,6.8075,6.8902,6.9699,7.0496,7.1241,7.1494,7.1494,6.4619,6.481,6.5031,6.5337,6.5413,6.5413,6.5413,6.5413,6.5413,6.5413,6.5413,6.5413,6.5413,6.5413,6.5413,6.5413,6.5413,6.5413,6.5413,6.5413,6.5413,6.5413,6.5413,6.5261,6.4955,6.4466,6.4045,6.3701,6.3358,6.3396,6.3694,6.3052,6.2631,6.235,6.1516,6.0874,6.0394,6.0515,6.031,5.9919,5.9495,5.9087,5.8682,5.818,5.7997,5.7997,5.7997,5.7997,5.807,5.8572,5.9098,5.9685,6.0786,6.1484,6.2022,6.2609,6.2793,6.2719,6.2438,6.2572,6.2793,6.2793,6.2793,6.2793,6.2793,6.2793,6.2793,6.2793,6.2793,6.2793,6.2793,6.2793,6.2793,6.2793,0.0,6.2793,6.2793,6.2793,6.2793,6.2793,6.3282,6.3659,6.3774,6.4286,6.4958,6.5777,6.5528,6.5635,6.6248,6.6039,6.6025,6.6351,6.6641,6.6786,6.6786,6.6786,6.6786,6.6786,6.6786,6.6786,6.6786,6.6786,6.6786,6.6786,6.6786,6.6786,6.6786,6.6786,6.7293,6.8075,6.8902,6.9699,7.0496,7.1241,7.1494,7.1494,6.4466,6.481,6.5108,6.5375,6.5413,6.5413,6.5413,6.5413,6.5413,6.5413,6.5413,6.5413,6.5413,6.5413,6.5413,6.5413,6.5413,6.5413,6.5413,6.5413,6.5413,6.5413,6.5413,6.5261,6.5031,6.4733,6.4466,6.4198,6.4198,6.4313,6.458,6.4045,6.3465,6.2846,6.1975,6.1287,6.0769,6.0811,6.0647,6.0369,5.9823,5.9275,5.8792,5.851,5.8217,5.807,5.8584,5.8584,5.851,5.9306,5.993,6.0529,6.1337,6.2144,6.2793,6.2793,6.2793,6.2793,6.2793,6.2793,6.2793,6.2793,6.2793,6.2793,6.2793,6.2793,6.2793,6.2793,6.2793,6.2793,6.2793,6.2793,6.2793,6.2793,6.2793,6.2793,6.2793,6.305,6.3086,6.2829,6.3796,6.4418,6.4278,6.5047,6.5853,6.6619,6.6408,6.6472,6.7032,6.6903,6.6786,6.6786,6.6786,6.6786,6.6786,6.6786,6.6786,6.6786,6.6786,6.6786,6.6786,6.6786,6.6786,6.6786,6.6786,6.6786,6.6786,6.6786,6.7293,6.8075,6.8902,6.9699,7.0496,7.1241,7.1494,7.1494,6.507,6.4771,6.4466,6.5261,6.5413,6.5413,6.5413,6.5413,6.5413,6.5413,6.5413,6.5413,6.5413,6.5413,6.5413,6.5413,6.5413,6.5413,6.5413,6.5413,6.5413,6.5413,6.5375,6.5039,6.4236,6.4993,6.4993,6.4198,6.4198,6.4619,6.5375,6.3687,6.2923,6.2846,6.2013,6.1593,6.1542,6.0736,6.0454,6.0416,5.956,5.8719,5.8107,5.8902,5.8719,5.8217,5.9832,5.9893,5.9343,6.015,6.0419,6.0566,6.1374,6.2144,6.2793,6.2793,6.2793,6.2793,6.2793,6.2793,6.2793,6.2793,6.2793,6.2793,6.2793,6.2793,6.2793,6.2793,6.2793,6.2793,6.2793,6.2793,6.2793,6.2793,6.2829,6.2829,6.2829,6.3576,6.3759,6.2903,6.4261,6.5288,6.5288,6.6035,6.679,6.746,6.7294,6.7069,6.6801,6.6786,6.6786,6.6786,6.6786,6.6786,6.6786,6.6786,6.6786,6.6786,6.6786,6.6786,6.6786,6.6786,6.6786,6.6786,6.6786,6.6786,6.6786,6.6786,6.7293,6.809,6.8902,6.9699,7.0496,7.1241,7.1494,7.1494,6.4351,6.481,6.5108,6.5375,6.5413,6.5413,6.5413,6.5413,6.5413,6.5413,6.5413,6.5413,6.5413,6.5413,6.5413,6.5413,6.5413,6.5413,6.5413,6.5413,6.5413,6.5413,6.4848,6.4695,6.5031,6.4733,6.4733,6.5031,6.5031,6.5146,6.5375,6.4313,6.3503,6.2884,6.2617,6.2033,6.1175,6.1261,6.1142,6.0741,5.9646,5.938,5.9648,5.9306,5.938,5.9758,6.0236,6.026,6.015,6.097,6.1227,6.1374,6.2181,6.2609,6.2793,6.2793,6.2793,6.2793,6.2793,6.2793,6.2793,6.2793,6.2793,6.2793,6.2793,6.327,6.3539,6.2939,6.3282,6.3539,6.2903,6.3319,6.3723,6.3723,6.42,6.4554,6.4554,6.4273,6.3992,6.3723,6.464,6.5288,6.5288,6.6549,6.7376,6.7497,6.7233,6.699,6.6801,6.6786,6.6786,6.6786,6.6786,6.6786,6.6786,6.6786,6.6786,6.6786,6.6786,6.6786,6.6786,6.6786,6.6786,6.6786,6.6786,6.6786,6.6786,6.6786,6.7619,6.8866,6.9119,7.0025,7.1205,7.1422,7.1494,7.1494,6.4084,6.4848,6.5299,6.4993,6.5184,6.5413,6.5413,6.5413,6.5413,6.5413,6.5413,6.5413,6.5413,6.5413,6.5413,6.5413,6.5413,6.5413,6.5413,6.5413,6.5413,6.5413,6.4619,6.458,6.5375,6.4924,6.4917,6.5413,6.5413,6.5222,6.4924,6.4771,6.3847,6.2426,6.3121,6.2711,6.1549,6.2005,6.1746,6.0995,6.0399,6.004,5.993,6.0077,6.026,6.0493,6.1104,6.1153,6.1006,6.1814,6.2071,6.2144,6.2646,6.2793,6.2793,6.2793,6.2793,6.2793,6.2793,6.2793,6.2793,6.2793,6.2793,6.2793,6.2793,6.3196,6.3429,6.2903,6.3196,6.3539,6.3356,6.3723,6.4213,6.453,6.4971,6.5178,6.4861,6.4677,6.4347,6.3649,6.4897,6.5655,6.5325,6.6769,6.762,6.74,6.7105,6.6889,6.6786,6.6786,6.6786,6.6786,6.6786,6.6786,6.6786,6.6786,6.6786,6.6786,6.6786,6.6786,6.6786,6.6786,6.6786,6.6786,6.6786,6.6786,6.6786,6.6786,6.7547,6.8757,6.9083,6.9952,7.1096,7.1386,7.1494,7.1494,6.4275,6.4886,6.5184,6.4428,6.4917,6.5413,6.5413,6.5413,6.5413,6.5413,6.5413,6.5413,6.5413,6.5413,6.5413,6.5413,6.5413,6.5413,6.5413,6.5413,6.5413,6.5413,6.4695,6.4657,6.5375,6.5337,6.5337,6.5413,6.5413,6.5031,6.4313,6.4993,6.4,6.1784,6.3472,6.3458,6.2263,6.2626,6.2136,6.1174,6.1308,6.0603,5.9563,6.1043,6.119,6.0823,6.2279,6.2328,6.1814,6.2536,6.2793,6.2793,6.2793,6.2793,6.2793,6.2793,6.2793,6.2793,6.2793,6.2793,6.2793,6.2793,6.2866,6.2903,6.2829,6.2866,6.2903,6.2903,6.2976,6.3233,6.3992,6.4176,6.442,6.5081,6.5251,6.5044,6.431,6.4787,6.4628,6.3086,6.4897,6.5999,6.5251,6.6596,6.7428,6.7115,6.6925,6.6786,6.6786,6.6786,6.6786,6.6786,6.6786,6.6786,6.6786,6.6786,6.6786,6.6786,6.6786,6.6786,6.6786,6.6786,6.6786,6.6786,6.6786,6.6786,6.6786,6.6786,6.7293,6.8075,6.8902,6.9699,7.0496,7.1241,7.1494,7.1494,6.5039,6.5261,6.5337,6.5184,6.5261,6.5413,6.5413,6.5413,6.5413,6.5413,6.5413,6.5413,6.5413,6.5413,6.5413,6.5413,6.5413,6.5413,6.5413,6.5413,6.5413,6.5413,6.5222,6.5222,6.5413,6.4771,6.4771,6.5413,6.5413,6.5299,6.5146,6.4657,6.3809,6.2655,6.374,6.3283,6.177,6.1892,6.1794,6.1395,6.0198,6.026,6.1117,6.1484,6.1887,6.2316,6.2683,6.2683,6.2572,6.2756,6.2793,6.2793,6.2793,6.2793,6.2793,6.2793,6.2793,6.2793,6.2793,6.2793,6.2793,6.2793,6.3319,6.3649,6.2976,6.3319,6.3796,6.3796,6.431,6.4628,6.4163,6.4604,6.4897,6.442,6.4897,6.5251,6.5081,6.464,6.4237,6.387,6.4273,6.4543,6.4396,6.5567,6.6354,6.6248,6.6584,6.6786,6.6786,6.6786,6.6786,6.6786,6.6786,6.6786,6.6786,6.6786,6.6786,6.6786,6.6786,6.6786,6.6786,6.6786,6.6786,6.6786,6.6786,6.6786,6.6786,6.6786,6.7293,6.8075,6.8902,6.9699,7.0496,7.1241,7.1494,7.1494,6.4802,6.5146,6.5261,6.4886,6.5146,6.5413,6.5413,6.5413,6.5413,6.5413,6.5413,6.5413,6.5413,6.5413,6.5413,6.5413,6.5413,6.5413,6.5413,6.5413,6.5413,6.5413,6.5413,6.5413,6.5413,6.4993,6.5001,6.5413,6.5039,6.4611,6.4229,6.4198,6.3319,6.1784,6.3854,6.3394,6.1129,6.2341,6.214,6.1006,6.0958,6.119,6.163,6.2034,6.2426,6.2793,6.2793,6.2793,6.2793,6.2793,6.2793,6.2793,6.2793,6.2793,6.2793,6.2793,6.2793,6.2793,6.2793,6.2793,6.2793,6.2793,6.3123,6.3356,6.2903,6.3466,6.3992,6.3576,6.382,6.4114,6.4103,6.4751,6.5141,6.4751,6.5338,6.5595,6.4824,6.4347,6.3956,6.3539,6.3833,6.4249,6.464,6.5409,6.5924,6.5979,6.6511,6.6786,6.6786,6.6786,6.6786,6.6786,6.6786,6.6786,6.6786,6.6786,6.6786,6.6786,6.6786,6.6786,6.6786,6.6786,6.6786,6.6786,6.6786,6.6786,6.6786,6.6786,6.7293,6.8054,6.8452,6.9119,6.9916,7.0698,7.1205,7.1494,6.4542,6.4955,6.5184,6.4504,6.4955,6.5413,6.5413,6.5413,6.5413,6.5413,6.5413,6.5413,6.5413,6.5413,6.5413,6.5413,6.5413,6.5413,6.5413,6.5413,6.5413,6.5413,6.5413,6.5413,6.5413,6.5413,6.5413,6.5413,6.458,6.3893,6.3343,6.377,6.2937,6.1141,6.3809,6.344,6.0961,6.2885,6.2577,6.0921,6.2095,6.2291,6.1887,6.2536,6.2793,6.2793,6.2793,6.2793,6.2793,6.2793,6.2793,6.2793,6.2793,6.2793,6.2793,6.2793,6.2793,6.2793,6.2793,6.2793,6.2793,6.2793,6.2903,6.2976,6.2829,6.3356,6.3723,6.3135,6.3123,6.3417,6.3992,6.4751,6.5215,6.4921,6.5448,6.5411,6.4053,6.3882,6.36,6.2841,6.3391,6.4162,6.493,6.5268,6.5577,6.5938,6.6351,6.6641,6.6786,6.6786,6.6786,6.6786,6.6786,6.6786,6.6786,6.6786,6.6786,6.6786,6.6786,6.6786,6.6786,6.6786,6.6786,6.6786,6.6786,6.6786,6.6786,6.6786,6.7184,6.7785,6.793,6.8416,6.9119,7.0061,7.0894,7.1494,6.5261,6.5337,6.5375,6.5261,6.5337,6.5413,6.5413,6.5413,6.5413,6.5413,6.5413,6.5413,6.5413,6.5413,6.5413,6.5413,6.5413,6.5413,6.5413,6.5413,6.5413,6.5413,6.5413,6.5413,6.5413,6.5413,6.5413,6.5413,6.458,6.4504,6.5031,6.3694,6.3274,6.3663,6.3388,6.3006,6.2537,6.2172,6.2183,6.2426,6.1961,6.2108,6.2646,6.2756,6.2793,6.2793,6.2793,6.2793,6.2793,6.2793,6.2793,6.2793,6.2793,6.2793,6.2793,6.2793,6.2793,6.2793,6.2793,6.2793,6.2793,6.2793,6.3356,6.3723,6.2976,6.2903,6.316,6.3796,6.4494,6.4787,6.4213,6.4751,6.4811,6.338,6.3233,6.3233,6.3013,6.2976,6.2902,6.2641,6.2739,6.3066,6.3739,6.3869,6.443,6.5725,6.5786,6.6062,6.675,6.6786,6.6786,6.6786,6.6786,6.6786,6.6786,6.6786,6.6786,6.6786,6.6786,6.6786,6.6786,6.6786,6.6786,6.6786,6.6786,6.6786,6.6786,6.6786,6.6858,6.704,6.7713,6.809,6.8343,6.9844,7.0894,7.1494,6.5413,6.5413,6.5413,6.5413,6.5413,6.5413,6.5413,6.5413,6.5413,6.5413,6.5413,6.5413,6.5413,6.5413,6.5413,6.5413,6.5413,6.5413,6.5413,6.5413,6.5413,6.5413,6.5413,6.5413,6.5413,6.5413,6.5413,6.5413,6.4114,6.3656,6.3992,6.2739,6.2395,6.2732,6.2635,6.2449,6.2237,6.2072,6.2064,6.2144,6.2218,6.2462,6.2793,6.2793,6.2793,6.2793,6.2793,6.2793,6.2793,6.2793,6.2793,6.2793,6.2793,6.2793,6.2793,6.2793,6.2793,6.2793,6.2793,6.2793,6.2793,6.2793,6.3086,6.327,6.2903,6.2793,6.2903,6.3282,6.3649,6.3783,6.3429,6.4053,6.4237,6.3013,6.3196,6.3356,6.2866,6.273,6.2641,6.25,6.2889,6.3265,6.3577,6.3853,6.4338,6.5065,6.5024,6.5084,6.5446,6.5446,6.5663,6.6134,6.6134,6.6351,6.6786,6.6786,6.6786,6.6786,6.6786,6.6786,6.6786,6.6786,6.6786,6.6786,6.6786,6.6786,6.6786,6.6786,6.6786,6.6858,6.7184,6.7604,6.8162,6.93,7.0206,7.0951]}]]